[[{"header":{"parameterUnit":"m.s-1","parameterCategory":1,"la1":31.0,"la2":29.5877,"lo1":-88.7671,"lo2":-86.6584,"dy":0.0162,"dx":0.0185,"nx":115,"ny":88,"refTime":"2023-05-04T00:00:00:Z","depth":0,"parameterNumber":2,"parameterNumberName":"U-component_of_WINDS"},"data":[0.0,0.0,0.0,0.0,0.0,0.0,0.0,0.0,0.0,0.0,0.0,0.0,0.0,0.0,0.0,0.0,0.0,0.0,0.0,0.0,0.0,0.0,0.0,0.0,0.0,0.0,0.0,0.0,0.0,0.0,0.0,0.0,0.0,0.0,0.0,0.0,0.0,0.0,0.0,0.0,0.0,0.0,0.0,0.0,0.0,0.0,0.0,0.0,0.0,0.0,0.0,0.0,0.0,0.0,0.0,0.0,0.0,0.0,0.0,0.0,0.0,0.0,0.0,0.0,0.0,0.0,0.0,0.0,0.0,0.0,0.0,0.0,0.0,0.0,0.0,0.0,0.0,0.0,0.0,0.0,0.0,0.0,0.0,0.0,0.0,0.0,0.0,0.0,0.0,0.0,0.0,0.0,0.0,0.0,0.0,0.0,0.0,0.0,0.0,0.0,0.0,0.0,0.0,0.0,0.0,0.0,0.0,0.0,0.0,0.0,0.0,0.0,0.0,0.0,0.0,0.0,0.0,0.0,0.0,0.0,0.0,0.0,0.0,0.0,0.0,0.0,0.0,0.0,0.0,0.0,0.0,0.0,0.0,0.0,0.0,0.0,0.0,0.0,0.0,0.0,0.0,0.0,0.0,0.0,0.0,0.0,0.0,0.0,0.0,0.0,0.0,0.0,0.0,0.0,0.0,0.0,0.0,0.0,0.0,0.0,0.0,0.0,0.0,0.0,0.0,0.0,0.0,0.0,0.0,0.0,0.0,0.0,0.0,0.0,0.0,0.0,0.0,0.0,0.0,0.0,0.0,0.0,0.0,0.0,0.0,0.0,0.0,0.0,0.0,0.0,0.0,0.0,0.0,0.0,0.0,0.0,0.0,0.0,0.0,0.0,0.0,0.0,0.0,0.0,0.0,0.0,0.0,0.0,0.0,0.0,0.0,0.0,0.0,0.0,0.0,0.0,0.0,0.0,0.0,0.0,0.0,0.0,0.0,0.0,0.0,0.0,0.0,0.0,0.0,0.0,0.0,0.0,0.0,0.0,0.0,0.0,0.0,0.0,0.0,0.0,0.0,0.0,0.0,0.0,0.0,0.0,0.0,0.0,0.0,0.0,0.0,0.0,0.0,0.0,0.0,0.0,0.0,0.0,0.0,0.0,0.0,0.0,0.0,0.0,0.0,0.0,0.0,0.0,0.0,0.0,0.0,0.0,0.0,0.0,0.0,0.0,0.0,0.0,0.0,0.0,0.0,0.0,0.0,0.0,0.0,0.0,0.0,0.0,0.0,0.0,0.0,0.0,0.0,0.0,0.0,0.0,0.0,0.0,0.0,0.0,0.0,0.0,0.0,0.0,0.0,0.0,0.0,0.0,0.0,0.0,0.0,0.0,0.0,0.0,0.0,0.0,0.0,0.0,0.0,0.0,0.0,0.0,0.0,0.0,0.0,0.0,0.0,0.0,0.0,0.0,0.0,0.0,0.0,0.0,0.0,0.0,0.0,0.0,0.0,0.0,0.0,0.0,0.0,0.0,0.0,0.0,0.0,0.0,0.0,0.0,0.0,0.0,0.0,0.0,0.0,0.0,0.0,0.0,0.0,0.0,0.0,0.0,0.0,0.0,0.0,0.0,0.0,0.0,0.0,0.0,0.0,0.0,0.0,0.0,0.0,0.0,0.0,0.0,0.0,0.0,0.0,0.0,0.0,0.0,0.0,0.0,0.0,0.0,0.0,0.0,0.0,0.0,0.0,0.0,0.0,0.0,0.0,0.0,0.0,0.0,0.0,0.0,0.0,0.0,0.0,0.0,0.0,0.0,0.0,0.0,0.0,0.0,0.0,0.0,0.0,0.0,0.0,0.0,0.0,0.0,0.0,0.0,0.0,0.0,0.0,0.0,0.0,0.0,0.0,0.0,0.0,0.0,0.0,0.0,0.0,0.0,0.0,0.0,0.0,0.0,0.0,0.0,0.0,0.0,0.0,0.0,0.0,0.0,0.0,0.0,0.0,0.0,0.0,0.0,0.0,0.0,0.0,0.0,0.0,0.0,0.0,0.0,0.0,0.0,0.0,0.0,0.0,0.0,0.0,0.0,0.0,0.0,0.0,0.0,0.0,0.0,0.0,0.0,0.0,0.0,0.0,0.0,0.0,0.0,0.0,0.0,0.0,0.0,0.0,0.0,0.0,0.0,0.0,0.0,0.0,0.0,0.0,0.0,0.0,0.0,0.0,0.0,0.0,0.0,0.0,0.0,0.0,0.0,0.0,0.0,0.0,0.0,0.0,0.0,0.0,0.0,0.0,0.0,0.0,0.0,0.0,0.0,0.0,0.0,0.0,0.0,0.0,0.0,0.0,0.0,0.0,0.0,0.0,0.0,0.0,0.0,0.0,0.0,0.0,0.0,0.0,0.0,0.0,0.0,0.0,0.0,0.0,0.0,0.0,0.0,0.0,0.0,0.0,0.0,0.0,0.0,0.0,0.0,0.0,0.0,0.0,0.0,0.0,0.0,0.0,0.0,0.0,0.0,0.0,0.0,0.0,0.0,0.0,0.0,0.0,0.0,0.0,0.0,0.0,0.0,0.0,0.0,0.0,0.0,0.0,0.0,0.0,0.0,0.0,0.0,0.0,0.0,0.0,0.0,0.0,0.0,0.0,0.0,0.0,0.0,0.0,0.0,0.0,0.0,0.0,0.0,0.0,0.0,0.0,0.0,0.0,0.0,0.0,0.0,0.0,0.0,0.0,0.0,0.0,0.0,0.0,0.0,0.0,0.0,0.0,0.0,0.0,0.0,0.0,0.0,0.0,0.0,0.0,0.0,0.0,0.0,0.0,0.0,0.0,0.0,0.0,0.0,0.0,0.0,0.0,0.0,0.0,0.0,0.0,0.0,0.0,0.0,0.0,0.0,0.0,0.0,0.0,0.0,0.0,0.0,0.0,0.0,0.0,0.0,0.0,0.0,0.0,0.0,0.0,0.0,0.0,0.0,0.0,0.0,0.0,0.0,0.0,0.0,0.0,0.0,0.0,0.0,0.0,0.0,0.0,0.0,0.0,0.0,0.0,0.0,0.0,0.0,0.0,0.0,0.0,0.0,0.0,0.0,0.0,0.0,0.0,0.0,0.0,0.0,0.0,0.0,0.0,0.0,0.0,0.0,0.0,0.0,0.0,0.0,0.0,0.0,0.0,0.0,0.0,0.0,0.0,0.0,0.0,0.0,0.0,0.0,0.0,0.0,0.0,0.0,0.0,0.0,0.0,0.0,0.0,0.0,0.0,0.0,0.0,0.0,0.0,0.0,0.0,0.0,0.0,0.0,0.0,0.0,0.0,0.0,0.0,0.0,0.0,0.0,0.0,0.0,0.0,0.0,0.0,0.0,0.0,0.0,0.0,0.0,0.0,0.0,0.0,0.0,0.0,0.0,0.0,0.0,0.0,0.0,0.0,0.0,0.0,0.0,0.0,0.0,0.0,0.0,0.0,0.0,0.0,0.0,0.0,0.0,0.0,0.0,0.0,0.0,0.0,0.0,0.0,0.0,0.0,0.0,0.0,0.0,0.0,0.0,0.0,0.0,0.0,0.0,0.0,0.0,0.0,0.0,0.0,0.0,0.0,0.0,0.0,0.0,0.0,0.0,0.0,0.0,0.0,0.0,0.0,0.0,0.0,0.0,0.0,0.0,0.0,0.0,0.0,0.0,0.0,0.0,0.0,0.0,0.0,0.0,0.0,0.0,0.0,0.0,0.0,0.0,0.0,0.0,0.0,0.0,0.0,0.0,0.0,0.0,0.0,0.0,0.0,0.0,0.0,0.0,0.0,0.0,0.0,0.0,0.0,0.0,0.0,0.0,0.0,0.0,0.0,0.0,0.0,0.0,0.0,0.0,0.0,0.0,0.0,0.0,0.0,0.0,0.0,0.0,0.0,0.0,0.0,0.0,0.0,0.0,0.0,0.0,0.0,0.0,0.0,0.0,0.0,0.0,0.0,0.0,0.0,0.0,0.0,0.0,0.0,0.0,0.0,0.0,0.0,0.0,0.0,0.0,0.0,0.0,0.0,0.0,0.0,0.0,0.0,0.0,0.0,0.0,0.0,0.0,0.0,0.0,0.0,0.0,0.0,0.0,0.0,0.0,0.0,0.0,0.0,0.0,0.0,0.0,0.0,0.0,0.0,0.0,0.0,0.0,0.0,0.0,0.0,0.0,0.0,0.0,0.0,0.0,0.0,0.0,0.0,0.0,0.0,0.0,0.0,0.0,0.0,0.0,0.0,0.0,0.0,0.0,0.0,0.0,-2.5669,0.0,0.0,0.0,0.0,0.0,0.0,0.0,0.0,0.0,0.0,0.0,0.0,0.0,0.0,0.0,0.0,0.0,0.0,0.0,0.0,0.0,0.0,0.0,0.0,0.0,0.0,0.0,0.0,0.0,0.0,0.0,0.0,0.0,0.0,0.0,0.0,0.0,0.0,0.0,0.0,0.0,0.0,0.0,0.0,0.0,0.0,0.0,0.0,0.0,0.0,0.0,0.0,0.0,0.0,0.0,0.0,0.0,0.0,0.0,0.0,0.0,0.0,0.0,0.0,0.0,0.0,0.0,0.0,0.0,0.0,0.0,0.0,0.0,0.0,0.0,0.0,0.0,0.0,0.0,0.0,0.0,0.0,0.0,0.0,0.0,0.0,0.0,0.0,0.0,0.0,0.0,0.0,0.0,0.0,0.0,0.0,0.0,0.0,0.0,0.0,0.0,0.0,0.0,0.0,0.0,0.0,0.0,0.0,0.0,0.0,-2.5687,-2.5687,-2.5687,-2.5687,-2.5669,0.0,0.0,0.0,0.0,0.0,0.0,0.0,0.0,0.0,0.0,0.0,0.0,0.0,0.0,0.0,0.0,0.0,0.0,0.0,0.0,0.0,0.0,0.0,0.0,0.0,0.0,0.0,0.0,0.0,0.0,0.0,0.0,0.0,0.0,0.0,0.0,0.0,0.0,0.0,0.0,0.0,0.0,0.0,0.0,0.0,0.0,0.0,0.0,0.0,0.0,0.0,0.0,0.0,0.0,0.0,0.0,0.0,0.0,0.0,0.0,0.0,0.0,0.0,0.0,0.0,0.0,0.0,0.0,0.0,0.0,0.0,0.0,0.0,0.0,0.0,0.0,0.0,0.0,0.0,0.0,0.0,0.0,0.0,0.0,0.0,0.0,0.0,0.0,0.0,0.0,0.0,0.0,0.0,0.0,0.0,0.0,0.0,0.0,0.0,0.0,0.0,0.0,0.0,0.0,0.0,0.0,0.0,0.0,0.0,0.0,0.0,0.0,-2.5687,-2.5688,-2.5652,0.0,0.0,0.0,0.0,0.0,0.0,0.0,0.0,0.0,0.0,0.0,0.0,0.0,0.0,0.0,0.0,0.0,0.0,0.0,0.0,0.0,0.0,0.0,0.0,0.0,0.0,0.0,0.0,0.0,0.0,0.0,0.0,0.0,0.0,0.0,0.0,0.0,0.0,0.0,0.0,0.0,0.0,0.0,0.0,0.0,0.0,0.0,0.0,0.0,0.0,0.0,0.0,0.0,0.0,0.0,0.0,0.0,0.0,0.0,0.0,0.0,0.0,0.0,0.0,0.0,0.0,0.0,0.0,0.0,0.0,0.0,0.0,0.0,0.0,0.0,0.0,0.0,0.0,0.0,0.0,0.0,0.0,0.0,0.0,0.0,0.0,0.0,0.0,0.0,0.0,0.0,0.0,0.0,0.0,0.0,0.0,0.0,0.0,0.0,0.0,0.0,0.0,0.0,0.0,0.0,0.0,0.0,0.0,0.0,0.0,-2.5687,-2.5687,-2.5687,0.0,-2.5601,0.0,0.0,0.0,0.0,0.0,0.0,0.0,0.0,0.0,0.0,0.0,0.0,0.0,0.0,0.0,0.0,0.0,0.0,0.0,0.0,0.0,0.0,0.0,0.0,0.0,0.0,0.0,0.0,0.0,0.0,0.0,0.0,0.0,0.0,0.0,0.0,0.0,0.0,0.0,0.0,0.0,0.0,0.0,0.0,0.0,0.0,0.0,0.0,0.0,0.0,0.0,0.0,0.0,0.0,0.0,0.0,0.0,0.0,0.0,0.0,0.0,0.0,0.0,0.0,0.0,0.0,0.0,0.0,0.0,0.0,0.0,0.0,0.0,0.0,0.0,0.0,0.0,0.0,0.0,0.0,0.0,0.0,0.0,0.0,0.0,0.0,0.0,0.0,0.0,0.0,0.0,0.0,0.0,0.0,0.0,0.0,0.0,0.0,0.0,0.0,0.0,0.0,0.0,0.0,0.0,0.0,0.0,0.0,0.0,0.0,-2.5687,-2.5687,-2.5687,-2.5457,0.0,0.0,0.0,0.0,0.0,0.0,0.0,0.0,0.0,0.0,0.0,0.0,0.0,0.0,0.0,0.0,0.0,0.0,0.0,0.0,0.0,0.0,0.0,0.0,0.0,0.0,0.0,0.0,0.0,0.0,0.0,0.0,0.0,0.0,0.0,0.0,0.0,0.0,0.0,0.0,0.0,0.0,0.0,0.0,0.0,0.0,0.0,0.0,0.0,0.0,0.0,0.0,0.0,0.0,0.0,0.0,0.0,0.0,0.0,0.0,0.0,0.0,0.0,0.0,0.0,0.0,0.0,0.0,0.0,0.0,0.0,0.0,0.0,0.0,0.0,0.0,0.0,0.0,0.0,0.0,0.0,0.0,0.0,0.0,0.0,0.0,0.0,0.0,0.0,0.0,0.0,0.0,0.0,0.0,0.0,0.0,0.0,0.0,0.0,0.0,0.0,0.0,0.0,0.0,0.0,0.0,0.0,0.0,0.0,0.0,-2.5687,-2.5687,-2.5687,-2.5687,-2.528,-2.4426,0.0,0.0,0.0,0.0,0.0,0.0,0.0,0.0,0.0,0.0,0.0,0.0,0.0,0.0,0.0,0.0,0.0,0.0,0.0,0.0,0.0,0.0,0.0,0.0,0.0,0.0,0.0,0.0,0.0,0.0,0.0,0.0,0.0,0.0,0.0,0.0,0.0,0.0,0.0,0.0,0.0,0.0,0.0,0.0,0.0,0.0,0.0,0.0,0.0,0.0,0.0,0.0,0.0,0.0,0.0,0.0,0.0,0.0,0.0,0.0,0.0,0.0,0.0,0.0,0.0,0.0,0.0,0.0,0.0,0.0,0.0,0.0,0.0,0.0,0.0,0.0,0.0,0.0,0.0,0.0,0.0,0.0,0.0,0.0,0.0,0.0,0.0,0.0,0.0,0.0,0.0,0.0,0.0,0.0,0.0,0.0,0.0,0.0,0.0,0.0,0.0,0.0,0.0,0.0,0.0,0.0,0.0,0.0,-2.5687,-2.5687,-2.5687,-2.5687,-2.5687,-2.528,0.0,0.0,0.0,0.0,0.0,0.0,0.0,0.0,0.0,0.0,0.0,0.0,0.0,0.0,0.0,0.0,0.0,0.0,0.0,0.0,0.0,0.0,0.0,0.0,0.0,0.0,0.0,0.0,0.0,0.0,0.0,0.0,0.0,0.0,0.0,0.0,0.0,0.0,0.0,0.0,0.0,0.0,0.0,0.0,0.0,0.0,0.0,0.0,0.0,0.0,0.0,0.0,0.0,0.0,0.0,0.0,0.0,0.0,0.0,0.0,0.0,0.0,0.0,0.0,0.0,0.0,0.0,0.0,0.0,0.0,0.0,0.0,0.0,0.0,0.0,0.0,0.0,0.0,0.0,0.0,0.0,0.0,0.0,0.0,0.0,0.0,0.0,0.0,0.0,0.0,0.0,0.0,0.0,0.0,0.0,0.0,0.0,0.0,0.0,0.0,0.0,0.0,0.0,0.0,0.0,0.0,0.0,0.0,0.0,-2.5687,-2.5687,-2.5687,-2.5687,-2.5687,-2.5025,0.0,0.0,0.0,0.0,0.0,0.0,0.0,0.0,0.0,0.0,0.0,0.0,0.0,0.0,0.0,0.0,0.0,0.0,0.0,0.0,0.0,0.0,0.0,0.0,0.0,0.0,0.0,0.0,0.0,0.0,0.0,0.0,0.0,0.0,0.0,0.0,0.0,0.0,0.0,0.0,0.0,0.0,0.0,0.0,0.0,0.0,0.0,0.0,0.0,0.0,0.0,0.0,0.0,0.0,0.0,0.0,0.0,0.0,0.0,0.0,0.0,0.0,0.0,0.0,0.0,0.0,0.0,0.0,0.0,0.0,0.0,0.0,0.0,0.0,0.0,0.0,0.0,0.0,0.0,0.0,0.0,0.0,0.0,0.0,0.0,0.0,0.0,0.0,0.0,0.0,0.0,0.0,0.0,0.0,0.0,0.0,0.0,0.0,0.0,0.0,0.0,0.0,0.0,0.0,0.0,0.0,0.0,0.0,0.0,-2.5689,0.0,-2.5691,0.0,-2.5689,-2.4889,0.0,0.0,0.0,0.0,0.0,0.0,0.0,0.0,0.0,0.0,0.0,0.0,0.0,0.0,0.0,0.0,0.0,0.0,0.0,0.0,0.0,0.0,0.0,0.0,0.0,0.0,0.0,0.0,0.0,0.0,0.0,0.0,0.0,0.0,0.0,0.0,0.0,0.0,0.0,0.0,0.0,0.0,0.0,0.0,0.0,0.0,0.0,0.0,0.0,0.0,0.0,0.0,0.0,0.0,0.0,0.0,0.0,0.0,0.0,0.0,0.0,0.0,0.0,0.0,0.0,0.0,0.0,0.0,0.0,0.0,0.0,0.0,0.0,0.0,0.0,0.0,0.0,0.0,0.0,0.0,0.0,0.0,0.0,0.0,0.0,0.0,0.0,0.0,0.0,0.0,0.0,0.0,0.0,0.0,0.0,0.0,0.0,0.0,0.0,0.0,0.0,0.0,0.0,0.0,0.0,0.0,0.0,0.0,-2.569,-2.5694,-2.5698,-2.5698,-2.5694,-2.5694,-2.4891,0.0,0.0,0.0,0.0,0.0,0.0,0.0,0.0,0.0,0.0,0.0,0.0,0.0,0.0,0.0,0.0,0.0,0.0,0.0,0.0,0.0,0.0,0.0,0.0,0.0,0.0,0.0,0.0,0.0,0.0,0.0,0.0,0.0,0.0,0.0,0.0,0.0,0.0,0.0,0.0,0.0,0.0,0.0,0.0,0.0,0.0,0.0,0.0,0.0,0.0,0.0,0.0,0.0,0.0,0.0,0.0,0.0,0.0,0.0,0.0,0.0,0.0,0.0,0.0,0.0,0.0,0.0,0.0,0.0,0.0,0.0,0.0,0.0,0.0,0.0,0.0,0.0,0.0,0.0,0.0,0.0,0.0,0.0,0.0,0.0,0.0,0.0,0.0,0.0,0.0,0.0,0.0,0.0,0.0,0.0,0.0,0.0,0.0,0.0,0.0,0.0,0.0,0.0,0.0,0.0,0.0,0.0,0.0,0.0,-2.5694,-2.5698,-2.57,-2.5698,-2.5695,-2.4874,0.0,0.0,0.0,0.0,0.0,0.0,0.0,0.0,0.0,0.0,0.0,0.0,0.0,0.0,0.0,0.0,0.0,0.0,0.0,0.0,0.0,0.0,0.0,0.0,0.0,0.0,0.0,0.0,0.0,0.0,0.0,0.0,0.0,0.0,0.0,0.0,0.0,0.0,0.0,0.0,0.0,0.0,0.0,0.0,0.0,0.0,0.0,0.0,0.0,0.0,0.0,0.0,0.0,0.0,0.0,0.0,0.0,0.0,0.0,0.0,0.0,0.0,0.0,0.0,0.0,0.0,0.0,0.0,0.0,0.0,0.0,0.0,0.0,0.0,0.0,0.0,0.0,0.0,0.0,0.0,0.0,0.0,0.0,0.0,0.0,0.0,0.0,0.0,0.0,0.0,0.0,0.0,0.0,0.0,0.0,0.0,0.0,0.0,0.0,0.0,0.0,0.0,0.0,0.0,0.0,0.0,0.0,0.0,0.0,-2.57,-2.5702,-2.5702,-2.5702,-2.57,-2.5033,-2.3664,0.0,0.0,0.0,0.0,0.0,0.0,0.0,0.0,0.0,0.0,0.0,0.0,0.0,0.0,0.0,0.0,0.0,0.0,0.0,0.0,0.0,0.0,0.0,0.0,0.0,0.0,0.0,0.0,0.0,0.0,0.0,0.0,0.0,0.0,0.0,0.0,0.0,0.0,0.0,0.0,0.0,0.0,0.0,0.0,0.0,0.0,0.0,0.0,0.0,0.0,0.0,0.0,0.0,0.0,0.0,0.0,0.0,0.0,0.0,0.0,0.0,0.0,0.0,0.0,0.0,0.0,0.0,0.0,0.0,0.0,0.0,0.0,0.0,0.0,0.0,0.0,0.0,0.0,0.0,0.0,0.0,0.0,0.0,0.0,0.0,0.0,0.0,0.0,0.0,0.0,0.0,0.0,0.0,0.0,0.0,0.0,0.0,0.0,0.0,0.0,0.0,0.0,0.0,0.0,0.0,0.0,0.0,0.0,-2.5703,-2.5702,-2.5703,-2.5703,-2.5703,-2.5291,0.0,0.0,0.0,0.0,0.0,0.0,0.0,0.0,0.0,0.0,0.0,0.0,0.0,0.0,0.0,0.0,0.0,0.0,0.0,0.0,0.0,0.0,0.0,0.0,0.0,0.0,0.0,0.0,0.0,0.0,0.0,0.0,0.0,0.0,0.0,0.0,0.0,0.0,0.0,0.0,0.0,0.0,0.0,0.0,0.0,0.0,0.0,0.0,0.0,0.0,0.0,0.0,0.0,0.0,0.0,0.0,0.0,0.0,0.0,0.0,0.0,0.0,0.0,0.0,0.0,0.0,0.0,0.0,0.0,0.0,0.0,0.0,0.0,0.0,0.0,0.0,0.0,0.0,0.0,0.0,0.0,0.0,0.0,0.0,0.0,0.0,0.0,0.0,0.0,0.0,0.0,0.0,0.0,0.0,0.0,0.0,0.0,0.0,0.0,0.0,0.0,0.0,0.0,0.0,0.0,0.0,0.0,0.0,0.0,-2.5695,-2.5691,-2.5694,-2.5701,-2.5703,-2.5293,0.0,0.0,0.0,0.0,0.0,0.0,0.0,0.0,0.0,0.0,0.0,0.0,0.0,0.0,0.0,0.0,0.0,0.0,0.0,0.0,0.0,0.0,0.0,0.0,0.0,0.0,0.0,0.0,0.0,0.0,0.0,0.0,0.0,0.0,0.0,0.0,0.0,0.0,0.0,0.0,0.0,0.0,0.0,0.0,0.0,0.0,0.0,0.0,0.0,0.0,0.0,0.0,0.0,0.0,0.0,0.0,0.0,0.0,0.0,0.0,0.0,0.0,0.0,0.0,0.0,0.0,0.0,0.0,0.0,0.0,0.0,0.0,0.0,0.0,0.0,0.0,0.0,0.0,0.0,0.0,0.0,0.0,0.0,0.0,0.0,0.0,0.0,0.0,0.0,0.0,0.0,0.0,0.0,0.0,0.0,0.0,0.0,0.0,0.0,0.0,0.0,0.0,0.0,0.0,0.0,0.0,0.0,0.0,-2.5699,-2.5687,-2.5699,-2.5701,-2.5691,-2.57,-2.5469,0.0,0.0,0.0,0.0,0.0,0.0,0.0,0.0,0.0,0.0,0.0,0.0,0.0,0.0,0.0,0.0,0.0,0.0,0.0,0.0,0.0,0.0,0.0,0.0,0.0,0.0,0.0,0.0,0.0,0.0,0.0,0.0,0.0,0.0,0.0,0.0,0.0,0.0,0.0,0.0,0.0,0.0,0.0,0.0,0.0,0.0,0.0,0.0,0.0,0.0,0.0,0.0,0.0,0.0,0.0,0.0,0.0,0.0,0.0,0.0,0.0,0.0,0.0,0.0,0.0,0.0,0.0,0.0,0.0,0.0,0.0,0.0,0.0,0.0,0.0,0.0,0.0,0.0,0.0,0.0,0.0,0.0,0.0,0.0,0.0,0.0,0.0,0.0,0.0,0.0,0.0,0.0,0.0,0.0,0.0,0.0,0.0,0.0,0.0,0.0,0.0,0.0,0.0,0.0,0.0,0.0,0.0,0.0,-2.5695,-2.5704,-2.5693,-2.5705,-2.5687,-2.5692,-2.5702,0.0,0.0,0.0,0.0,0.0,0.0,0.0,0.0,0.0,0.0,0.0,0.0,0.0,0.0,0.0,0.0,0.0,0.0,0.0,0.0,0.0,0.0,0.0,0.0,0.0,0.0,0.0,0.0,0.0,0.0,0.0,0.0,0.0,0.0,0.0,0.0,0.0,0.0,0.0,0.0,0.0,0.0,0.0,0.0,0.0,0.0,0.0,0.0,0.0,0.0,0.0,0.0,0.0,0.0,0.0,0.0,0.0,0.0,0.0,0.0,0.0,0.0,0.0,0.0,0.0,0.0,0.0,0.0,0.0,0.0,0.0,0.0,0.0,0.0,0.0,0.0,0.0,0.0,0.0,0.0,0.0,0.0,0.0,0.0,0.0,0.0,0.0,0.0,0.0,0.0,0.0,0.0,0.0,0.0,0.0,0.0,0.0,0.0,0.0,0.0,0.0,0.0,0.0,0.0,0.0,0.0,0.0,0.0,-2.5697,-2.5692,-2.5642,-2.564,-2.5705,-2.5698,-2.5696,0.0,0.0,0.0,0.0,0.0,0.0,0.0,0.0,0.0,0.0,0.0,0.0,0.0,0.0,0.0,0.0,0.0,0.0,0.0,0.0,0.0,0.0,0.0,0.0,0.0,0.0,0.0,0.0,0.0,0.0,0.0,0.0,0.0,0.0,0.0,0.0,0.0,0.0,0.0,0.0,0.0,0.0,0.0,0.0,0.0,0.0,0.0,0.0,-2.0188,0.0,0.0,0.0,0.0,0.0,0.0,0.0,0.0,0.0,0.0,0.0,0.0,0.0,0.0,0.0,0.0,0.0,0.0,0.0,0.0,0.0,0.0,0.0,0.0,0.0,0.0,0.0,0.0,0.0,0.0,0.0,0.0,0.0,0.0,0.0,0.0,0.0,0.0,0.0,0.0,0.0,0.0,0.0,0.0,0.0,0.0,0.0,0.0,0.0,0.0,0.0,0.0,0.0,0.0,0.0,0.0,0.0,0.0,0.0,-2.5705,-2.5701,-2.5645,-2.5622,-2.5645,-2.5676,-2.5702,0.0,0.0,0.0,0.0,0.0,0.0,0.0,0.0,0.0,0.0,0.0,0.0,0.0,0.0,0.0,0.0,0.0,0.0,0.0,0.0,0.0,0.0,0.0,0.0,0.0,0.0,0.0,0.0,0.0,0.0,0.0,0.0,0.0,0.0,0.0,0.0,0.0,0.0,0.0,0.0,0.0,0.0,0.0,0.0,0.0,0.0,0.0,0.0,0.0,0.0,0.0,0.0,0.0,0.0,0.0,0.0,0.0,0.0,0.0,0.0,0.0,0.0,0.0,0.0,0.0,0.0,0.0,0.0,0.0,0.0,0.0,0.0,0.0,0.0,0.0,0.0,0.0,0.0,0.0,0.0,0.0,0.0,0.0,0.0,0.0,0.0,0.0,0.0,0.0,0.0,0.0,0.0,0.0,0.0,0.0,0.0,0.0,0.0,0.0,0.0,0.0,0.0,0.0,0.0,0.0,0.0,0.0,-2.5701,-2.5697,-2.5675,-2.5637,-2.5605,-2.5605,-2.5667,-2.5704,-2.5677,0.0,0.0,0.0,0.0,0.0,0.0,0.0,0.0,0.0,0.0,0.0,0.0,0.0,0.0,0.0,0.0,0.0,0.0,0.0,0.0,0.0,0.0,0.0,0.0,0.0,0.0,0.0,0.0,0.0,0.0,0.0,0.0,0.0,0.0,0.0,0.0,0.0,0.0,-1.7955,-1.9539,0.0,0.0,0.0,0.0,0.0,0.0,0.0,0.0,-2.0498,0.0,0.0,0.0,0.0,0.0,0.0,0.0,0.0,0.0,0.0,0.0,0.0,0.0,0.0,0.0,0.0,0.0,0.0,0.0,0.0,0.0,0.0,0.0,0.0,0.0,0.0,0.0,0.0,0.0,0.0,0.0,0.0,0.0,0.0,0.0,0.0,0.0,0.0,0.0,0.0,0.0,0.0,0.0,0.0,0.0,0.0,0.0,0.0,0.0,0.0,0.0,0.0,0.0,0.0,0.0,0.0,-2.567,-2.5689,-2.5664,-2.5615,-2.5595,-2.5604,-2.5607,-2.5615,-2.565,-2.5664,0.0,0.0,0.0,0.0,0.0,0.0,0.0,0.0,0.0,0.0,0.0,0.0,0.0,0.0,0.0,0.0,0.0,0.0,0.0,0.0,0.0,0.0,0.0,0.0,0.0,0.0,0.0,0.0,0.0,0.0,0.0,0.0,0.0,0.0,0.0,0.0,0.0,0.0,0.0,-1.9909,-2.0515,0.0,0.0,0.0,0.0,0.0,0.0,0.0,0.0,-2.0515,0.0,0.0,0.0,0.0,0.0,0.0,0.0,0.0,0.0,0.0,0.0,0.0,0.0,0.0,0.0,0.0,0.0,0.0,0.0,0.0,0.0,0.0,0.0,0.0,0.0,0.0,0.0,0.0,0.0,0.0,0.0,0.0,0.0,0.0,0.0,0.0,0.0,0.0,0.0,0.0,0.0,0.0,0.0,0.0,0.0,0.0,0.0,0.0,0.0,0.0,0.0,0.0,0.0,0.0,0.0,-2.5601,-2.5675,-2.5626,-2.5595,-2.5599,-2.561,-2.561,-2.5603,-2.5615,0.0,0.0,0.0,0.0,0.0,0.0,0.0,0.0,0.0,0.0,0.0,0.0,0.0,0.0,0.0,0.0,0.0,0.0,0.0,0.0,0.0,0.0,0.0,0.0,0.0,0.0,0.0,0.0,0.0,0.0,0.0,0.0,0.0,0.0,0.0,0.0,0.0,0.0,0.0,0.0,-2.0012,-2.054,-2.0538,0.0,0.0,0.0,0.0,0.0,0.0,-2.0501,-2.05,0.0,0.0,0.0,0.0,0.0,0.0,0.0,0.0,0.0,0.0,0.0,0.0,0.0,0.0,0.0,0.0,0.0,0.0,0.0,0.0,0.0,0.0,0.0,0.0,0.0,0.0,0.0,0.0,0.0,0.0,0.0,0.0,0.0,0.0,0.0,0.0,0.0,0.0,0.0,0.0,0.0,0.0,0.0,0.0,0.0,0.0,0.0,0.0,0.0,0.0,0.0,0.0,0.0,0.0,0.0,-2.5632,-2.5642,-2.5612,-2.5601,-2.5607,-2.5601,-2.5601,-2.5415,-2.5407,0.0,0.0,0.0,0.0,0.0,0.0,0.0,0.0,0.0,0.0,0.0,0.0,0.0,0.0,0.0,0.0,0.0,0.0,0.0,0.0,0.0,0.0,0.0,0.0,0.0,0.0,0.0,0.0,0.0,0.0,0.0,0.0,0.0,0.0,0.0,0.0,0.0,0.0,0.0,0.0,0.0,-2.0606,-2.0605,-2.0543,0.0,0.0,0.0,0.0,-2.0504,-2.0504,0.0,0.0,0.0,0.0,0.0,0.0,0.0,0.0,0.0,0.0,0.0,0.0,0.0,0.0,0.0,0.0,0.0,0.0,0.0,0.0,0.0,0.0,0.0,0.0,0.0,0.0,0.0,0.0,0.0,0.0,0.0,0.0,0.0,0.0,0.0,0.0,0.0,0.0,0.0,0.0,0.0,0.0,0.0,0.0,0.0,0.0,0.0,0.0,0.0,0.0,0.0,0.0,0.0,0.0,0.0,0.0,-2.565,-2.5642,-2.5612,-2.5604,-2.5607,-2.5601,-2.5601,-2.4849,-2.4802,0.0,0.0,0.0,0.0,0.0,0.0,0.0,0.0,0.0,0.0,0.0,0.0,0.0,0.0,0.0,0.0,0.0,0.0,0.0,0.0,0.0,0.0,0.0,0.0,0.0,0.0,0.0,0.0,0.0,0.0,0.0,0.0,0.0,0.0,0.0,0.0,0.0,0.0,0.0,0.0,0.0,-2.0606,-2.0606,-2.0604,-2.0563,0.0,0.0,0.0,-2.0515,-2.051,0.0,0.0,0.0,0.0,0.0,0.0,0.0,0.0,0.0,0.0,0.0,0.0,0.0,0.0,0.0,0.0,0.0,0.0,0.0,0.0,0.0,0.0,0.0,0.0,0.0,0.0,0.0,0.0,0.0,0.0,0.0,0.0,0.0,0.0,0.0,0.0,0.0,0.0,0.0,0.0,0.0,0.0,0.0,0.0,0.0,0.0,0.0,0.0,0.0,0.0,0.0,0.0,0.0,0.0,0.0,-2.4796,-2.5609,-2.5619,-2.5609,-2.5601,-2.5612,-2.5373,-2.4868,-2.4488,-2.4479,0.0,0.0,0.0,0.0,0.0,0.0,0.0,0.0,0.0,0.0,0.0,0.0,0.0,0.0,0.0,0.0,0.0,0.0,0.0,0.0,0.0,0.0,0.0,0.0,0.0,0.0,0.0,0.0,0.0,0.0,0.0,0.0,0.0,0.0,0.0,0.0,0.0,0.0,0.0,0.0,0.0,0.0,-2.0594,-2.0594,0.0,0.0,0.0,-2.0548,-2.0504,0.0,0.0,0.0,0.0,0.0,0.0,0.0,0.0,0.0,0.0,0.0,0.0,0.0,0.0,0.0,0.0,0.0,0.0,0.0,0.0,0.0,0.0,0.0,0.0,0.0,0.0,0.0,0.0,0.0,0.0,0.0,0.0,0.0,0.0,0.0,0.0,0.0,0.0,0.0,0.0,0.0,0.0,0.0,0.0,0.0,0.0,0.0,0.0,0.0,0.0,0.0,0.0,0.0,0.0,0.0,0.0,0.0,-2.5583,-2.5612,-2.5604,-2.5573,-2.5573,-2.5182,-2.4325,-2.4105,0.0,0.0,0.0,0.0,0.0,0.0,0.0,0.0,0.0,0.0,0.0,0.0,0.0,0.0,0.0,0.0,0.0,0.0,0.0,0.0,0.0,0.0,0.0,0.0,0.0,0.0,0.0,-1.9608,0.0,0.0,0.0,0.0,0.0,0.0,0.0,0.0,0.0,0.0,0.0,0.0,0.0,0.0,-2.0533,-2.0598,-2.0599,-2.0599,0.0,0.0,-2.0575,-2.0532,-2.0526,-2.0517,0.0,0.0,0.0,0.0,0.0,0.0,0.0,0.0,0.0,0.0,0.0,0.0,0.0,0.0,0.0,0.0,0.0,0.0,0.0,0.0,0.0,0.0,0.0,0.0,0.0,0.0,0.0,0.0,0.0,0.0,0.0,0.0,0.0,0.0,0.0,0.0,0.0,0.0,0.0,0.0,0.0,0.0,0.0,0.0,0.0,0.0,0.0,0.0,0.0,0.0,0.0,0.0,0.0,0.0,0.0,-2.5612,-2.5599,-2.5567,-2.5518,-2.5515,-2.5127,-2.431,-2.3523,-2.3106,0.0,0.0,0.0,0.0,0.0,0.0,0.0,0.0,0.0,0.0,0.0,0.0,0.0,0.0,0.0,0.0,0.0,0.0,0.0,0.0,0.0,0.0,0.0,0.0,0.0,0.0,0.0,0.0,0.0,0.0,0.0,0.0,0.0,0.0,0.0,0.0,0.0,0.0,0.0,0.0,0.0,-2.0594,-2.0599,-2.0601,-2.0601,0.0,0.0,-2.0601,-2.0599,-2.0596,-2.0567,-2.0509,0.0,0.0,0.0,0.0,0.0,0.0,0.0,0.0,0.0,0.0,0.0,0.0,0.0,0.0,0.0,0.0,0.0,0.0,0.0,0.0,0.0,0.0,0.0,0.0,0.0,0.0,0.0,0.0,0.0,0.0,0.0,0.0,0.0,0.0,0.0,0.0,0.0,0.0,0.0,0.0,0.0,0.0,0.0,0.0,0.0,0.0,0.0,0.0,0.0,0.0,0.0,0.0,0.0,-2.5626,-2.5601,-2.5557,-2.552,-2.5495,-2.4981,-2.4304,-2.3456,-2.2633,-2.2197,0.0,0.0,0.0,0.0,0.0,0.0,0.0,0.0,0.0,0.0,0.0,0.0,0.0,0.0,0.0,0.0,0.0,0.0,0.0,0.0,0.0,0.0,0.0,0.0,0.0,0.0,0.0,0.0,-2.0602,-2.0601,-2.0598,0.0,0.0,0.0,0.0,0.0,0.0,0.0,0.0,0.0,0.0,-2.0599,-2.0603,-2.0604,0.0,0.0,-2.0603,-2.0601,-2.0601,-2.0595,-2.0566,-2.0515,-2.0503,0.0,0.0,0.0,0.0,0.0,0.0,0.0,0.0,0.0,0.0,0.0,0.0,0.0,0.0,0.0,0.0,0.0,0.0,0.0,0.0,0.0,0.0,0.0,0.0,0.0,0.0,0.0,0.0,0.0,0.0,0.0,0.0,0.0,0.0,0.0,0.0,0.0,0.0,0.0,0.0,0.0,0.0,0.0,0.0,0.0,0.0,0.0,0.0,0.0,0.0,0.0,0.0,-2.5593,-2.557,-2.5517,-2.5476,-2.5472,-2.4609,-2.3775,-2.2913,-2.211,-2.1555,0.0,0.0,0.0,0.0,0.0,0.0,0.0,0.0,0.0,0.0,0.0,0.0,0.0,0.0,0.0,0.0,0.0,0.0,0.0,0.0,0.0,0.0,0.0,0.0,0.0,0.0,0.0,0.0,-2.0992,-2.097,-2.1004,0.0,0.0,0.0,0.0,0.0,0.0,0.0,0.0,0.0,0.0,-2.0602,-2.0604,-2.0605,-2.0605,-2.0605,-2.0604,-2.0602,-2.0601,-2.0596,-2.0568,-2.0542,0.0,0.0,0.0,0.0,0.0,0.0,0.0,0.0,0.0,0.0,0.0,0.0,0.0,0.0,0.0,0.0,0.0,0.0,0.0,0.0,0.0,0.0,0.0,0.0,0.0,0.0,0.0,0.0,0.0,0.0,0.0,0.0,0.0,0.0,0.0,0.0,0.0,0.0,0.0,0.0,0.0,0.0,0.0,0.0,0.0,0.0,0.0,0.0,0.0,0.0,0.0,0.0,0.0,0.0,-2.5518,-2.5491,-2.5448,-2.5391,-2.4561,-2.3712,-2.2902,-2.2056,-2.1243,-2.0482,0.0,0.0,0.0,0.0,0.0,0.0,0.0,0.0,0.0,0.0,0.0,0.0,0.0,0.0,0.0,0.0,0.0,0.0,0.0,0.0,0.0,0.0,0.0,0.0,0.0,0.0,-2.1871,-2.1869,-2.1885,0.0,0.0,0.0,0.0,0.0,0.0,0.0,0.0,0.0,0.0,-2.0603,-2.0604,-2.0604,-2.0605,-2.0605,-2.0605,-2.0604,-2.0604,-2.06,-2.0599,-2.0596,0.0,0.0,0.0,0.0,0.0,0.0,0.0,0.0,0.0,0.0,0.0,0.0,0.0,0.0,0.0,0.0,0.0,0.0,0.0,0.0,0.0,0.0,0.0,0.0,0.0,0.0,0.0,0.0,-2.6552,0.0,0.0,0.0,0.0,0.0,0.0,0.0,0.0,0.0,0.0,0.0,-2.4863,-2.4891,0.0,0.0,0.0,0.0,0.0,0.0,0.0,0.0,0.0,0.0,0.0,0.0,-2.5498,-2.5434,-2.5391,-2.5365,-2.5313,-2.4486,-2.3621,-2.2793,-2.1955,-2.117,-2.0369,0.0,0.0,0.0,0.0,0.0,0.0,0.0,0.0,0.0,0.0,0.0,0.0,0.0,0.0,0.0,0.0,0.0,0.0,0.0,0.0,0.0,0.0,0.0,0.0,0.0,-2.2694,0.0,0.0,0.0,0.0,0.0,0.0,0.0,0.0,0.0,0.0,0.0,-2.0601,-2.0603,-2.0604,-2.0605,-2.0605,-2.0605,-2.0605,0.0,0.0,0.0,0.0,0.0,0.0,0.0,0.0,0.0,0.0,0.0,0.0,0.0,0.0,-2.0472,-2.0472,-2.0487,-2.0502,-2.0502,0.0,0.0,0.0,0.0,0.0,0.0,0.0,0.0,0.0,0.0,0.0,0.0,0.0,0.0,0.0,0.0,-2.7211,0.0,0.0,0.0,0.0,0.0,0.0,0.0,0.0,-2.5801,-2.5375,-2.5121,-2.5131,-2.5032,0.0,-2.4888,-2.5031,0.0,0.0,0.0,0.0,0.0,0.0,0.0,0.0,-2.5452,-2.54,-2.5332,-2.5302,-2.5238,-2.445,-2.3587,-2.2728,-2.163,-2.0811,-2.0288,-2.1108,-2.1874,0.0,0.0,0.0,0.0,0.0,0.0,0.0,0.0,0.0,0.0,0.0,0.0,0.0,0.0,0.0,0.0,0.0,0.0,0.0,0.0,0.0,0.0,0.0,-2.3554,0.0,0.0,0.0,0.0,0.0,0.0,0.0,0.0,0.0,-2.2495,-2.1579,-2.0936,-2.0625,-2.0605,-2.0605,-2.0605,0.0,0.0,0.0,0.0,0.0,0.0,0.0,-2.0592,-2.0609,-2.0606,-2.0561,-2.0504,-2.0511,-2.0501,-2.0499,0.0,0.0,-2.0508,-2.0502,-2.0513,-2.0511,-2.0502,-2.0485,-2.0418,-2.0394,-2.038,0.0,0.0,0.0,0.0,0.0,0.0,0.0,0.0,-2.8189,-2.7781,0.0,-2.7157,0.0,0.0,0.0,0.0,0.0,0.0,0.0,0.0,-2.6916,-2.6488,-2.5746,-2.5817,-2.5431,-2.4693,-2.4817,-2.4927,-2.505,-2.522,0.0,0.0,0.0,0.0,0.0,0.0,-2.5397,-2.5389,-2.5336,-2.5271,-2.5187,-2.4434,-2.361,-2.2695,-2.1128,-2.0244,-2.0226,-2.0985,-2.1494,-2.1606,-2.3199,0.0,0.0,0.0,0.0,0.0,0.0,0.0,0.0,0.0,0.0,0.0,0.0,0.0,0.0,0.0,0.0,0.0,0.0,0.0,0.0,-2.4434,0.0,0.0,0.0,0.0,0.0,0.0,0.0,0.0,0.0,0.0,-2.3261,-2.2401,-2.1601,-2.0762,0.0,0.0,0.0,0.0,-2.0604,-2.0601,-2.0599,-2.0598,-2.0594,-2.0594,-2.0594,-2.0594,0.0,0.0,-2.051,-2.0506,-2.0503,-2.05,-2.0518,-2.0513,-2.0511,-2.0509,-2.0504,-2.0513,-2.0508,-2.0495,-2.0404,-2.0391,-2.038,-2.983,0.0,0.0,0.0,0.0,-2.9089,-2.896,-2.8739,-2.8751,-2.8655,-2.8476,-2.8561,0.0,0.0,0.0,0.0,0.0,0.0,-2.7761,-2.7656,-2.7049,-2.6631,-2.6409,-2.6477,-2.6414,-2.6219,-2.5781,-2.5632,-2.5688,-2.5302,-2.513,-2.5239,0.0,0.0,0.0,0.0,-2.5307,-2.5261,-2.5248,-2.5189,-2.5111,-2.4901,-2.4085,-2.2665,-2.1618,-2.0785,-2.0233,-2.0438,-2.089,-2.1508,-2.2057,0.0,0.0,0.0,0.0,0.0,0.0,0.0,0.0,0.0,0.0,0.0,0.0,0.0,0.0,0.0,0.0,0.0,0.0,0.0,-2.5305,-2.5344,-2.5345,0.0,0.0,0.0,0.0,0.0,0.0,0.0,0.0,0.0,-2.4121,-2.2773,-2.1816,0.0,0.0,-2.0605,-2.0605,-2.0604,-2.0602,-2.0601,0.0,0.0,0.0,-2.0598,-2.0599,-2.0598,-2.0592,-2.0583,-2.0516,-2.051,-2.0504,-2.05,-2.0498,-2.0516,-2.0511,-2.0503,-2.0515,-2.0504,-2.0508,-2.0488,-2.0421,-2.0385,-2.0385,-3.058,-2.9559,-2.9726,-2.9807,-2.9788,-2.9788,-2.9606,-2.9326,-2.9351,-2.9216,-2.8952,-2.9044,-2.9071,-2.9068,-2.9225,0.0,0.0,0.0,-2.8432,-2.837,-2.7805,-2.7376,-2.7114,-2.7159,-2.7075,-2.684,-2.6479,-2.6352,-2.6478,-2.6057,-2.5944,-2.6047,0.0,0.0,-2.5208,-2.5215,-2.5206,-2.5172,-2.5162,-2.5151,-2.5088,-2.4764,-2.4091,-2.3116,-2.2277,-2.1448,-2.068,-2.0647,-2.0733,-2.0936,-2.1325,-2.1767,0.0,0.0,0.0,0.0,0.0,0.0,0.0,0.0,0.0,0.0,0.0,-2.4128,0.0,0.0,0.0,0.0,-2.5402,-2.5691,-2.5702,-2.5703,0.0,0.0,0.0,0.0,0.0,0.0,0.0,-2.57,-2.5701,-2.5506,-2.4959,-2.373,-2.2773,-2.2461,-2.168,-2.1113,-2.1113,0.0,-2.0602,-2.0601,-2.0601,-2.0601,-2.06,-2.0601,-2.0601,-2.06,-2.0594,-2.0587,-2.0519,-2.0512,-2.0509,-2.0501,-2.0498,-2.0498,-2.0498,-2.0515,-2.0505,-2.0511,-2.0515,-2.0475,-2.0402,-2.0385,-2.0365,-3.1494,-3.0882,-3.108,-3.1074,-3.098,-3.098,-3.0564,-2.989,-2.9937,-2.9559,-2.8899,-2.9004,-2.9076,-2.9088,-2.9131,0.0,0.0,-2.9058,-2.8994,-2.8982,-2.8864,-2.8439,-2.7803,-2.786,-2.7566,-2.6994,-2.6997,-2.7084,-2.7264,-2.7196,-2.7282,-2.7346,-2.5987,-2.5278,-2.5302,-2.531,-2.5253,-2.519,-2.5203,-2.5171,-2.5076,-2.4315,-2.3883,-2.3788,-2.3034,-2.223,-2.1453,-2.1339,-2.0941,-2.0275,-2.0905,-2.1349,-2.1532,0.0,0.0,0.0,0.0,0.0,0.0,0.0,0.0,0.0,0.0,0.0,0.0,0.0,0.0,0.0,-2.5699,0.0,-2.5705,-2.5692,0.0,0.0,0.0,-2.5705,-2.5705,-2.569,-2.5692,-2.5693,0.0,0.0,0.0,0.0,-2.4238,-2.3496,-2.2539,-2.1914,-2.1913,-2.1132,-2.0604,-2.0602,-2.0602,-2.0602,-2.0602,-2.0602,-2.0601,-2.06,-2.0596,-2.057,-2.0521,-2.0517,-2.0512,-2.0503,-2.0498,-2.0498,-2.0498,-2.0498,-2.0513,-2.0511,-2.0504,-2.0472,-2.0407,-2.0391,-2.0377,-3.2541,-3.2396,-3.2424,-3.1835,-3.0876,-3.084,-3.075,-3.057,-3.0598,-3.049,-3.0305,-3.0446,-3.0561,-3.0609,-3.0057,-2.9808,-2.9783,-2.915,-2.8864,-2.8852,-2.881,-2.8706,-2.8548,-2.8589,-2.8579,-2.8437,-2.798,-2.7777,-2.7866,-2.7426,-2.7221,-2.7236,-2.6929,-2.6839,-2.6932,-2.6979,-2.6674,-2.6026,-2.602,-2.5709,-2.5044,-2.4873,-2.4473,-2.3826,-2.3592,-2.3091,-2.223,-2.1619,-2.1211,-2.1012,-2.0632,-2.0723,-2.1398,-2.2493,0.0,0.0,0.0,0.0,0.0,0.0,0.0,0.0,0.0,-2.5644,-2.5632,0.0,-2.5634,0.0,-2.5627,-2.5617,-2.5628,-2.5634,0.0,0.0,-2.5675,-2.5702,-2.5702,-2.569,-2.5698,-2.5703,-2.5705,-2.5689,-2.5695,-2.5521,-2.5328,-2.5077,-2.3242,-2.1914,-2.1875,-2.1171,-2.0604,-2.0604,-2.0604,-2.0604,-2.0604,-2.0603,-2.0601,-2.0601,-2.0597,-2.059,-2.052,-2.0517,-2.0514,-2.0501,-2.0498,-2.0498,-2.0498,-2.0498,-2.0511,-2.0511,-2.0502,-2.0482,-2.0421,-2.0385,-2.0387,-3.3336,-3.3317,-3.3027,-3.2447,-3.1754,-3.1736,-3.1539,-3.1216,-3.1231,-3.1066,-3.0758,-3.0896,-3.1003,-3.1088,-3.0678,-3.049,-3.0454,-3.0023,-2.9822,-2.9822,-2.9779,-2.9597,-2.9307,-2.9363,-2.9253,-2.8987,-2.8651,-2.8529,-2.8625,-2.8305,-2.8166,-2.8212,-2.832,-2.8407,-2.8445,-2.7809,-2.7244,-2.6748,-2.6392,-2.5799,-2.503,-2.5031,-2.4828,-2.4354,-2.4335,-2.391,-2.305,-2.2606,-2.2213,-2.185,-2.1418,-2.1382,-2.189,-2.279,-2.3501,0.0,0.0,0.0,0.0,0.0,0.0,0.0,0.0,0.0,0.0,0.0,-2.56,0.0,-2.5602,0.0,-2.561,-2.5615,-2.5598,-2.56,-2.5628,-2.5656,-2.566,-2.5671,-2.5701,-2.5687,-2.5696,-2.5702,-2.5687,-2.5692,-2.5696,-2.5681,-2.414,-2.2871,-2.2422,-2.1719,-2.1054,-2.0683,-2.0605,-2.0605,-2.0605,-2.0604,-2.0601,-2.0601,-2.0598,-2.059,-2.052,-2.0517,-2.0514,-2.0503,-2.0498,-2.0498,-2.0498,-2.0498,-2.0513,-2.0499,-2.0506,-2.0485,-2.0404,-2.0385,-2.0371,-3.4036,-3.3999,-3.3299,-3.3027,-3.3043,-3.2953,-3.2507,-3.1865,-3.1911,-3.1583,-3.1004,-3.1146,-3.1241,-3.1306,-3.1257,-3.1247,-3.1216,-3.112,-3.1084,-3.1084,-3.103,-3.0663,-3.0031,-3.0121,-2.9832,-2.9282,-2.9265,-2.9285,-2.94,-2.9339,-2.9345,-2.9464,-2.9598,-2.9683,-2.9617,-2.8271,-2.7541,-2.7452,-2.6567,-2.5792,-2.5172,-2.5028,-2.4971,-2.4971,-2.4971,-2.4623,-2.3884,-2.3733,-2.3367,-2.2671,-2.2544,-2.2537,-2.2669,-2.3448,-2.3938,0.0,-2.4904,0.0,0.0,0.0,0.0,0.0,0.0,0.0,0.0,-2.5615,-2.5604,-2.5598,-2.5603,-2.5603,-2.5603,-2.5603,-2.5603,-2.5603,-2.5605,-2.561,-2.56,-2.565,-2.5701,-2.5691,-2.5689,-2.5698,-2.5699,-2.5688,-2.5695,-2.5641,-2.5037,-2.4199,-2.3379,-2.2441,-2.1543,-2.0742,-2.0605,-2.0605,-2.0605,-2.0604,-2.0602,-2.0601,-2.0598,-2.0572,-2.054,-2.0499,-2.0515,-2.0504,-2.05,-2.05,-2.05,-2.05,-2.0516,-2.0508,-2.0517,-2.0478,-2.0415,-2.0396,-2.0383,-3.4765,-3.4799,-3.4052,-3.3781,-3.383,-3.3186,-3.2811,-3.2686,-3.2684,-3.2657,-3.2639,-3.2685,-3.2793,-3.2886,-3.2266,-3.1976,-3.1972,-3.132,-3.1012,-3.1012,-3.0998,-3.0944,-3.0812,-3.0848,-3.0815,-3.0672,-3.021,-3.0007,-3.0023,-2.9542,-2.9314,-2.9334,-2.9454,-2.955,0.0,0.0,0.0,0.0,-2.6865,-2.605,-2.5887,-2.52,-2.4842,-2.4842,-2.4823,0.0,-2.4577,-2.3961,-2.3553,-2.3371,-2.2767,0.0,0.0,0.0,0.0,0.0,0.0,0.0,0.0,0.0,0.0,0.0,-2.543,-2.5456,-2.5525,-2.558,-2.5609,-2.5615,-2.5604,-2.561,-2.561,-2.561,-2.561,-2.561,-2.5601,-2.5607,-2.5609,-2.5612,-2.5632,-2.5701,-2.5701,-2.5693,-2.5698,-2.5705,-2.5693,-2.568,-2.5563,-2.5116,-2.4258,-2.2871,-2.1621,-2.0781,-2.0605,-2.0605,-2.0605,-2.0605,-2.0603,-2.0602,-2.06,-2.0595,-2.0566,-2.0521,-2.0515,-2.0506,-2.0504,-2.0504,-2.0506,-2.0504,-2.0503,-2.0516,-2.0508,-2.0509,-2.049,-2.0448,-2.0388,-3.5472,0.0,-3.4782,-3.4532,0.0,-3.3813,-3.3507,-3.3473,-3.3078,-3.2963,-3.3057,-3.3086,-3.3196,-3.3334,-3.2962,-3.2777,-3.2777,-3.2361,-3.218,-3.218,-3.218,-3.1981,-3.1596,-3.1656,-3.1479,-3.1079,-3.0823,-3.0723,-3.0748,-3.01,-2.9773,-2.9857,-2.9547,-2.9394,-2.9404,-2.9511,-2.9205,-2.8548,-2.7719,-2.6916,-2.6129,-2.5669,-2.5235,-2.4832,0.0,0.0,0.0,0.0,0.0,0.0,0.0,0.0,0.0,0.0,0.0,-2.5057,-2.5166,-2.5209,-2.5247,-2.5303,-2.537,-2.5387,-2.5389,-2.5426,-2.5513,-2.5534,-2.557,-2.5599,-2.5605,-2.5612,-2.5598,-2.5601,-2.5601,-2.5601,-2.5607,-2.5613,-2.5601,-2.5605,-2.56,-2.5652,-2.5671,-2.5704,-2.5694,-2.5699,-2.5687,-2.5696,-2.5699,-2.5388,-2.4511,-2.334,-2.2109,-2.0859,-2.0605,-2.0605,-2.0605,-2.0605,-2.0604,-2.0602,-2.0601,-2.0596,-2.0607,-2.0564,-2.054,-2.0512,-2.0511,-2.0512,-2.0512,-2.0512,-2.051,-2.0504,-2.0516,-2.0505,-2.0513,-2.0468,-2.0421,-3.6171,-3.6121,-3.5527,-3.5279,-3.5243,-3.4582,-3.4206,-3.4044,0.0,0.0,0.0,-3.307,-3.3183,-3.3292,-3.3367,-3.3393,-3.3393,-3.3393,-3.3393,-3.3393,-3.3393,-3.3049,-3.2415,-3.2458,-3.2141,-3.152,-3.1424,-3.1443,-3.1497,-3.0778,-3.0374,-3.0326,-2.9761,-2.9421,-2.9304,-2.9423,-2.9195,-2.8714,-2.8563,-2.778,-2.6351,-2.6162,-2.5672,-2.4798,-2.4779,-2.4772,-2.4772,-2.4772,-2.4772,-2.4779,-2.4779,-2.4805,-2.4805,-2.4903,-2.499,-2.501,-2.5095,-2.5174,-2.5201,-2.5252,-2.5332,-2.5394,-2.5395,-2.5437,-2.5511,-2.5517,-2.5515,-2.5567,-2.5593,-2.5602,-2.5615,-2.5601,-2.5601,-2.5601,-2.5601,-2.5604,-2.5596,-2.5615,-2.5608,-2.5602,-2.566,-2.5696,-2.5689,-2.5696,-2.5703,-2.5692,-2.5697,-2.5388,-2.451,-2.3496,-2.2344,-2.1191,-2.0781,-2.0605,-2.0605,-2.0605,-2.0604,-2.0603,-2.0601,-2.0598,-2.0591,-2.0607,-2.0584,-2.0539,-2.052,-2.0519,-2.0519,-2.0519,-2.0517,-2.0511,-2.0506,-2.0515,-2.0517,-2.0513,-2.0483,-3.689,-3.6897,-3.6175,-3.5968,-3.6079,-3.5296,-3.4636,-3.4044,-3.3257,-3.2932,-3.2995,-3.3055,-3.3165,-3.3292,-3.3382,-3.3393,-3.3393,-3.3393,-3.3393,0.0,-3.3393,-3.3339,-3.323,-3.323,-3.319,-3.3027,-3.245,-3.2147,-3.2101,-3.1493,-3.0864,-3.0295,-3.0182,-2.9873,-2.9357,-2.9314,-2.9348,-2.9344,-2.8746,-2.7967,-2.7071,-2.6384,-2.5614,-2.476,-2.4715,-2.4715,-2.4715,-2.4715,-2.4723,-2.4715,-2.4772,-2.4806,-2.4813,-2.4813,-2.4882,-2.4977,-2.5023,-2.507,-2.5185,-2.5206,-2.5257,-2.5389,-2.5395,-2.5429,-2.5511,-2.5511,-2.5503,-2.5526,-2.5557,-2.5599,-2.5602,-2.5612,-2.5601,-2.5601,-2.5601,-2.5601,-2.5604,-2.5599,-2.5612,-2.561,-2.565,-2.5691,-2.5705,-2.5694,-2.5703,-2.5691,-2.5694,-2.5384,-2.4489,-2.3066,-2.2109,-2.168,-2.1055,-2.0664,-2.0605,-2.0605,-2.0605,-2.0604,-2.0603,-2.0601,-2.0598,-2.0592,-2.0606,-2.0585,-2.0585,-2.0585,-2.0585,-2.0584,-2.0584,-2.0582,-2.0533,-2.0503,-2.0513,-2.0515,-2.0489,-3.7027,-3.7013,-3.6736,-3.6672,-3.6695,-3.6043,-3.5349,-3.4687,-3.4311,-3.3684,-3.2983,-3.3026,-3.3104,-3.3214,-3.3307,-3.3367,-3.3393,-3.3393,-3.3393,-3.3393,-3.3393,-3.3393,-3.3393,-3.3367,-3.3349,-3.3375,-3.3034,-3.2864,-3.2877,-3.2206,-3.1672,-3.1349,-3.0644,-2.9899,-2.9229,-2.9235,-2.9307,-2.938,-2.9137,-2.8606,-2.781,-2.6995,-2.619,-2.5329,-2.488,-2.4637,-2.4637,-2.4637,-2.4671,-2.4695,-2.4729,-2.4745,-2.473,-2.4787,-2.4832,-2.4889,-2.4957,-2.5031,-2.5126,-2.517,-2.5228,-2.5346,-2.5384,-2.5419,-2.5448,-2.5492,-2.5507,-2.5515,-2.5536,-2.5557,-2.5596,-2.5602,-2.5612,-2.5598,-2.5601,-2.5601,-2.5604,-2.5613,-2.5604,-2.5595,-2.5617,-2.5658,-2.5692,-2.5707,-2.5697,-2.5706,-2.5691,-2.5519,-2.5113,-2.408,-2.2909,-2.209,-2.1562,-2.1133,-2.0703,-2.0605,-2.0605,-2.0605,-2.0604,-2.0603,-2.0601,-2.0596,-2.0594,-2.059,-2.059,-2.059,-2.061,-2.059,-2.0609,-2.0604,-2.0539,-2.051,-2.05,-2.0498,-2.047,-3.6989,-3.6989,-3.705,-3.7089,-3.7075,-3.6697,-3.6114,-3.5472,-3.5454,-3.4704,-3.3507,-3.3321,-3.3295,-3.3355,-3.3288,-3.3307,-3.3382,-3.3364,-3.3382,-3.3382,-3.3382,-3.3349,-3.3352,-3.3292,-3.3274,-3.3319,-3.3292,-3.3304,-3.3332,-3.282,-3.2464,-3.2252,-3.1057,-3.0051,-2.9338,-2.9377,-2.9359,-2.9269,-2.9341,-2.905,-2.8306,-2.7671,-2.6877,-2.5823,-2.5215,-2.4804,-2.4626,-2.4599,-2.4623,-2.4666,-2.4674,-2.469,-2.4684,-2.4742,-2.4772,-2.4805,-2.4896,-2.4998,-2.5089,-2.5159,-2.5228,-2.5293,-2.5375,-2.5393,-2.5404,-2.5448,-2.5492,-2.5507,-2.5515,-2.5533,-2.556,-2.5593,-2.5602,-2.5615,-2.5598,-2.5601,-2.5601,-2.561,-2.5596,-2.5601,-2.5603,-2.5622,-2.5677,-2.5694,-2.5687,-2.5699,-2.5706,-2.5693,-2.5619,-2.5093,-2.4098,-2.2908,-2.2187,-2.1543,-2.0781,-2.0605,-2.0605,-2.0605,-2.0605,-2.0604,-2.0602,-2.0601,-2.0598,-2.0595,-2.0594,-2.0593,-2.0594,-2.0594,-2.0592,-2.0589,-2.0543,-2.0514,-2.0518,-2.0515,-2.0465,-3.6989,-3.6989,-3.7007,-3.7048,-3.711,-3.721,-3.6842,-3.6257,-3.6274,-3.581,-3.4989,-3.4341,-3.4105,-3.4012,-3.3447,-3.3234,-3.3346,-3.3307,-3.3307,-3.331,-3.3307,-3.3229,-3.315,-3.3135,-3.3117,-3.315,-3.3117,-3.3132,-3.3162,-3.3169,-3.2893,-3.2282,-3.15,-3.0726,-3.0094,-2.9997,-2.9721,-2.9137,-2.9123,-2.8825,-2.8248,-2.8203,-2.7428,-2.5841,-2.5738,-2.5346,-2.4673,-2.4599,-2.4607,-2.4596,-2.4615,-2.465,-2.4682,-2.4717,-2.4756,-2.478,-2.4805,-2.4905,-2.5088,-2.5172,-2.522,-2.5292,-2.5361,-2.5398,-2.5388,-2.54,-2.5433,-2.5488,-2.5507,-2.5518,-2.5526,-2.5554,-2.5596,-2.5602,-2.5612,-2.5601,-2.5601,-2.5601,-2.5607,-2.5601,-2.5607,-2.562,-2.5669,-2.5701,-2.5696,-2.5697,-2.5699,-2.5704,-2.5688,-2.5575,-2.5108,-2.4093,-2.2983,-2.1715,-2.0915,-2.0602,-2.0604,-2.0605,-2.0605,-2.0605,-2.0604,-2.0602,-2.0599,-2.0598,-2.0596,-2.0594,-2.0594,-2.0594,-2.0594,-2.0591,-2.0545,-2.0512,-2.0511,-2.0515,-2.0476,-3.6911,-3.6989,-3.6989,-3.7048,-3.7108,-3.7167,-3.7102,-3.6911,-3.6968,-3.679,-3.6435,-3.5792,-3.5306,-3.4873,-3.41,-3.3788,-3.3864,-3.3381,-3.3198,-3.318,-3.3198,-3.315,-3.3101,-3.3073,-3.3057,-3.3086,-3.3073,-3.3039,-3.3101,-3.315,-3.2847,-3.2227,-3.191,-3.1433,-3.0722,-3.0263,-2.9905,-2.9624,-2.9202,-2.8879,-2.8669,-2.831,-2.7796,-2.7092,-2.6182,-2.5568,-2.5231,-2.4811,-2.4549,-2.4547,-2.4528,-2.4572,-2.465,-2.4674,-2.4714,-2.4749,-2.4853,-2.4945,-2.5037,-2.5144,-2.5206,-2.5245,-2.5297,-2.5341,-2.5394,-2.5397,-2.5395,-2.5429,-2.5488,-2.5503,-2.5515,-2.5513,-2.5554,-2.5593,-2.5605,-2.5609,-2.5601,-2.5601,-2.5604,-2.5607,-2.5596,-2.5607,-2.5627,-2.5667,-2.5689,-2.5689,-2.5694,-2.5694,-2.5698,-2.5703,-2.5315,-2.4553,-2.3756,-2.2843,-2.1655,-2.0895,-2.07,-2.0603,-2.0604,-2.0605,-2.0605,-2.0604,-2.0602,-2.06,-2.0598,-2.0596,-2.0594,-2.0594,-2.0594,-2.0572,-2.0546,-2.0512,-2.0515,-2.0505,-2.0332,-3.6849,-3.6948,-3.697,-3.7029,-3.7069,-3.7108,-3.7147,-3.7241,-3.7336,-3.7373,-3.732,-3.6861,-3.6381,-3.5828,-3.4914,-3.4515,-3.4507,-3.3986,-3.3735,-3.3735,-3.3735,-3.3611,-3.34,-3.3317,-3.321,-3.306,-3.2995,-3.3011,-3.3055,-3.3088,-3.2847,-3.2436,-3.2404,-3.2083,-3.1365,-3.0793,-3.0355,-2.9926,-2.9405,-2.9101,-2.8892,-2.8459,-2.8135,-2.7927,-2.6901,-2.618,-2.5987,-2.543,-2.5141,-2.5148,-2.5175,-2.5081,-2.4937,-2.4989,-2.4917,-2.4726,-2.4846,-2.4957,-2.4984,-2.5101,-2.516,-2.5201,-2.5255,-2.5326,-2.5366,-2.5389,-2.5393,-2.54,-2.5448,-2.5472,-2.5507,-2.5515,-2.5533,-2.5557,-2.5586,-2.5577,-2.5609,-2.5615,-2.5598,-2.5601,-2.561,-2.5599,-2.5607,-2.5651,-2.5679,-2.5696,-2.5701,-2.5705,-2.5689,-2.5675,-2.5463,-2.4857,-2.4566,-2.3792,-2.2473,-2.1575,-2.1049,-2.0874,-2.0876,-2.0604,-2.0605,-2.0605,-2.0604,-2.0603,-2.0601,-2.0599,-2.0596,-2.0595,-2.0593,-2.061,-2.0565,-2.0516,-2.0503,-2.0515,-1.9997,-3.6763,-3.6829,-3.6948,-3.7007,-3.6989,-3.7069,-3.7108,-3.7127,-3.7241,-3.7314,-3.7297,-3.7245,-3.7227,-3.7051,-3.5794,-3.5237,-3.5304,-3.5232,-3.5142,-3.5142,-3.5178,-3.4823,-3.4079,-3.4044,-3.3685,-3.3164,-3.3059,-3.3003,-3.3013,-3.3013,-3.3042,-3.3029,-3.2991,-3.2667,-3.2049,-3.1921,-3.1241,-3.0012,-2.98,-2.9495,-2.8889,-2.8755,-2.8489,-2.8072,-2.7901,-2.7434,-2.6847,-2.6699,-2.6682,-2.6758,-2.6684,-2.6433,-2.5845,-2.5742,-2.5402,-2.4861,-2.4783,-2.4865,-2.4964,-2.5006,-2.5056,-2.5166,-2.5258,-2.5306,-2.5316,-2.5361,-2.5394,-2.5398,-2.5415,-2.5429,-2.5488,-2.5503,-2.5515,-2.5506,-2.5524,-2.5541,-2.5599,-2.5602,-2.5605,-2.5595,-2.5601,-2.5607,-2.5599,-2.5598,-2.5639,-2.5675,-2.5701,-2.5687,-2.5702,-2.5689,-2.563,-2.5456,-2.4929,-2.4093,-2.3207,-2.237,-2.1923,-2.1612,-2.1127,-2.0641,-2.0604,-2.0605,-2.0605,-2.0604,-2.0602,-2.0601,-2.0599,-2.0596,-2.0592,-2.0609,-2.0607,-2.056,-2.0532,-2.0504,-2.0008,-3.6626,-3.6745,-3.6829,-3.6869,-3.6871,-3.6989,-3.7029,-3.7048,-3.7145,-3.7166,-3.7184,-3.7259,-3.7297,-3.7279,-3.6768,-3.6345,-3.5954,-3.5454,-3.5239,-3.5256,-3.5256,-3.5113,-3.4847,-3.4794,-3.4704,-3.4347,-3.3883,-3.34,-3.2967,-3.2932,-3.2963,-3.3008,-3.3026,-3.2896,-3.2652,-3.225,-3.1488,-3.0508,-2.9976,-2.9357,-2.8741,-2.8675,-2.8603,-2.8496,-2.811,-2.7782,-2.7582,-2.7086,-2.6801,-2.6839,-2.6887,-2.6786,-2.6488,-2.6051,-2.5685,-2.5406,-2.4992,-2.4764,-2.4805,-2.4931,-2.5018,-2.5051,-2.518,-2.5223,-2.5245,-2.5292,-2.5332,-2.5327,-2.5379,-2.541,-2.5436,-2.548,-2.5523,-2.5518,-2.5506,-2.552,-2.5538,-2.557,-2.5602,-2.5609,-2.5615,-2.5607,-2.5596,-2.5607,-2.562,-2.5637,-2.5641,-2.5648,-2.564,-2.5687,-2.5692,-2.566,-2.545,-2.5125,-2.4894,-2.3515,-2.2561,-2.2038,-2.1553,-2.1107,-2.0914,-2.0663,-2.0605,-2.0605,-2.0604,-2.0602,-2.0601,-2.0597,-2.0593,-2.0591,-2.0609,-2.0586,-2.0561,-2.0553,-1.9959,-3.6544,-3.6643,-3.6745,-3.6768,-3.6791,-3.6908,-3.6968,-3.6989,-3.7031,-3.7069,-3.7069,-3.7145,-3.7201,-3.7201,-3.7201,-3.6993,-3.6538,-3.6024,-3.583,-3.5883,-3.5865,-3.5723,-3.5527,-3.5492,-3.5349,-3.5011,-3.4353,-3.3695,-3.3213,-3.2961,-3.2902,-3.2934,-3.2965,-3.2979,-3.2934,-3.257,-3.1939,-3.1117,-3.0374,-2.967,-2.9011,-2.8662,-2.8618,-2.8639,-2.8299,-2.8141,-2.8298,-2.7819,-2.7565,-2.7586,-2.7646,-2.7556,-2.7241,-2.66,-2.6059,-2.5777,-2.5332,-2.4939,-2.4753,-2.4865,-2.4957,-2.4992,-2.5082,-2.5149,-2.5195,-2.5239,-2.5276,-2.5312,-2.5341,-2.537,-2.5397,-2.5451,-2.5456,-2.5476,-2.5484,-2.5518,-2.5517,-2.5534,-2.558,-2.5551,-2.556,-2.557,-2.5579,-2.5579,-2.559,-2.5609,-2.5612,-2.56,-2.5598,-2.5626,-2.5673,-2.5662,-2.5652,-2.558,-2.5429,-2.4556,-2.3741,-2.3199,-2.1976,-2.1512,-2.1125,-2.0836,-2.0604,-2.0605,-2.0605,-2.0604,-2.0601,-2.0598,-2.0596,-2.0594,-2.0592,-2.0589,-2.0585,-2.0579,-2.0007,-3.6485,-3.6523,-3.6643,-3.6725,-3.6768,-3.6809,-3.6871,-3.697,-3.7007,-3.7007,-3.7009,-3.7009,-3.7009,-3.7027,-3.7046,-3.7013,-3.7022,-3.6992,-3.7049,-3.7085,-3.7121,-3.6748,-3.6146,-3.6147,-3.5739,-3.5049,-3.4252,-3.3898,-3.3791,-3.3237,-3.2913,-3.2859,-3.2904,-3.29,-3.29,-3.2856,-3.2547,-3.1742,-3.1048,-3.0356,-2.9597,-2.8874,-2.8562,-2.8605,-2.854,-2.8646,-2.8909,-2.8934,-2.892,-2.9041,-2.9114,-2.8889,-2.8113,-2.74,-2.6674,-2.6097,-2.5861,-2.5481,-2.4928,-2.4971,-2.5148,-2.5234,-2.5132,-2.5292,-2.5328,-2.5323,-2.533,-2.5276,-2.5288,-2.5317,-2.5389,-2.5393,-2.54,-2.5401,-2.5437,-2.5492,-2.5507,-2.5518,-2.551,-2.5511,-2.5518,-2.5515,-2.5515,-2.5522,-2.5535,-2.5576,-2.5582,-2.5593,-2.5598,-2.5605,-2.5612,-2.5604,-2.5632,-2.5642,-2.5668,-2.5614,-2.5074,-2.4397,-2.2884,-2.1855,-2.147,-2.1124,-2.0679,-2.0604,-2.0605,-2.0605,-2.0602,-2.0599,-2.0597,-2.0596,-2.0594,-2.0592,-2.0589,-2.0526,-2.025,-3.636,-3.6381,-3.6502,-3.6564,-3.6606,-3.6684,-3.6786,-3.6869,-3.6851,-3.6928,-3.697,-3.6989,-3.6989,-3.6989,-3.6989,-3.7009,-3.7029,-3.7085,-3.7163,-3.7278,-3.7297,-3.7173,-3.6941,-3.6906,-3.6499,-3.5809,-3.5508,-3.5084,-3.45,-3.3827,-3.3472,-3.3418,-3.3022,-3.2839,-3.282,-3.2866,-3.2539,-3.1824,-3.1535,-3.0829,-2.9653,-2.9277,-2.8941,-2.8513,-2.8549,-2.865,-2.8724,-2.8905,-2.9062,-2.9123,-2.9189,-2.9111,-2.8773,-2.81,-2.7592,-2.7323,-2.687,-2.6571,-2.6354,-2.6355,-2.6411,-2.6486,-2.6556,-2.6363,-2.5975,-2.5971,-2.5784,-2.5365,-2.5245,-2.5268,-2.5312,-2.5317,-2.5351,-2.5395,-2.5408,-2.5459,-2.5534,-2.5557,-2.5506,-2.5508,-2.5515,-2.5515,-2.5515,-2.5495,-2.5515,-2.5525,-2.5531,-2.5544,-2.5587,-2.5599,-2.5609,-2.5608,-2.5598,-2.5604,-2.5632,-2.566,-2.5432,-2.4776,-2.3518,-2.2355,-2.1912,-2.1176,-2.0772,-2.0601,-2.0605,-2.0605,-2.0604,-2.0601,-2.0599,-2.0598,-2.0596,-2.0594,-2.0592,-2.0454,-2.0256,-3.6284,-3.6301,-3.6402,-3.6444,-3.6502,-3.6602,-3.6684,-3.6748,-3.6766,-3.6826,-3.6869,-3.6906,-3.6906,-3.6886,-3.6906,-3.6908,-3.6911,-3.6948,-3.7009,-3.7163,-3.7182,-3.7182,-3.7182,-3.7182,-3.697,-3.6457,-3.614,-3.5734,-3.5223,-3.4517,-3.404,-3.3705,-3.3348,-3.299,-3.2776,-3.2753,-3.2485,-3.2058,-3.1769,-3.1227,-3.0362,-2.9762,-2.9249,-2.8838,-2.8607,-2.8541,-2.8618,-2.8761,-2.8905,-2.901,-2.9112,-2.9167,-2.9163,-2.8722,-2.8318,-2.795,-2.7639,-2.727,-2.7075,-2.6989,-2.7161,-2.7213,-2.7277,-2.7157,-2.6748,-2.6742,-2.6415,-2.578,-2.5656,-2.5548,-2.5313,-2.5262,-2.5394,-2.5789,-2.5542,-2.5584,-2.5799,-2.6202,-2.6218,-2.6138,-2.5998,-2.5789,-2.5541,-2.549,-2.5513,-2.552,-2.552,-2.5511,-2.5557,-2.557,-2.559,-2.5607,-2.5598,-2.5608,-2.5598,-2.5626,-2.5671,-2.496,-2.4055,-2.3125,-2.245,-2.1305,-2.0551,-2.0598,-2.0603,-2.0605,-2.0605,-2.0604,-2.0602,-2.06,-2.0598,-2.0598,-2.0596,-2.0595,-2.0456,-3.6422,-3.637,-3.637,-3.645,-3.6482,-3.6502,-3.6564,-3.6664,-3.6702,-3.6684,-3.6722,-3.6742,-3.6722,-3.674,-3.6742,-3.6766,-3.6771,-3.6809,-3.6869,-3.6968,-3.6987,-3.7007,-3.7009,-3.7046,-3.6976,-3.6833,-3.6287,-3.5952,-3.5867,-3.5184,-3.4481,-3.3917,-3.374,-3.3368,-3.2747,-3.2588,-3.2587,-3.2444,-3.1978,-3.1671,-3.1404,-3.0327,-2.949,-2.9414,-2.8801,-2.8488,-2.8523,-2.86,-2.8712,-2.8881,-2.901,-2.9089,-2.9156,-2.9178,-2.8764,-2.8186,-2.8077,-2.7815,-2.7335,-2.741,-2.741,-2.7555,-2.759,-2.733,-2.7455,-2.7415,-2.7172,-2.6464,-2.6416,-2.618,-2.5648,-2.5524,-2.5866,-2.6348,-2.6145,-2.6125,-2.6698,-2.7369,-2.7306,-2.6886,-2.6702,-2.6421,-2.5657,-2.5576,-2.5496,-2.5484,-2.5491,-2.5487,-2.5524,-2.5541,-2.5599,-2.5595,-2.5593,-2.5607,-2.5598,-2.5615,-2.5624,-2.5278,-2.4432,-2.3603,-2.2675,-2.1454,-2.0564,-2.0574,-2.0599,-2.0604,-2.0605,-2.0605,-2.0604,-2.0602,-2.0601,-2.0601,-2.06,-2.0598,-2.0598,-3.7702,-3.7202,-3.7185,-3.6857,-3.6395,-3.6343,-3.6423,-3.6561,-3.6561,-3.6602,-3.6681,-3.6719,-3.6681,-3.6719,-3.6702,-3.6722,-3.6725,-3.6725,-3.6725,-3.6786,-3.6829,-3.6891,-3.697,-3.6989,-3.6989,-3.6937,-3.6744,-3.6671,-3.6619,-3.5901,-3.5181,-3.4443,-3.3988,-3.337,-3.2647,-3.2574,-3.2606,-3.2588,-3.2445,-3.2036,-3.154,-3.1184,-3.0379,-2.9318,-2.9105,-2.8778,-2.8452,-2.8484,-2.8625,-2.881,-2.8858,-2.8917,-2.8968,-2.9033,-2.8949,-2.882,-2.8841,-2.8876,-2.8713,-2.8673,-2.8733,-2.8809,-2.8736,-2.8708,-2.8178,-2.8179,-2.7848,-2.7305,-2.7182,-2.7105,-2.6917,-2.6893,-2.7103,-2.7298,-2.7226,-2.7271,-2.7547,-2.774,-2.7788,-2.7557,-2.7089,-2.6708,-2.6287,-2.5848,-2.5509,-2.544,-2.5433,-2.5445,-2.5488,-2.5506,-2.5566,-2.557,-2.5567,-2.5582,-2.5599,-2.56,-2.5574,-2.5459,-2.4769,-2.3866,-2.2785,-2.1547,-2.0895,-2.0573,-2.0595,-2.0601,-2.0604,-2.0605,-2.0605,-2.0604,-2.0603,-2.0603,-2.0602,-2.0601,-2.0601,-3.8358,-3.7961,-3.7939,-3.753,-3.6835,-3.6801,-3.6654,-3.6437,-3.6423,-3.6444,-3.6523,-3.6523,-3.6523,-3.6541,-3.6523,-3.6582,-3.6623,-3.6606,-3.6643,-3.6722,-3.6745,-3.6849,-3.6968,-3.6989,-3.6989,-3.6989,-3.6989,-3.6989,-3.6919,-3.6496,-3.5917,-3.5162,-3.4462,-3.3723,-3.2984,-3.2596,-3.2524,-3.2523,-3.2522,-3.2309,-3.1938,-3.1634,-3.1135,-3.0135,-2.9663,-2.8948,-2.8407,-2.8406,-2.8536,-2.8675,-2.8737,-2.8785,-2.8858,-2.8929,-2.8987,-2.9062,-2.9152,-2.92,-2.9262,-2.9336,-2.9359,-2.9363,-2.9463,-2.9306,-2.898,-2.8931,-2.869,-2.7953,-2.7902,-2.7775,-2.7592,-2.7787,-2.806,-2.823,-2.8549,-2.8662,-2.8426,-2.8742,-2.87,-2.8436,-2.8033,-2.7374,-2.6839,-2.6207,-2.5811,-2.5507,-2.5404,-2.5432,-2.5464,-2.5488,-2.5511,-2.5513,-2.5538,-2.5557,-2.5592,-2.5593,-2.5612,-2.5501,-2.4501,-2.3698,-2.2796,-2.1579,-2.0965,-2.0544,-2.059,-2.0595,-2.0601,-2.0604,-2.0605,-2.0605,-2.0605,-2.0604,-2.0604,-2.0603,-2.0603,-3.8807,-3.8715,-3.8715,-3.8289,-3.7668,-3.7512,-3.7081,-3.6525,-3.6356,-3.6305,-3.6322,-3.6284,-3.6343,-3.6284,-3.6343,-3.6381,-3.6464,-3.6464,-3.6564,-3.6623,-3.6684,-3.6748,-3.6908,-3.6928,-3.6928,-3.6928,-3.6968,-3.6968,-3.6933,-3.6898,-3.6513,-3.5759,-3.5056,-3.4407,-3.367,-3.2967,-3.2546,-3.2581,-3.2509,-3.2473,-3.2296,-3.1923,-3.1531,-3.1085,-3.0049,-2.9176,-2.8665,-2.8492,-2.855,-2.8562,-2.8632,-2.87,-2.8761,-2.8846,-2.8905,-2.8982,-2.9033,-2.9112,-2.9167,-2.924,-2.9286,-2.932,-2.9361,-2.9423,-2.9399,-2.9439,-2.9223,-2.8576,-2.8616,-2.842,-2.8091,-2.8427,-2.8799,-2.9043,-2.9665,-2.9721,-2.9468,-2.9832,-3.0016,-2.9338,-2.9217,-2.8335,-2.7349,-2.6632,-2.6342,-2.5461,-2.5373,-2.5406,-2.5438,-2.5459,-2.5452,-2.5464,-2.5499,-2.5511,-2.5548,-2.5583,-2.5601,-2.546,-2.4098,-2.3158,-2.2571,-2.1627,-2.0912,-2.0531,-2.0539,-2.0568,-2.0595,-2.0599,-2.0602,-2.0604,-2.0605,-2.0605,-2.0605,-2.0605,-2.0605,-4.0049,-3.9457,-3.9457,-3.9026,-3.8318,-3.7754,-3.7409,-3.7185,-3.6577,-3.6353,-3.6284,-3.6284,-3.6284,-3.6284,-3.6284,-3.6322,-3.6343,-3.6343,-3.6423,-3.6523,-3.6544,-3.6623,-3.6745,-3.6766,-3.6766,-3.6786,-3.6829,-3.6849,-3.6869,-3.6858,-3.6601,-3.588,-3.558,-3.5197,-3.4424,-3.3652,-3.3266,-3.316,-3.2757,-3.2475,-3.2422,-3.2264,-3.1892,-3.136,-3.0506,-2.9766,-2.9183,-2.903,-2.883,-2.8501,-2.8414,-2.851,-2.8625,-2.8662,-2.8737,-2.8852,-2.8959,-2.9028,-2.9044,-2.9163,-2.924,-2.9294,-2.9315,-2.9357,-2.9412,-2.9443,-2.9408,-2.9241,-2.9317,-2.9222,-2.9104,-2.9379,-2.9539,-2.9644,-2.9832,-3.0,-2.9918,-3.0099,-3.0158,-2.9941,-2.9448,-2.8654,-2.766,-2.6902,-2.6365,-2.5572,-2.5346,-2.5379,-2.5397,-2.541,-2.5423,-2.5432,-2.5456,-2.5495,-2.5517,-2.5557,-2.5564,-2.5287,-2.4002,-2.3028,-2.244,-2.1515,-2.0763,-2.0498,-2.0509,-2.0539,-2.0568,-2.0592,-2.0577,-2.058,-2.0602,-2.0604,-2.0604,-2.0605,-2.0605,-4.0653,-4.025,-4.025,-3.9819,-3.9112,-3.8703,-3.8112,-3.7512,-3.706,-3.6628,-3.6335,-3.6284,-3.6284,-3.6284,-3.6284,-3.6284,-3.6284,-3.6301,-3.636,-3.6402,-3.6402,-3.6444,-3.6485,-3.6523,-3.6564,-3.6681,-3.6725,-3.6766,-3.6768,-3.6791,-3.6654,-3.6199,-3.5885,-3.5446,-3.5028,-3.4313,-3.3717,-3.335,-3.3072,-3.2722,-3.2371,-3.2353,-3.2053,-3.1434,-3.0919,-3.0435,-2.9804,-2.9322,-2.9012,-2.8706,-2.8433,-2.8327,-2.8484,-2.8562,-2.8637,-2.8712,-2.884,-2.8935,-2.8994,-2.9044,-2.9112,-2.9197,-2.9229,-2.9294,-2.9339,-2.9351,-2.9373,-2.9453,-2.9502,-2.9589,-2.9664,-2.9737,-2.9799,-2.9813,-2.9888,-2.9964,-3.003,-3.015,-3.0259,-3.0196,-2.989,-2.9008,-2.8138,-2.7294,-2.6395,-2.562,-2.5317,-2.5337,-2.5361,-2.5379,-2.5393,-2.5406,-2.5447,-2.5472,-2.5499,-2.5529,-2.5548,-2.5039,-2.408,-2.3342,-2.2795,-2.1694,-2.0554,-2.0506,-2.05,-2.0509,-2.0538,-2.0545,-2.0569,-2.0595,-2.0598,-2.0599,-2.0601,-2.0603,-2.0604,-4.0894,-4.0894,-4.0894,-4.0515,-3.9905,-3.9715,-3.8974,-3.7978,-3.7581,-3.7077,-3.6542,-3.6387,-3.6284,-3.6284,-3.6284,-3.6284,-3.6284,-3.6284,-3.6322,-3.6322,-3.6322,-3.6305,-3.6343,-3.6343,-3.6423,-3.6623,-3.6643,-3.6664,-3.6664,-3.6684,-3.669,-3.6565,-3.6075,-3.5817,-3.5553,-3.4942,-3.4371,-3.3885,-3.3434,-3.307,-3.2511,-3.2441,-3.2037,-3.17,-3.1506,-3.1132,-3.049,-2.9922,-2.9387,-2.9086,-2.8557,-2.8342,-2.8345,-2.8471,-2.8562,-2.8574,-2.8687,-2.8773,-2.8846,-2.8929,-2.9028,-2.9067,-2.9152,-2.9218,-2.9272,-2.9296,-2.932,-2.9382,-2.9451,-2.9492,-2.955,-2.9636,-2.9673,-2.9718,-2.9823,-2.9874,-2.9905,-3.0061,-3.0135,-3.0192,-3.0002,-2.9353,-2.8427,-2.7539,-2.6598,-2.5756,-2.5493,-2.5292,-2.5303,-2.5322,-2.5351,-2.537,-2.5412,-2.5427,-2.5456,-2.5499,-2.552,-2.5056,-2.4157,-2.3478,-2.2892,-2.164,-2.062,-2.0517,-2.051,-2.05,-2.0507,-2.0512,-2.054,-2.0589,-2.0591,-2.0573,-2.0576,-2.0599,-2.0601,-4.0894,-4.0894,-4.0894,-4.0825,-4.0601,-3.9991,-3.956,-3.9146,-3.8065,-3.7461,-3.7219,-3.6611,-3.6353,-3.6284,-3.6284,-3.6284,-3.6284,-3.6284,-3.6284,-3.6284,-3.6284,-3.6284,-3.6284,-3.6284,-3.6343,-3.6381,-3.6482,-3.6523,-3.6564,-3.6643,-3.6661,-3.6647,-3.6507,-3.6403,-3.6157,-3.5762,-3.5183,-3.4679,-3.3968,-3.3362,-3.2999,-3.2529,-3.2249,-3.2089,-3.2072,-3.1771,-3.1292,-3.0956,-3.0388,-2.9248,-2.9027,-2.866,-2.835,-2.8327,-2.8367,-2.8458,-2.8562,-2.865,-2.8687,-2.8822,-2.8947,-2.9017,-2.9085,-2.9134,-2.9189,-2.924,-2.9254,-2.9307,-2.938,-2.9423,-2.9433,-2.9492,-2.9589,-2.9655,-2.9729,-2.9774,-2.9806,-2.9907,-3.0011,-3.0106,-2.9971,-2.9681,-2.8676,-2.7752,-2.6851,-2.5987,-2.5447,-2.528,-2.5257,-2.5273,-2.5288,-2.5327,-2.537,-2.5378,-2.5401,-2.546,-2.5449,-2.5142,-2.4364,-2.3456,-2.266,-2.1452,-2.0746,-2.0579,-2.0513,-2.0503,-2.0511,-2.05,-2.0527,-2.0536,-2.0539,-2.0543,-2.0548,-2.0573,-2.0596,-4.0894,-4.0894,-4.0894,-4.0894,-4.0843,-4.0515,-4.006,-3.9629,-3.8922,-3.8203,-3.7581,-3.706,-3.6663,-3.6387,-3.6284,-3.6284,-3.6284,-3.6284,-3.6284,-3.6284,-3.6284,-3.6284,-3.6284,-3.6284,-3.6284,-3.6322,-3.6381,-3.6402,-3.6402,-3.6444,-3.6502,-3.6485,-3.6485,-3.6485,-3.6412,-3.6101,-3.5706,-3.5272,-3.4636,-3.3876,-3.3256,-3.2562,-3.2302,-3.2284,-3.2371,-3.2212,-3.1913,-3.1367,-3.0944,-3.02,-2.9455,-2.8953,-2.8602,-2.833,-2.8223,-2.8327,-2.8432,-2.8536,-2.8574,-2.8712,-2.8785,-2.89,-2.897,-2.9021,-2.9078,-2.9112,-2.9186,-2.9251,-2.9304,-2.9339,-2.9339,-2.9402,-2.9463,-2.954,-2.9626,-2.9701,-2.9737,-2.9798,-2.9899,-2.9996,-2.9992,-2.9599,-2.8782,-2.7892,-2.7096,-2.631,-2.5529,-2.5291,-2.522,-2.5236,-2.5252,-2.5273,-2.5317,-2.5361,-2.5363,-2.5408,-2.5456,-2.5151,-2.4554,-2.3647,-2.2771,-2.1698,-2.0951,-2.0514,-2.0489,-2.0504,-2.0515,-2.0503,-2.0511,-2.05,-2.0524,-2.0529,-2.0536,-2.0543,-2.0567,-4.0894,-4.0894,-4.0894,-4.0894,-4.0894,-4.0894,-4.0549,-3.9991,-3.9733,-3.9008,-3.803,-3.7616,-3.7111,-3.6628,-3.637,-3.6284,-3.6284,-3.6284,-3.6284,-3.6284,-3.6284,-3.6284,-3.6284,-3.6284,-3.6284,-3.6284,-3.6301,-3.6284,-3.6305,-3.6305,-3.6305,-3.6305,-3.6305,-3.6284,-3.627,-3.6256,-3.5835,-3.5597,-3.5244,-3.4525,-3.3318,-3.2665,-3.2283,-3.2196,-3.2301,-3.2336,-3.2196,-3.1826,-3.1404,-3.0876,-3.0154,-2.9356,-2.8984,-2.8494,-2.8234,-2.8241,-2.83,-2.8419,-2.851,-2.86,-2.8675,-2.8749,-2.8834,-2.8905,-2.8975,-2.9055,-2.9123,-2.9167,-2.9222,-2.9283,-2.9323,-2.9357,-2.9401,-2.9451,-2.954,-2.9645,-2.9673,-2.9719,-2.979,-2.9885,-2.9975,-2.9589,-2.8815,-2.8012,-2.7192,-2.6408,-2.5643,-2.5283,-2.5217,-2.5215,-2.5231,-2.5222,-2.5248,-2.5327,-2.5341,-2.5369,-2.5419,-2.5332,-2.4664,-2.3798,-2.2995,-2.2152,-2.143,-2.0667,-2.0466,-2.0463,-2.0493,-2.0506,-2.0515,-2.0503,-2.0508,-2.0515,-2.0522,-2.0529,-2.0536,-4.0894,-4.0894,-4.0894,-4.0894,-4.0894,-4.0894,-4.086,-4.067,-4.0008,-3.9629,-3.9163,-3.8116,-3.7478,-3.7077,-3.6525,-3.6318,-3.6284,-3.6284,-3.6284,-3.6284,-3.6284,-3.6284,-3.6284,-3.6284,-3.6284,-3.6284,-3.6284,-3.6284,-3.6284,-3.6284,-3.6284,-3.6284,-3.6284,-3.6284,-3.6284,-3.6284,-3.6249,-3.6042,-3.5528,-3.457,-3.3419,-3.3097,-3.2682,-3.2353,-3.2214,-3.2249,-3.2249,-3.2056,-3.188,-3.13,-3.107,-3.0259,-2.9268,-2.8934,-2.8514,-2.8273,-2.8154,-2.8264,-2.8353,-2.8484,-2.8574,-2.8637,-2.8724,-2.8834,-2.8917,-2.8998,-2.9078,-2.9119,-2.9167,-2.9211,-2.9269,-2.9312,-2.9328,-2.939,-2.9433,-2.9492,-2.9522,-2.9626,-2.9701,-2.9765,-2.9861,-2.9526,-2.8951,-2.8115,-2.7293,-2.6505,-2.5811,-2.5434,-2.5208,-2.5206,-2.5209,-2.5201,-2.5212,-2.5268,-2.5303,-2.5327,-2.5355,-2.5391,-2.4865,-2.408,-2.3355,-2.2591,-2.1564,-2.0939,-2.0679,-2.0459,-2.0456,-2.0489,-2.0497,-2.0504,-2.0488,-2.0498,-2.0505,-2.0513,-2.0501,-4.0894,-4.0894,-4.0894,-4.0894,-4.0894,-4.0894,-4.0894,-4.0825,-4.0526,-4.0112,-3.9577,-3.8612,-3.7685,-3.6922,-3.6404,-3.6301,-3.6284,-3.6284,-3.6284,-3.6284,-3.6284,-3.6284,-3.6284,-3.6284,-3.6284,-3.6284,-3.6284,-3.6284,-3.6284,-3.6284,-3.6284,-3.6284,-3.6284,-3.6284,-3.6284,-3.6284,-3.6284,-3.6059,-3.5597,-3.4944,-3.4261,-3.3576,-3.2991,-3.2662,-3.2352,-3.2196,-3.2161,-3.2214,-3.2161,-3.1706,-3.1477,-3.0965,-3.0171,-2.9503,-2.8778,-2.8656,-2.8201,-2.8102,-2.8237,-2.8371,-2.845,-2.8528,-2.86,-2.8724,-2.8815,-2.8929,-2.8987,-2.8987,-2.9078,-2.9145,-2.9197,-2.9269,-2.9304,-2.9357,-2.9361,-2.9402,-2.9443,-2.9531,-2.9626,-2.9673,-2.971,-2.9458,-2.9039,-2.8101,-2.7445,-2.6987,-2.6054,-2.5297,-2.5168,-2.5191,-2.5195,-2.5204,-2.5209,-2.5225,-2.5238,-2.5274,-2.5313,-2.5351,-2.5406,-2.4601,-2.3848,-2.2993,-2.2062,-2.1242,-2.0809,-2.0632,-2.0495,-2.0444,-2.0449,-2.0458,-2.0485,-2.0474,-2.0484,-2.0515,-2.0506,-4.0894,-4.0894,-4.0894,-4.0894,-4.0894,-4.0894,-4.0894,-4.0894,-4.0877,-4.0567,-3.9876,-3.8996,-3.7715,-3.6559,-3.6318,-3.6284,-3.6284,-3.6284,-3.6284,-3.6284,-3.6284,-3.6284,-3.6284,-3.6284,-3.6284,-3.6284,-3.6284,-3.6284,-3.6284,-3.6284,-3.6284,-3.6284,-3.6284,-3.6284,-3.6284,-3.6284,-3.6284,-3.6232,-3.5801,-3.5407,-3.4996,-3.4209,-3.3536,-3.3038,-3.2644,-3.2264,-3.2107,-3.2144,-3.2161,-3.2057,-3.1759,-3.1389,-3.0914,-3.021,-2.9367,-2.9024,-2.8488,-2.8222,-2.8205,-2.8223,-2.8304,-2.8384,-2.8515,-2.8662,-2.8706,-2.8822,-2.8893,-2.8917,-2.8987,-2.9055,-2.91,-2.9197,-2.924,-2.9294,-2.9328,-2.9359,-2.9401,-2.9461,-2.9511,-2.955,-2.9608,-2.9673,-2.9104,-2.8088,-2.7517,-2.731,-2.6484,-2.5311,-2.5113,-2.5156,-2.5155,-2.5159,-2.5201,-2.5187,-2.5201,-2.5233,-2.5273,-2.5303,-2.5346,-2.5022,-2.4167,-2.3535,-2.2782,-2.1984,-2.1166,-2.0714,-2.0532,-2.0466,-2.038,-2.0412,-2.0444,-2.0449,-2.0461,-2.0513,-2.0546,-4.0894,-4.0894,-4.0894,-4.0894,-4.0894,-4.0894,-4.0894,-4.0894,-4.0894,-4.0791,-4.0308,-3.9255,-3.7749,-3.6611,-3.6284,-3.6284,-3.6284,-3.6284,-3.6284,-3.6284,-3.6284,-3.6284,-3.6284,-3.6284,-3.6284,-3.6284,-3.6284,-3.6284,-3.6284,-3.6284,-3.6284,-3.6284,-3.6284,-3.6284,-3.6284,-3.6284,-3.6284,-3.6284,-3.6077,-3.5783,-3.5439,-3.4872,-3.432,-3.3287,-3.2983,-3.2692,-3.1999,-3.2054,-3.2108,-3.2161,-3.2039,-3.1811,-3.1354,-3.0897,-3.0178,-2.9505,-2.8903,-2.8558,-2.8279,-2.8156,-2.8196,-2.8309,-2.8424,-2.8592,-2.8612,-2.8737,-2.8822,-2.887,-2.8917,-2.8987,-2.9044,-2.913,-2.9175,-2.9218,-2.9272,-2.9304,-2.9328,-2.9361,-2.9412,-2.9451,-2.9492,-2.9589,-2.9317,-2.8346,-2.7609,-2.7369,-2.6215,-2.507,-2.5076,-2.512,-2.5107,-2.5125,-2.5174,-2.5178,-2.5187,-2.5215,-2.5236,-2.5257,-2.5293,-2.4942,-2.4356,-2.3767,-2.3303,-2.2528,-2.1708,-2.1136,-2.0585,-2.0495,-2.0416,-2.0388,-2.0399,-2.041,-2.0558,-2.0691,-2.0686,-4.0894,-4.0894,-4.0894,-4.0894,-4.0894,-4.0894,-4.0894,-4.0894,-4.0894,-4.0308,-3.9531,-3.8784,-3.7732,-3.6646,-3.6284,-3.6284,-3.6284,-3.6284,-3.6284,-3.6284,-3.6284,-3.6284,-3.6284,-3.6284,-3.6284,-3.6284,-3.6284,-3.6284,-3.6284,-3.6284,-3.6284,-3.6284,-3.6284,-3.6284,-3.6284,-3.6284,-3.6284,-3.6284,-3.6284,-3.6077,-3.5904,-3.537,-3.4904,-3.4441,-3.3181,-3.2926,-3.2513,-3.2155,-3.2053,-3.202,-3.2108,-3.1952,-3.1742,-3.1409,-3.0864,-3.016,-2.9542,-2.8925,-2.8514,-2.829,-2.8112,-2.8209,-2.8345,-2.845,-2.8489,-2.86,-2.8675,-2.8737,-2.8834,-2.8917,-2.8964,-2.9062,-2.913,-2.9163,-2.9197,-2.924,-2.9283,-2.9307,-2.9359,-2.9401,-2.9431,-2.9472,-2.9111,-2.8633,-2.7978,-2.7322,-2.6043,-2.5056,-2.5057,-2.5063,-2.507,-2.5082,-2.5132,-2.515,-2.5136,-2.5164,-2.5193,-2.5215,-2.5236,-2.4969,-2.4601,-2.4207,-2.3681,-2.2928,-2.2308,-2.1725,-2.118,-2.0682,-2.045,-2.0426,-2.0399,-2.0388,-2.0579,-2.0966,-2.1117,-4.0894,-4.0894,-4.0894,-4.0894,-4.0894,-4.0894,-4.0894,-4.0894,-4.0894,-4.0204,-3.8922,-3.8681,-3.7905,-3.6887,-3.6353,-3.6284,-3.6284,-3.6284,-3.6284,-3.6284,-3.6284,-3.6284,-3.6284,-3.6284,-3.6284,-3.6284,-3.6284,-3.6284,-3.6284,-3.6284,-3.6284,-3.6284,-3.6284,-3.6284,-3.6284,-3.6284,-3.6284,-3.6284,-3.6284,-3.6284,-3.618,-3.5852,-3.5335,-3.5094,-3.4145,-3.3369,-3.294,-3.2461,-3.2153,-3.2034,-3.1984,-3.2073,-3.1934,-3.1725,-3.1357,-3.0847,-3.0284,-2.9495,-2.9136,-2.847,-2.8067,-2.8126,-2.8223,-2.8304,-2.8371,-2.8458,-2.8549,-2.8643,-2.8749,-2.8846,-2.887,-2.8987,-2.9051,-2.9067,-2.9123,-2.9167,-2.9207,-2.9251,-2.9296,-2.9339,-2.938,-2.9382,-2.9127,-2.868,-2.7805,-2.7022,-2.5837,-2.506,-2.5004,-2.5018,-2.5044,-2.5057,-2.5095,-2.5101,-2.5095,-2.5131,-2.5147,-2.5184,-2.5187,-2.5239,-2.4935,-2.4557,-2.4169,-2.3606,-2.299,-2.2365,-2.1961,-2.1667,-2.1059,-2.0447,-2.0614,-2.0939,-2.1509,-2.1934,-2.2009,-4.0894,-4.0894,-4.0894,-4.0894,-4.0894,-4.0894,-4.0894,-4.0894,-4.0894,-4.0411,-3.9549,-3.8962,-3.822,-3.7392,-3.6697,-3.6439,-3.6284,-3.6284,-3.6284,-3.6284,-3.6284,-3.6284,-3.6284,-3.6284,-3.6284,-3.6284,-3.6284,-3.6284,-3.6284,-3.6284,-3.6284,-3.6284,-3.6284,-3.6284,-3.6284,-3.6284,-3.6284,-3.6284,-3.6284,-3.6284,-3.6249,-3.6163,-3.5818,-3.5421,-3.4973,-3.4214,-3.3542,-3.2888,-3.2511,-3.2187,-3.1945,-3.1983,-3.2003,-3.2003,-3.1708,-3.12,-3.1043,-3.0587,-3.002,-2.8707,-2.8232,-2.8067,-2.8126,-2.8196,-2.8223,-2.8331,-2.8445,-2.851,-2.8625,-2.8724,-2.8803,-2.8899,-2.8952,-2.8998,-2.9055,-2.9112,-2.9152,-2.9186,-2.9222,-2.9275,-2.9304,-2.927,-2.9103,-2.8689,-2.7677,-2.6691,-2.5566,-2.5069,-2.5007,-2.4952,-2.496,-2.5012,-2.5044,-2.5063,-2.5057,-2.5088,-2.5113,-2.5131,-2.5149,-2.5178,-2.5206,-2.4985,-2.4593,-2.4181,-2.3693,-2.3111,-2.2936,-2.2761,-2.2126,-2.1587,-2.1533,-2.184,-2.2446,-2.2843,-2.2897,-4.0894,-4.0894,-4.0894,-4.0894,-4.0894,-4.0894,-4.0894,-4.0894,-4.0843,-4.044,-3.9784,-3.9388,-3.8617,-3.7719,-3.7219,-3.6784,-3.637,-3.6284,-3.6284,-3.6284,-3.6262,-3.6284,-3.6284,-3.6262,-3.6284,-3.6284,-3.6284,-3.6284,-3.6284,-3.6284,-3.6284,-3.6284,-3.6284,-3.6284,-3.6284,-3.6284,-3.6284,-3.6284,-3.6284,-3.6284,-3.6284,-3.6266,-3.6163,-3.587,-3.5473,-3.4921,-3.4249,-3.3576,-3.2905,-3.2477,-3.22,-3.1944,-3.1982,-3.1983,-3.1898,-3.1586,-3.1394,-3.0661,-3.0167,-2.9388,-2.8901,-2.8409,-2.8071,-2.8173,-2.8126,-2.8209,-2.83,-2.8406,-2.8523,-2.8612,-2.8669,-2.8846,-2.8917,-2.894,-2.8998,-2.9044,-2.9089,-2.9112,-2.9145,-2.9218,-2.924,-2.9275,-2.9163,-2.8917,-2.8045,-2.7351,-2.6405,-2.5401,-2.5099,-2.4924,-2.4877,-2.4919,-2.4965,-2.5018,-2.5025,-2.5051,-2.507,-2.5088,-2.5107,-2.512,-2.5131,-2.5153,-2.5055,-2.4678,-2.4295,-2.3914,-2.3712,-2.3514,-2.3233,-2.2902,-2.2828,-2.2713,-2.303,-2.3482,-2.3767,-4.0894,-4.0894,-4.0894,-4.0894,-4.0894,-4.0894,-4.0894,-4.0894,-4.0894,-4.0601,-4.0129,-3.9836,-3.9232,-3.8336,-3.7702,-3.7297,-3.6638,-3.6345,-3.6195,-3.6195,-3.6195,-3.6174,-3.6195,-3.6237,-3.6255,-3.6259,-3.6284,-3.6284,-3.6284,-3.6284,-3.6284,-3.6284,-3.6284,-3.6284,-3.6284,-3.6284,-3.6284,-3.6284,-3.6284,-3.6284,-3.6284,-3.6284,-3.6284,-3.6128,-3.5852,-3.5439,-3.499,-3.4283,-3.3421,-3.299,-3.2507,-3.2078,-3.1995,-3.1893,-3.1912,-3.1793,-3.1638,-3.0941,-3.0504,-3.0394,-2.9758,-2.889,-2.8503,-2.8237,-2.8117,-2.813,-2.8196,-2.8286,-2.8437,-2.851,-2.86,-2.8773,-2.8834,-2.8858,-2.894,-2.8998,-2.9033,-2.9074,-2.9108,-2.9152,-2.9167,-2.9214,-2.923,-2.8957,-2.8497,-2.7923,-2.7326,-2.6328,-2.5329,-2.5077,-2.4881,-2.4849,-2.491,-2.4945,-2.4979,-2.5018,-2.5031,-2.5044,-2.507,-2.507,-2.5108,-2.5138,-2.5169,-2.5162,-2.4807,-2.4506,-2.4399,-2.4212,-2.4075,-2.4071,-2.4099,-2.396,-2.3805,-2.4068,-2.4466,-4.0894,-4.0894,-4.0894,-4.0894,-4.0894,-4.0894,-4.0894,-4.0894,-4.0894,-4.0877,-4.0825,-4.006,-3.9629,-3.9313,-3.818,-3.7442,-3.7045,-3.6479,-3.6174,-3.6062,-3.6062,-3.6041,-3.6079,-3.6144,-3.6148,-3.6191,-3.6233,-3.6259,-3.6284,-3.6284,-3.6284,-3.6284,-3.6284,-3.6284,-3.6284,-3.6284,-3.6284,-3.6284,-3.6284,-3.6284,-3.6284,-3.6284,-3.6284,-3.6232,-3.6111,-3.5835,-3.5456,-3.4956,-3.4214,-3.3611,-3.3007,-3.2507,-3.2127,-3.1852,-3.1872,-3.1894,-3.195,-3.1516,-3.1116,-3.1079,-3.0693,-2.9868,-2.9419,-2.8778,-2.8409,-2.839,-2.8372,-2.8346,-2.8416,-2.846,-2.8536,-2.8625,-2.8718,-2.8785,-2.8863,-2.894,-2.8994,-2.9028,-2.9051,-2.9085,-2.9089,-2.9145,-2.9189,-2.9003,-2.8796,-2.8447,-2.7902,-2.7326,-2.6304,-2.5319,-2.5095,-2.4791,-2.4834,-2.4877,-2.4912,-2.4946,-2.4985,-2.4999,-2.5044,-2.5069,-2.5089,-2.5095,-2.5089,-2.512,-2.5162,-2.5036,-2.4837,-2.4903,-2.5087,-2.5081,-2.4857,-2.4852,-2.4583,-2.4807,-2.5143,-4.0894,-4.0894,-4.0894,-4.0894,-4.0894,-4.0894,-4.0894,-4.0894,-4.0894,-4.0894,-4.0894,-4.067,-4.0169,-3.9473,-3.8545,-3.7808,-3.709,-3.6485,-3.6143,-3.5997,-3.5954,-3.5997,-3.5997,-3.6019,-3.6041,-3.6101,-3.6165,-3.6229,-3.6233,-3.6259,-3.6284,-3.6284,-3.6284,-3.6284,-3.6284,-3.6284,-3.6284,-3.6284,-3.6284,-3.6284,-3.6284,-3.6284,-3.6284,-3.6284,-3.6284,-3.6077,-3.5921,-3.5456,-3.4852,-3.4576,-3.3973,-3.3386,-3.2679,-3.2559,-3.2491,-3.1871,-3.1876,-3.181,-3.1671,-3.1725,-3.1481,-3.0887,-3.0533,-3.021,-2.9656,-2.9132,-2.8859,-2.8784,-2.8514,-2.851,-2.8523,-2.858,-2.8629,-2.87,-2.8779,-2.8863,-2.8917,-2.8964,-2.8998,-2.904,-2.9044,-2.9078,-2.9123,-2.9141,-2.8955,-2.8743,-2.8415,-2.79,-2.714,-2.6073,-2.5381,-2.5061,-2.478,-2.4817,-2.4849,-2.4884,-2.4924,-2.4945,-2.4991,-2.5011,-2.5018,-2.5024,-2.5018,-2.5051,-2.5101,-2.5168,-2.5157,-2.5245,-2.5292,-2.5332,-2.5173,-2.5309,-2.5417,-2.5444,-2.5452,-4.0429,-4.048,-4.0791,-4.0894,-4.0894,-4.0894,-4.0894,-4.0894,-4.0894,-4.0894,-4.0888,-4.0823,-4.0494,-3.9959,-3.9157,-3.8351,-3.7519,-3.678,-3.6246,-3.5822,-3.5951,-3.5822,-3.5844,-3.5905,-3.5927,-3.5971,-3.6058,-3.6144,-3.6187,-3.6255,-3.6284,-3.6284,-3.6284,-3.6284,-3.6284,-3.6284,-3.6284,-3.6284,-3.6284,-3.6284,-3.6284,-3.6284,-3.6284,-3.6284,-3.6284,-3.6284,-3.6249,-3.5749,-3.5559,-3.5266,-3.4645,-3.418,-3.3421,-3.311,-3.2559,-3.1991,-3.1838,-3.1857,-3.1789,-3.1896,-3.1741,-3.1568,-3.1429,-3.1305,-3.0773,-3.0168,-2.979,-2.9481,-2.8965,-2.8571,-2.8558,-2.8542,-2.8567,-2.86,-2.8712,-2.8803,-2.8863,-2.8929,-2.8964,-2.8987,-2.901,-2.9051,-2.9096,-2.9141,-2.9138,-2.8982,-2.8756,-2.8392,-2.7528,-2.6442,-2.5813,-2.5412,-2.4995,-2.4734,-2.4787,-2.4813,-2.4842,-2.4882,-2.4896,-2.4917,-2.4938,-2.4959,-2.4979,-2.5018,-2.5063,-2.5113,-2.5155,-2.522,-2.5264,-2.5287,-2.5303,-2.5337,-2.5388,-2.5395,-2.5427,-3.9646,-3.9802,-4.0543,-4.0864,-4.0871,-4.0847,-4.0847,-4.0864,-4.0847,-4.0847,-4.084,-4.0728,-4.0638,-4.0275,-3.957,-3.886,-3.8101,-3.7341,-3.6701,-3.5842,-3.6175,-3.6158,-3.5977,-3.5847,-3.5965,-3.5907,-3.5927,-3.6053,-3.6165,-3.6212,-3.6199,-3.6262,-3.6259,-3.6237,-3.6237,-3.6259,-3.6259,-3.6259,-3.628,-3.6284,-3.6284,-3.6284,-3.6284,-3.6284,-3.6284,-3.6284,-3.6284,-3.6163,-3.6008,-3.5525,-3.5197,-3.4904,-3.4231,-3.33,-3.2576,-3.2145,-3.1939,-3.1818,-3.1819,-3.1875,-3.1912,-3.1896,-3.2002,-3.1934,-3.1445,-3.0809,-3.0347,-3.0112,-2.9675,-2.9098,-2.8937,-2.878,-2.8735,-2.8616,-2.8587,-2.8682,-2.8767,-2.8858,-2.894,-2.8964,-2.8987,-2.901,-2.9021,-2.9067,-2.9096,-2.9071,-2.9005,-2.8706,-2.812,-2.7007,-2.6275,-2.5834,-2.5375,-2.4987,-2.4676,-2.4723,-2.4768,-2.4817,-2.4813,-2.4842,-2.4889,-2.4917,-2.4938,-2.4979,-2.5006,-2.507,-2.5119,-2.5166,-2.5225,-2.5239,-2.5252,-2.5297,-2.5332,-2.537,-2.5402,-3.9112,-3.9767,-4.0449,-4.0697,-4.0607,-4.059,-4.0607,-4.0607,-4.0607,-4.0655,-4.0721,-4.0607,-4.0485,-4.0309,-3.9698,-3.9074,-3.8662,-3.8028,-3.7591,-3.728,-3.7172,-3.6789,-3.6552,-3.6446,-3.6209,-3.5842,-3.5795,-3.5927,-3.6036,-3.6062,-3.6084,-3.6084,-3.6105,-3.6105,-3.6127,-3.617,-3.6212,-3.6212,-3.6237,-3.6241,-3.6241,-3.6284,-3.6284,-3.6284,-3.6284,-3.6284,-3.6284,-3.6266,-3.6215,-3.6042,-3.6042,-3.5628,-3.4976,-3.3645,-3.2921,-3.2593,-3.2093,-3.1869,-3.18,-3.1819,-3.1856,-3.1893,-3.1948,-3.2002,-3.1777,-3.1218,-3.0864,-3.0718,-3.0378,-2.9788,-2.9351,-2.9147,-2.8883,-2.8699,-2.8513,-2.8629,-2.8711,-2.8798,-2.8905,-2.8952,-2.8975,-2.8987,-2.8987,-2.8998,-2.9028,-2.9062,-2.9089,-2.8957,-2.8717,-2.7922,-2.6883,-2.6339,-2.581,-2.539,-2.4974,-2.476,-2.489,-2.4813,-2.4787,-2.4798,-2.4846,-2.4863,-2.4891,-2.4919,-2.496,-2.5006,-2.5076,-2.5131,-2.5166,-2.5189,-2.5209,-2.5255,-2.5282,-2.5317,-2.5361,-3.8094,-3.8654,-3.9688,-4.0268,-4.0476,-4.051,-4.051,-4.0485,-4.0453,-4.0436,-4.0502,-4.0436,-4.0379,-4.028,-3.9797,-3.9323,-3.9063,-3.8623,-3.8108,-3.7973,-3.799,-3.7618,-3.733,-3.7032,-3.6626,-3.6209,-3.5869,-3.5839,-3.5888,-3.5975,-3.6019,-3.5997,-3.5997,-3.5997,-3.5997,-3.6062,-3.6101,-3.6122,-3.617,-3.6174,-3.6195,-3.622,-3.6284,-3.6284,-3.6284,-3.6284,-3.6284,-3.6284,-3.6284,-3.6284,-3.6249,-3.5835,-3.5111,-3.4093,-3.3335,-3.2783,-3.2265,-3.18,-3.18,-3.1818,-3.1818,-3.1856,-3.1857,-3.1911,-3.1948,-3.1498,-3.1551,-3.1392,-3.0983,-3.0414,-3.0233,-3.0057,-2.9464,-2.9094,-2.894,-2.8928,-2.884,-2.8749,-2.8858,-2.8929,-2.8952,-2.8964,-2.8964,-2.8987,-2.9017,-2.9017,-2.9062,-2.9062,-2.8872,-2.8706,-2.7701,-2.6977,-2.6547,-2.5912,-2.5391,-2.5173,-2.5111,-2.499,-2.4922,-2.4847,-2.4896,-2.4865,-2.4863,-2.4877,-2.4905,-2.4965,-2.5018,-2.5076,-2.512,-2.5138,-2.5166,-2.5217,-2.5239,-2.5261,-2.5307,-3.7007,-3.728,-3.8736,-3.9727,-4.029,-4.0402,-4.0436,-4.0419,-4.0313,-4.0263,-4.0305,-4.0263,-4.0263,-4.0213,-4.0129,-3.9639,-3.9309,-3.9216,-3.8734,-3.8481,-3.8362,-3.8261,-3.7956,-3.7523,-3.7134,-3.666,-3.6254,-3.5937,-3.5756,-3.5844,-3.591,-3.5915,-3.5954,-3.5954,-3.5954,-3.5975,-3.5993,-3.5993,-3.5997,-3.6019,-3.6084,-3.6152,-3.6216,-3.6237,-3.6259,-3.628,-3.628,-3.628,-3.628,-3.6284,-3.6266,-3.599,-3.537,-3.4507,-3.3854,-3.3162,-3.2283,-3.1921,-3.18,-3.18,-3.18,-3.18,-3.18,-3.1819,-3.1858,-3.1913,-3.1967,-3.183,-3.1409,-3.1177,-3.098,-3.0744,-3.0107,-2.9517,-2.9373,-2.9124,-2.8907,-2.8724,-2.8804,-2.887,-2.8887,-2.8905,-2.8929,-2.8952,-2.8964,-2.8975,-2.8994,-2.8994,-2.8945,-2.8824,-2.8304,-2.7831,-2.7504,-2.6819,-2.6005,-2.5792,-2.5715,-2.5683,-2.5639,-2.5247,-2.4945,-2.4915,-2.4888,-2.482,-2.4868,-2.4986,-2.499,-2.5024,-2.5069,-2.5222,-2.5126,-2.516,-2.522,-2.5242,-2.525,-3.6418,-3.7064,-3.8578,-3.9244,-3.9374,-3.9917,-4.0188,-4.0171,-4.0146,-4.0138,-4.0163,-4.0138,-4.0121,-4.0121,-4.0121,-3.9884,-3.9758,-3.9749,-3.9834,-3.9723,-3.9327,-3.9116,-3.8777,-3.8256,-3.777,-3.7144,-3.6552,-3.6254,-3.5898,-3.5751,-3.5689,-3.5711,-3.5711,-3.5711,-3.5711,-3.5756,-3.5839,-3.5861,-3.5927,-3.5954,-3.5975,-3.6019,-3.6041,-3.6062,-3.6062,-3.6144,-3.6187,-3.6225,-3.6233,-3.628,-3.6284,-3.6163,-3.5645,-3.4835,-3.4059,-3.3475,-3.2559,-3.1938,-3.18,-3.18,-3.18,-3.18,-3.18,-3.18,-3.1839,-3.1875,-3.1912,-3.1948,-3.1655,-3.1532,-3.1373,-3.1279,-3.0811,-3.0143,-2.979,-2.9257,-2.8858,-2.8786,-2.8802,-2.8803,-2.881,-2.8822,-2.8846,-2.8888,-2.8881,-2.8881,-2.887,-2.8881,-2.8923,-2.8863,-2.8773,-2.8529,-2.826,-2.7607,-2.6769,-2.6634,-2.6562,-2.6498,-2.6374,-2.6068,-2.5627,-2.5047,-2.4975,-2.5303,-2.5156,-2.5106,-2.5092,-2.548,-2.5358,-2.548,-2.5196,-2.5114,-2.5251,-2.5497,-2.575]},{"header":{"parameterUnit":"m.s-1","parameterCategory":1,"la1":31.0,"la2":29.5877,"lo1":-88.7671,"lo2":-86.6584,"dy":0.0162,"dx":0.0185,"nx":115,"ny":88,"refTime":"2023-05-04T00:00:00:Z","depth":0,"parameterNumber":3,"parameterNumberName":"V-component_of_WINDS"},"data":[0.0,0.0,0.0,0.0,0.0,0.0,0.0,0.0,0.0,0.0,0.0,0.0,0.0,0.0,0.0,0.0,0.0,0.0,0.0,0.0,0.0,0.0,0.0,0.0,0.0,0.0,0.0,0.0,0.0,0.0,0.0,0.0,0.0,0.0,0.0,0.0,0.0,0.0,0.0,0.0,0.0,0.0,0.0,0.0,0.0,0.0,0.0,0.0,0.0,0.0,0.0,0.0,0.0,0.0,0.0,0.0,0.0,0.0,0.0,0.0,0.0,0.0,0.0,0.0,0.0,0.0,0.0,0.0,0.0,0.0,0.0,0.0,0.0,0.0,0.0,0.0,0.0,0.0,0.0,0.0,0.0,0.0,0.0,0.0,0.0,0.0,0.0,0.0,0.0,0.0,0.0,0.0,0.0,0.0,0.0,0.0,0.0,0.0,0.0,0.0,0.0,0.0,0.0,0.0,0.0,0.0,0.0,0.0,0.0,0.0,0.0,0.0,0.0,0.0,0.0,0.0,0.0,0.0,0.0,0.0,0.0,0.0,0.0,0.0,0.0,0.0,0.0,0.0,0.0,0.0,0.0,0.0,0.0,0.0,0.0,0.0,0.0,0.0,0.0,0.0,0.0,0.0,0.0,0.0,0.0,0.0,0.0,0.0,0.0,0.0,0.0,0.0,0.0,0.0,0.0,0.0,0.0,0.0,0.0,0.0,0.0,0.0,0.0,0.0,0.0,0.0,0.0,0.0,0.0,0.0,0.0,0.0,0.0,0.0,0.0,0.0,0.0,0.0,0.0,0.0,0.0,0.0,0.0,0.0,0.0,0.0,0.0,0.0,0.0,0.0,0.0,0.0,0.0,0.0,0.0,0.0,0.0,0.0,0.0,0.0,0.0,0.0,0.0,0.0,0.0,0.0,0.0,0.0,0.0,0.0,0.0,0.0,0.0,0.0,0.0,0.0,0.0,0.0,0.0,0.0,0.0,0.0,0.0,0.0,0.0,0.0,0.0,0.0,0.0,0.0,0.0,0.0,0.0,0.0,0.0,0.0,0.0,0.0,0.0,0.0,0.0,0.0,0.0,0.0,0.0,0.0,0.0,0.0,0.0,0.0,0.0,0.0,0.0,0.0,0.0,0.0,0.0,0.0,0.0,0.0,0.0,0.0,0.0,0.0,0.0,0.0,0.0,0.0,0.0,0.0,0.0,0.0,0.0,0.0,0.0,0.0,0.0,0.0,0.0,0.0,0.0,0.0,0.0,0.0,0.0,0.0,0.0,0.0,0.0,0.0,0.0,0.0,0.0,0.0,0.0,0.0,0.0,0.0,0.0,0.0,0.0,0.0,0.0,0.0,0.0,0.0,0.0,0.0,0.0,0.0,0.0,0.0,0.0,0.0,0.0,0.0,0.0,0.0,0.0,0.0,0.0,0.0,0.0,0.0,0.0,0.0,0.0,0.0,0.0,0.0,0.0,0.0,0.0,0.0,0.0,0.0,0.0,0.0,0.0,0.0,0.0,0.0,0.0,0.0,0.0,0.0,0.0,0.0,0.0,0.0,0.0,0.0,0.0,0.0,0.0,0.0,0.0,0.0,0.0,0.0,0.0,0.0,0.0,0.0,0.0,0.0,0.0,0.0,0.0,0.0,0.0,0.0,0.0,0.0,0.0,0.0,0.0,0.0,0.0,0.0,0.0,0.0,0.0,0.0,0.0,0.0,0.0,0.0,0.0,0.0,0.0,0.0,0.0,0.0,0.0,0.0,0.0,0.0,0.0,0.0,0.0,0.0,0.0,0.0,0.0,0.0,0.0,0.0,0.0,0.0,0.0,0.0,0.0,0.0,0.0,0.0,0.0,0.0,0.0,0.0,0.0,0.0,0.0,0.0,0.0,0.0,0.0,0.0,0.0,0.0,0.0,0.0,0.0,0.0,0.0,0.0,0.0,0.0,0.0,0.0,0.0,0.0,0.0,0.0,0.0,0.0,0.0,0.0,0.0,0.0,0.0,0.0,0.0,0.0,0.0,0.0,0.0,0.0,0.0,0.0,0.0,0.0,0.0,0.0,0.0,0.0,0.0,0.0,0.0,0.0,0.0,0.0,0.0,0.0,0.0,0.0,0.0,0.0,0.0,0.0,0.0,0.0,0.0,0.0,0.0,0.0,0.0,0.0,0.0,0.0,0.0,0.0,0.0,0.0,0.0,0.0,0.0,0.0,0.0,0.0,0.0,0.0,0.0,0.0,0.0,0.0,0.0,0.0,0.0,0.0,0.0,0.0,0.0,0.0,0.0,0.0,0.0,0.0,0.0,0.0,0.0,0.0,0.0,0.0,0.0,0.0,0.0,0.0,0.0,0.0,0.0,0.0,0.0,0.0,0.0,0.0,0.0,0.0,0.0,0.0,0.0,0.0,0.0,0.0,0.0,0.0,0.0,0.0,0.0,0.0,0.0,0.0,0.0,0.0,0.0,0.0,0.0,0.0,0.0,0.0,0.0,0.0,0.0,0.0,0.0,0.0,0.0,0.0,0.0,0.0,0.0,0.0,0.0,0.0,0.0,0.0,0.0,0.0,0.0,0.0,0.0,0.0,0.0,0.0,0.0,0.0,0.0,0.0,0.0,0.0,0.0,0.0,0.0,0.0,0.0,0.0,0.0,0.0,0.0,0.0,0.0,0.0,0.0,0.0,0.0,0.0,0.0,0.0,0.0,0.0,0.0,0.0,0.0,0.0,0.0,0.0,0.0,0.0,0.0,0.0,0.0,0.0,0.0,0.0,0.0,0.0,0.0,0.0,0.0,0.0,0.0,0.0,0.0,0.0,0.0,0.0,0.0,0.0,0.0,0.0,0.0,0.0,0.0,0.0,0.0,0.0,0.0,0.0,0.0,0.0,0.0,0.0,0.0,0.0,0.0,0.0,0.0,0.0,0.0,0.0,0.0,0.0,0.0,0.0,0.0,0.0,0.0,0.0,0.0,0.0,0.0,0.0,0.0,0.0,0.0,0.0,0.0,0.0,0.0,0.0,0.0,0.0,0.0,0.0,0.0,0.0,0.0,0.0,0.0,0.0,0.0,0.0,0.0,0.0,0.0,0.0,0.0,0.0,0.0,0.0,0.0,0.0,0.0,0.0,0.0,0.0,0.0,0.0,0.0,0.0,0.0,0.0,0.0,0.0,0.0,0.0,0.0,0.0,0.0,0.0,0.0,0.0,0.0,0.0,0.0,0.0,0.0,0.0,0.0,0.0,0.0,0.0,0.0,0.0,0.0,0.0,0.0,0.0,0.0,0.0,0.0,0.0,0.0,0.0,0.0,0.0,0.0,0.0,0.0,0.0,0.0,0.0,0.0,0.0,0.0,0.0,0.0,0.0,0.0,0.0,0.0,0.0,0.0,0.0,0.0,0.0,0.0,0.0,0.0,0.0,0.0,0.0,0.0,0.0,0.0,0.0,0.0,0.0,0.0,0.0,0.0,0.0,0.0,0.0,0.0,0.0,0.0,0.0,0.0,0.0,0.0,0.0,0.0,0.0,0.0,0.0,0.0,0.0,0.0,0.0,0.0,0.0,0.0,0.0,0.0,0.0,0.0,0.0,0.0,0.0,0.0,0.0,0.0,0.0,0.0,0.0,0.0,0.0,0.0,0.0,0.0,0.0,0.0,0.0,0.0,0.0,0.0,0.0,0.0,0.0,0.0,0.0,0.0,0.0,0.0,0.0,0.0,0.0,0.0,0.0,0.0,0.0,0.0,0.0,0.0,0.0,0.0,0.0,0.0,0.0,0.0,0.0,0.0,0.0,0.0,0.0,0.0,0.0,0.0,0.0,0.0,0.0,0.0,0.0,0.0,0.0,0.0,0.0,0.0,0.0,0.0,0.0,0.0,0.0,0.0,0.0,0.0,0.0,0.0,0.0,0.0,0.0,0.0,0.0,0.0,0.0,0.0,0.0,0.0,0.0,0.0,0.0,0.0,0.0,0.0,0.0,0.0,0.0,0.0,0.0,0.0,0.0,0.0,0.0,0.0,0.0,0.0,0.0,0.0,0.0,0.0,0.0,0.0,0.0,0.0,0.0,0.0,0.0,0.0,0.0,0.0,0.0,0.0,0.0,0.0,0.0,0.0,0.0,0.0,0.0,0.0,0.0,0.0,0.0,0.0,0.0,0.0,0.0,0.0,0.0,0.0,0.0,0.0,0.0,0.0,0.0,0.0,0.0,0.0,0.0,0.0,0.0,0.0,0.0,0.0,0.0,0.0,0.0,0.0,0.0,0.0,0.0,0.0,0.0,0.0,0.0,-0.0868,0.0,0.0,0.0,0.0,0.0,0.0,0.0,0.0,0.0,0.0,0.0,0.0,0.0,0.0,0.0,0.0,0.0,0.0,0.0,0.0,0.0,0.0,0.0,0.0,0.0,0.0,0.0,0.0,0.0,0.0,0.0,0.0,0.0,0.0,0.0,0.0,0.0,0.0,0.0,0.0,0.0,0.0,0.0,0.0,0.0,0.0,0.0,0.0,0.0,0.0,0.0,0.0,0.0,0.0,0.0,0.0,0.0,0.0,0.0,0.0,0.0,0.0,0.0,0.0,0.0,0.0,0.0,0.0,0.0,0.0,0.0,0.0,0.0,0.0,0.0,0.0,0.0,0.0,0.0,0.0,0.0,0.0,0.0,0.0,0.0,0.0,0.0,0.0,0.0,0.0,0.0,0.0,0.0,0.0,0.0,0.0,0.0,0.0,0.0,0.0,0.0,0.0,0.0,0.0,0.0,0.0,0.0,0.0,0.0,0.0,-0.0897,-0.0897,-0.0897,-0.0897,-0.0868,0.0,0.0,0.0,0.0,0.0,0.0,0.0,0.0,0.0,0.0,0.0,0.0,0.0,0.0,0.0,0.0,0.0,0.0,0.0,0.0,0.0,0.0,0.0,0.0,0.0,0.0,0.0,0.0,0.0,0.0,0.0,0.0,0.0,0.0,0.0,0.0,0.0,0.0,0.0,0.0,0.0,0.0,0.0,0.0,0.0,0.0,0.0,0.0,0.0,0.0,0.0,0.0,0.0,0.0,0.0,0.0,0.0,0.0,0.0,0.0,0.0,0.0,0.0,0.0,0.0,0.0,0.0,0.0,0.0,0.0,0.0,0.0,0.0,0.0,0.0,0.0,0.0,0.0,0.0,0.0,0.0,0.0,0.0,0.0,0.0,0.0,0.0,0.0,0.0,0.0,0.0,0.0,0.0,0.0,0.0,0.0,0.0,0.0,0.0,0.0,0.0,0.0,0.0,0.0,0.0,0.0,0.0,0.0,0.0,0.0,0.0,0.0,-0.0897,-0.0869,-0.0784,0.0,0.0,0.0,0.0,0.0,0.0,0.0,0.0,0.0,0.0,0.0,0.0,0.0,0.0,0.0,0.0,0.0,0.0,0.0,0.0,0.0,0.0,0.0,0.0,0.0,0.0,0.0,0.0,0.0,0.0,0.0,0.0,0.0,0.0,0.0,0.0,0.0,0.0,0.0,0.0,0.0,0.0,0.0,0.0,0.0,0.0,0.0,0.0,0.0,0.0,0.0,0.0,0.0,0.0,0.0,0.0,0.0,0.0,0.0,0.0,0.0,0.0,0.0,0.0,0.0,0.0,0.0,0.0,0.0,0.0,0.0,0.0,0.0,0.0,0.0,0.0,0.0,0.0,0.0,0.0,0.0,0.0,0.0,0.0,0.0,0.0,0.0,0.0,0.0,0.0,0.0,0.0,0.0,0.0,0.0,0.0,0.0,0.0,0.0,0.0,0.0,0.0,0.0,0.0,0.0,0.0,0.0,0.0,0.0,0.0,-0.0897,-0.0897,-0.0897,0.0,-0.0475,0.0,0.0,0.0,0.0,0.0,0.0,0.0,0.0,0.0,0.0,0.0,0.0,0.0,0.0,0.0,0.0,0.0,0.0,0.0,0.0,0.0,0.0,0.0,0.0,0.0,0.0,0.0,0.0,0.0,0.0,0.0,0.0,0.0,0.0,0.0,0.0,0.0,0.0,0.0,0.0,0.0,0.0,0.0,0.0,0.0,0.0,0.0,0.0,0.0,0.0,0.0,0.0,0.0,0.0,0.0,0.0,0.0,0.0,0.0,0.0,0.0,0.0,0.0,0.0,0.0,0.0,0.0,0.0,0.0,0.0,0.0,0.0,0.0,0.0,0.0,0.0,0.0,0.0,0.0,0.0,0.0,0.0,0.0,0.0,0.0,0.0,0.0,0.0,0.0,0.0,0.0,0.0,0.0,0.0,0.0,0.0,0.0,0.0,0.0,0.0,0.0,0.0,0.0,0.0,0.0,0.0,0.0,0.0,0.0,0.0,-0.0897,-0.0897,-0.0897,-0.0778,0.0,0.0,0.0,0.0,0.0,0.0,0.0,0.0,0.0,0.0,0.0,0.0,0.0,0.0,0.0,0.0,0.0,0.0,0.0,0.0,0.0,0.0,0.0,0.0,0.0,0.0,0.0,0.0,0.0,0.0,0.0,0.0,0.0,0.0,0.0,0.0,0.0,0.0,0.0,0.0,0.0,0.0,0.0,0.0,0.0,0.0,0.0,0.0,0.0,0.0,0.0,0.0,0.0,0.0,0.0,0.0,0.0,0.0,0.0,0.0,0.0,0.0,0.0,0.0,0.0,0.0,0.0,0.0,0.0,0.0,0.0,0.0,0.0,0.0,0.0,0.0,0.0,0.0,0.0,0.0,0.0,0.0,0.0,0.0,0.0,0.0,0.0,0.0,0.0,0.0,0.0,0.0,0.0,0.0,0.0,0.0,0.0,0.0,0.0,0.0,0.0,0.0,0.0,0.0,0.0,0.0,0.0,0.0,0.0,0.0,-0.0897,-0.0897,-0.0897,-0.0897,-0.08,-0.0613,0.0,0.0,0.0,0.0,0.0,0.0,0.0,0.0,0.0,0.0,0.0,0.0,0.0,0.0,0.0,0.0,0.0,0.0,0.0,0.0,0.0,0.0,0.0,0.0,0.0,0.0,0.0,0.0,0.0,0.0,0.0,0.0,0.0,0.0,0.0,0.0,0.0,0.0,0.0,0.0,0.0,0.0,0.0,0.0,0.0,0.0,0.0,0.0,0.0,0.0,0.0,0.0,0.0,0.0,0.0,0.0,0.0,0.0,0.0,0.0,0.0,0.0,0.0,0.0,0.0,0.0,0.0,0.0,0.0,0.0,0.0,0.0,0.0,0.0,0.0,0.0,0.0,0.0,0.0,0.0,0.0,0.0,0.0,0.0,0.0,0.0,0.0,0.0,0.0,0.0,0.0,0.0,0.0,0.0,0.0,0.0,0.0,0.0,0.0,0.0,0.0,0.0,0.0,0.0,0.0,0.0,0.0,0.0,-0.0897,-0.0897,-0.0897,-0.0897,-0.0897,-0.08,0.0,0.0,0.0,0.0,0.0,0.0,0.0,0.0,0.0,0.0,0.0,0.0,0.0,0.0,0.0,0.0,0.0,0.0,0.0,0.0,0.0,0.0,0.0,0.0,0.0,0.0,0.0,0.0,0.0,0.0,0.0,0.0,0.0,0.0,0.0,0.0,0.0,0.0,0.0,0.0,0.0,0.0,0.0,0.0,0.0,0.0,0.0,0.0,0.0,0.0,0.0,0.0,0.0,0.0,0.0,0.0,0.0,0.0,0.0,0.0,0.0,0.0,0.0,0.0,0.0,0.0,0.0,0.0,0.0,0.0,0.0,0.0,0.0,0.0,0.0,0.0,0.0,0.0,0.0,0.0,0.0,0.0,0.0,0.0,0.0,0.0,0.0,0.0,0.0,0.0,0.0,0.0,0.0,0.0,0.0,0.0,0.0,0.0,0.0,0.0,0.0,0.0,0.0,0.0,0.0,0.0,0.0,0.0,0.0,-0.0897,-0.0897,-0.0897,-0.0897,-0.0897,-0.0847,0.0,0.0,0.0,0.0,0.0,0.0,0.0,0.0,0.0,0.0,0.0,0.0,0.0,0.0,0.0,0.0,0.0,0.0,0.0,0.0,0.0,0.0,0.0,0.0,0.0,0.0,0.0,0.0,0.0,0.0,0.0,0.0,0.0,0.0,0.0,0.0,0.0,0.0,0.0,0.0,0.0,0.0,0.0,0.0,0.0,0.0,0.0,0.0,0.0,0.0,0.0,0.0,0.0,0.0,0.0,0.0,0.0,0.0,0.0,0.0,0.0,0.0,0.0,0.0,0.0,0.0,0.0,0.0,0.0,0.0,0.0,0.0,0.0,0.0,0.0,0.0,0.0,0.0,0.0,0.0,0.0,0.0,0.0,0.0,0.0,0.0,0.0,0.0,0.0,0.0,0.0,0.0,0.0,0.0,0.0,0.0,0.0,0.0,0.0,0.0,0.0,0.0,0.0,0.0,0.0,0.0,0.0,0.0,0.0,-0.0841,0.0,-0.0785,0.0,-0.0841,-0.0815,0.0,0.0,0.0,0.0,0.0,0.0,0.0,0.0,0.0,0.0,0.0,0.0,0.0,0.0,0.0,0.0,0.0,0.0,0.0,0.0,0.0,0.0,0.0,0.0,0.0,0.0,0.0,0.0,0.0,0.0,0.0,0.0,0.0,0.0,0.0,0.0,0.0,0.0,0.0,0.0,0.0,0.0,0.0,0.0,0.0,0.0,0.0,0.0,0.0,0.0,0.0,0.0,0.0,0.0,0.0,0.0,0.0,0.0,0.0,0.0,0.0,0.0,0.0,0.0,0.0,0.0,0.0,0.0,0.0,0.0,0.0,0.0,0.0,0.0,0.0,0.0,0.0,0.0,0.0,0.0,0.0,0.0,0.0,0.0,0.0,0.0,0.0,0.0,0.0,0.0,0.0,0.0,0.0,0.0,0.0,0.0,0.0,0.0,0.0,0.0,0.0,0.0,0.0,0.0,0.0,0.0,0.0,0.0,-0.0813,-0.0701,-0.0505,-0.0505,-0.0673,-0.0701,-0.0733,0.0,0.0,0.0,0.0,0.0,0.0,0.0,0.0,0.0,0.0,0.0,0.0,0.0,0.0,0.0,0.0,0.0,0.0,0.0,0.0,0.0,0.0,0.0,0.0,0.0,0.0,0.0,0.0,0.0,0.0,0.0,0.0,0.0,0.0,0.0,0.0,0.0,0.0,0.0,0.0,0.0,0.0,0.0,0.0,0.0,0.0,0.0,0.0,0.0,0.0,0.0,0.0,0.0,0.0,0.0,0.0,0.0,0.0,0.0,0.0,0.0,0.0,0.0,0.0,0.0,0.0,0.0,0.0,0.0,0.0,0.0,0.0,0.0,0.0,0.0,0.0,0.0,0.0,0.0,0.0,0.0,0.0,0.0,0.0,0.0,0.0,0.0,0.0,0.0,0.0,0.0,0.0,0.0,0.0,0.0,0.0,0.0,0.0,0.0,0.0,0.0,0.0,0.0,0.0,0.0,0.0,0.0,0.0,0.0,-0.0701,-0.0505,-0.0421,-0.0505,-0.0645,-0.0678,0.0,0.0,0.0,0.0,0.0,0.0,0.0,0.0,0.0,0.0,0.0,0.0,0.0,0.0,0.0,0.0,0.0,0.0,0.0,0.0,0.0,0.0,0.0,0.0,0.0,0.0,0.0,0.0,0.0,0.0,0.0,0.0,0.0,0.0,0.0,0.0,0.0,0.0,0.0,0.0,0.0,0.0,0.0,0.0,0.0,0.0,0.0,0.0,0.0,0.0,0.0,0.0,0.0,0.0,0.0,0.0,0.0,0.0,0.0,0.0,0.0,0.0,0.0,0.0,0.0,0.0,0.0,0.0,0.0,0.0,0.0,0.0,0.0,0.0,0.0,0.0,0.0,0.0,0.0,0.0,0.0,0.0,0.0,0.0,0.0,0.0,0.0,0.0,0.0,0.0,0.0,0.0,0.0,0.0,0.0,0.0,0.0,0.0,0.0,0.0,0.0,0.0,0.0,0.0,0.0,0.0,0.0,0.0,0.0,-0.0421,-0.028,-0.0196,-0.0252,-0.0421,-0.0546,-0.062,0.0,0.0,0.0,0.0,0.0,0.0,0.0,0.0,0.0,0.0,0.0,0.0,0.0,0.0,0.0,0.0,0.0,0.0,0.0,0.0,0.0,0.0,0.0,0.0,0.0,0.0,0.0,0.0,0.0,0.0,0.0,0.0,0.0,0.0,0.0,0.0,0.0,0.0,0.0,0.0,0.0,0.0,0.0,0.0,0.0,0.0,0.0,0.0,0.0,0.0,0.0,0.0,0.0,0.0,0.0,0.0,0.0,0.0,0.0,0.0,0.0,0.0,0.0,0.0,0.0,0.0,0.0,0.0,0.0,0.0,0.0,0.0,0.0,0.0,0.0,0.0,0.0,0.0,0.0,0.0,0.0,0.0,0.0,0.0,0.0,0.0,0.0,0.0,0.0,0.0,0.0,0.0,0.0,0.0,0.0,0.0,0.0,0.0,0.0,0.0,0.0,0.0,0.0,0.0,0.0,0.0,0.0,0.0,0.0056,0.0196,0.0168,0.0028,-0.0112,-0.0303,0.0,0.0,0.0,0.0,0.0,0.0,0.0,0.0,0.0,0.0,0.0,0.0,0.0,0.0,0.0,0.0,0.0,0.0,0.0,0.0,0.0,0.0,0.0,0.0,0.0,0.0,0.0,0.0,0.0,0.0,0.0,0.0,0.0,0.0,0.0,0.0,0.0,0.0,0.0,0.0,0.0,0.0,0.0,0.0,0.0,0.0,0.0,0.0,0.0,0.0,0.0,0.0,0.0,0.0,0.0,0.0,0.0,0.0,0.0,0.0,0.0,0.0,0.0,0.0,0.0,0.0,0.0,0.0,0.0,0.0,0.0,0.0,0.0,0.0,0.0,0.0,0.0,0.0,0.0,0.0,0.0,0.0,0.0,0.0,0.0,0.0,0.0,0.0,0.0,0.0,0.0,0.0,0.0,0.0,0.0,0.0,0.0,0.0,0.0,0.0,0.0,0.0,0.0,0.0,0.0,0.0,0.0,0.0,0.0,0.0645,0.0785,0.0673,0.0308,0.0084,-0.0138,0.0,0.0,0.0,0.0,0.0,0.0,0.0,0.0,0.0,0.0,0.0,0.0,0.0,0.0,0.0,0.0,0.0,0.0,0.0,0.0,0.0,0.0,0.0,0.0,0.0,0.0,0.0,0.0,0.0,0.0,0.0,0.0,0.0,0.0,0.0,0.0,0.0,0.0,0.0,0.0,0.0,0.0,0.0,0.0,0.0,0.0,0.0,0.0,0.0,0.0,0.0,0.0,0.0,0.0,0.0,0.0,0.0,0.0,0.0,0.0,0.0,0.0,0.0,0.0,0.0,0.0,0.0,0.0,0.0,0.0,0.0,0.0,0.0,0.0,0.0,0.0,0.0,0.0,0.0,0.0,0.0,0.0,0.0,0.0,0.0,0.0,0.0,0.0,0.0,0.0,0.0,0.0,0.0,0.0,0.0,0.0,0.0,0.0,0.0,0.0,0.0,0.0,0.0,0.0,0.0,0.0,0.0,0.0,0.0477,0.0897,0.1094,0.1066,0.0785,0.0393,0.0056,0.0,0.0,0.0,0.0,0.0,0.0,0.0,0.0,0.0,0.0,0.0,0.0,0.0,0.0,0.0,0.0,0.0,0.0,0.0,0.0,0.0,0.0,0.0,0.0,0.0,0.0,0.0,0.0,0.0,0.0,0.0,0.0,0.0,0.0,0.0,0.0,0.0,0.0,0.0,0.0,0.0,0.0,0.0,0.0,0.0,0.0,0.0,0.0,0.0,0.0,0.0,0.0,0.0,0.0,0.0,0.0,0.0,0.0,0.0,0.0,0.0,0.0,0.0,0.0,0.0,0.0,0.0,0.0,0.0,0.0,0.0,0.0,0.0,0.0,0.0,0.0,0.0,0.0,0.0,0.0,0.0,0.0,0.0,0.0,0.0,0.0,0.0,0.0,0.0,0.0,0.0,0.0,0.0,0.0,0.0,0.0,0.0,0.0,0.0,0.0,0.0,0.0,0.0,0.0,0.0,0.0,0.0,0.0,0.0645,0.0982,0.1234,0.1375,0.1346,0.0757,0.028,0.0,0.0,0.0,0.0,0.0,0.0,0.0,0.0,0.0,0.0,0.0,0.0,0.0,0.0,0.0,0.0,0.0,0.0,0.0,0.0,0.0,0.0,0.0,0.0,0.0,0.0,0.0,0.0,0.0,0.0,0.0,0.0,0.0,0.0,0.0,0.0,0.0,0.0,0.0,0.0,0.0,0.0,0.0,0.0,0.0,0.0,0.0,0.0,0.0,0.0,0.0,0.0,0.0,0.0,0.0,0.0,0.0,0.0,0.0,0.0,0.0,0.0,0.0,0.0,0.0,0.0,0.0,0.0,0.0,0.0,0.0,0.0,0.0,0.0,0.0,0.0,0.0,0.0,0.0,0.0,0.0,0.0,0.0,0.0,0.0,0.0,0.0,0.0,0.0,0.0,0.0,0.0,0.0,0.0,0.0,0.0,0.0,0.0,0.0,0.0,0.0,0.0,0.0,0.0,0.0,0.0,0.0,0.0,0.115,0.16,0.1765,0.1793,0.1713,0.1122,0.0617,0.0,0.0,0.0,0.0,0.0,0.0,0.0,0.0,0.0,0.0,0.0,0.0,0.0,0.0,0.0,0.0,0.0,0.0,0.0,0.0,0.0,0.0,0.0,0.0,0.0,0.0,0.0,0.0,0.0,0.0,0.0,0.0,0.0,0.0,0.0,0.0,0.0,0.0,0.0,0.0,0.0,0.0,0.0,0.0,0.0,0.0,0.0,0.0,-0.1367,0.0,0.0,0.0,0.0,0.0,0.0,0.0,0.0,0.0,0.0,0.0,0.0,0.0,0.0,0.0,0.0,0.0,0.0,0.0,0.0,0.0,0.0,0.0,0.0,0.0,0.0,0.0,0.0,0.0,0.0,0.0,0.0,0.0,0.0,0.0,0.0,0.0,0.0,0.0,0.0,0.0,0.0,0.0,0.0,0.0,0.0,0.0,0.0,0.0,0.0,0.0,0.0,0.0,0.0,0.0,0.0,0.0,0.0,0.0,0.1375,0.1769,0.199,0.2045,0.199,0.1542,0.1038,0.0,0.0,0.0,0.0,0.0,0.0,0.0,0.0,0.0,0.0,0.0,0.0,0.0,0.0,0.0,0.0,0.0,0.0,0.0,0.0,0.0,0.0,0.0,0.0,0.0,0.0,0.0,0.0,0.0,0.0,0.0,0.0,0.0,0.0,0.0,0.0,0.0,0.0,0.0,0.0,0.0,0.0,0.0,0.0,0.0,0.0,0.0,0.0,0.0,0.0,0.0,0.0,0.0,0.0,0.0,0.0,0.0,0.0,0.0,0.0,0.0,0.0,0.0,0.0,0.0,0.0,0.0,0.0,0.0,0.0,0.0,0.0,0.0,0.0,0.0,0.0,0.0,0.0,0.0,0.0,0.0,0.0,0.0,0.0,0.0,0.0,0.0,0.0,0.0,0.0,0.0,0.0,0.0,0.0,0.0,0.0,0.0,0.0,0.0,0.0,0.0,0.0,0.0,0.0,0.0,0.0,0.0,0.1066,0.1515,0.1852,0.2102,0.224,0.224,0.1964,0.1403,0.056,0.0,0.0,0.0,0.0,0.0,0.0,0.0,0.0,0.0,0.0,0.0,0.0,0.0,0.0,0.0,0.0,0.0,0.0,0.0,0.0,0.0,0.0,0.0,0.0,0.0,0.0,0.0,0.0,0.0,0.0,0.0,0.0,0.0,0.0,0.0,0.0,0.0,0.0,-0.1098,-0.1109,0.0,0.0,0.0,0.0,0.0,0.0,0.0,0.0,-0.1411,0.0,0.0,0.0,0.0,0.0,0.0,0.0,0.0,0.0,0.0,0.0,0.0,0.0,0.0,0.0,0.0,0.0,0.0,0.0,0.0,0.0,0.0,0.0,0.0,0.0,0.0,0.0,0.0,0.0,0.0,0.0,0.0,0.0,0.0,0.0,0.0,0.0,0.0,0.0,0.0,0.0,0.0,0.0,0.0,0.0,0.0,0.0,0.0,0.0,0.0,0.0,0.0,0.0,0.0,0.0,0.0,0.084,0.1318,0.1738,0.2128,0.2352,0.2465,0.2437,0.2128,0.1653,0.1008,0.0,0.0,0.0,0.0,0.0,0.0,0.0,0.0,0.0,0.0,0.0,0.0,0.0,0.0,0.0,0.0,0.0,0.0,0.0,0.0,0.0,0.0,0.0,0.0,0.0,0.0,0.0,0.0,0.0,0.0,0.0,0.0,0.0,0.0,0.0,0.0,0.0,0.0,0.0,-0.1131,-0.1142,0.0,0.0,0.0,0.0,0.0,0.0,0.0,0.0,-0.1457,0.0,0.0,0.0,0.0,0.0,0.0,0.0,0.0,0.0,0.0,0.0,0.0,0.0,0.0,0.0,0.0,0.0,0.0,0.0,0.0,0.0,0.0,0.0,0.0,0.0,0.0,0.0,0.0,0.0,0.0,0.0,0.0,0.0,0.0,0.0,0.0,0.0,0.0,0.0,0.0,0.0,0.0,0.0,0.0,0.0,0.0,0.0,0.0,0.0,0.0,0.0,0.0,0.0,0.0,0.0,0.1118,0.157,0.1989,0.2352,0.2521,0.2607,0.2607,0.2268,0.1875,0.0,0.0,0.0,0.0,0.0,0.0,0.0,0.0,0.0,0.0,0.0,0.0,0.0,0.0,0.0,0.0,0.0,0.0,0.0,0.0,0.0,0.0,0.0,0.0,0.0,0.0,0.0,0.0,0.0,0.0,0.0,0.0,0.0,0.0,0.0,0.0,0.0,0.0,0.0,0.0,-0.1049,-0.1032,-0.1076,0.0,0.0,0.0,0.0,0.0,0.0,-0.1366,-0.1389,0.0,0.0,0.0,0.0,0.0,0.0,0.0,0.0,0.0,0.0,0.0,0.0,0.0,0.0,0.0,0.0,0.0,0.0,0.0,0.0,0.0,0.0,0.0,0.0,0.0,0.0,0.0,0.0,0.0,0.0,0.0,0.0,0.0,0.0,0.0,0.0,0.0,0.0,0.0,0.0,0.0,0.0,0.0,0.0,0.0,0.0,0.0,0.0,0.0,0.0,0.0,0.0,0.0,0.0,0.0,0.1287,0.1765,0.2156,0.2493,0.2635,0.2691,0.2691,0.2391,0.2027,0.0,0.0,0.0,0.0,0.0,0.0,0.0,0.0,0.0,0.0,0.0,0.0,0.0,0.0,0.0,0.0,0.0,0.0,0.0,0.0,0.0,0.0,0.0,0.0,0.0,0.0,0.0,0.0,0.0,0.0,0.0,0.0,0.0,0.0,0.0,0.0,0.0,0.0,0.0,0.0,0.0,-0.0877,-0.09,-0.0987,0.0,0.0,0.0,0.0,-0.1321,-0.1321,0.0,0.0,0.0,0.0,0.0,0.0,0.0,0.0,0.0,0.0,0.0,0.0,0.0,0.0,0.0,0.0,0.0,0.0,0.0,0.0,0.0,0.0,0.0,0.0,0.0,0.0,0.0,0.0,0.0,0.0,0.0,0.0,0.0,0.0,0.0,0.0,0.0,0.0,0.0,0.0,0.0,0.0,0.0,0.0,0.0,0.0,0.0,0.0,0.0,0.0,0.0,0.0,0.0,0.0,0.0,0.0,0.1316,0.1765,0.2156,0.2465,0.2635,0.2691,0.2691,0.2365,0.2006,0.0,0.0,0.0,0.0,0.0,0.0,0.0,0.0,0.0,0.0,0.0,0.0,0.0,0.0,0.0,0.0,0.0,0.0,0.0,0.0,0.0,0.0,0.0,0.0,0.0,0.0,0.0,0.0,0.0,0.0,0.0,0.0,0.0,0.0,0.0,0.0,0.0,0.0,0.0,0.0,0.0,-0.0877,-0.0877,-0.0922,-0.0965,0.0,0.0,0.0,-0.1142,-0.1232,0.0,0.0,0.0,0.0,0.0,0.0,0.0,0.0,0.0,0.0,0.0,0.0,0.0,0.0,0.0,0.0,0.0,0.0,0.0,0.0,0.0,0.0,0.0,0.0,0.0,0.0,0.0,0.0,0.0,0.0,0.0,0.0,0.0,0.0,0.0,0.0,0.0,0.0,0.0,0.0,0.0,0.0,0.0,0.0,0.0,0.0,0.0,0.0,0.0,0.0,0.0,0.0,0.0,0.0,0.0,0.1191,0.1679,0.2073,0.241,0.2691,0.2777,0.2807,0.2751,0.2439,0.2115,0.0,0.0,0.0,0.0,0.0,0.0,0.0,0.0,0.0,0.0,0.0,0.0,0.0,0.0,0.0,0.0,0.0,0.0,0.0,0.0,0.0,0.0,0.0,0.0,0.0,0.0,0.0,0.0,0.0,0.0,0.0,0.0,0.0,0.0,0.0,0.0,0.0,0.0,0.0,0.0,0.0,0.0,-0.0697,-0.0674,0.0,0.0,0.0,-0.0875,-0.0985,0.0,0.0,0.0,0.0,0.0,0.0,0.0,0.0,0.0,0.0,0.0,0.0,0.0,0.0,0.0,0.0,0.0,0.0,0.0,0.0,0.0,0.0,0.0,0.0,0.0,0.0,0.0,0.0,0.0,0.0,0.0,0.0,0.0,0.0,0.0,0.0,0.0,0.0,0.0,0.0,0.0,0.0,0.0,0.0,0.0,0.0,0.0,0.0,0.0,0.0,0.0,0.0,0.0,0.0,0.0,0.0,0.0,0.2041,0.2382,0.2663,0.2942,0.2942,0.2925,0.2852,0.2534,0.0,0.0,0.0,0.0,0.0,0.0,0.0,0.0,0.0,0.0,0.0,0.0,0.0,0.0,0.0,0.0,0.0,0.0,0.0,0.0,0.0,0.0,0.0,0.0,0.0,0.0,0.0,-0.0235,0.0,0.0,0.0,0.0,0.0,0.0,0.0,0.0,0.0,0.0,0.0,0.0,0.0,0.0,-0.0762,-0.0539,-0.0494,-0.0494,0.0,0.0,-0.0674,-0.0784,-0.0919,-0.1098,0.0,0.0,0.0,0.0,0.0,0.0,0.0,0.0,0.0,0.0,0.0,0.0,0.0,0.0,0.0,0.0,0.0,0.0,0.0,0.0,0.0,0.0,0.0,0.0,0.0,0.0,0.0,0.0,0.0,0.0,0.0,0.0,0.0,0.0,0.0,0.0,0.0,0.0,0.0,0.0,0.0,0.0,0.0,0.0,0.0,0.0,0.0,0.0,0.0,0.0,0.0,0.0,0.0,0.0,0.0,0.2156,0.2521,0.2828,0.3077,0.3105,0.3057,0.2985,0.2654,0.2327,0.0,0.0,0.0,0.0,0.0,0.0,0.0,0.0,0.0,0.0,0.0,0.0,0.0,0.0,0.0,0.0,0.0,0.0,0.0,0.0,0.0,0.0,0.0,0.0,0.0,0.0,0.0,0.0,0.0,0.0,0.0,0.0,0.0,0.0,0.0,0.0,0.0,0.0,0.0,0.0,0.0,-0.0674,-0.0517,-0.045,-0.0405,0.0,0.0,-0.045,-0.0517,-0.0629,-0.0876,-0.1254,0.0,0.0,0.0,0.0,0.0,0.0,0.0,0.0,0.0,0.0,0.0,0.0,0.0,0.0,0.0,0.0,0.0,0.0,0.0,0.0,0.0,0.0,0.0,0.0,0.0,0.0,0.0,0.0,0.0,0.0,0.0,0.0,0.0,0.0,0.0,0.0,0.0,0.0,0.0,0.0,0.0,0.0,0.0,0.0,0.0,0.0,0.0,0.0,0.0,0.0,0.0,0.0,0.0,0.1989,0.2493,0.2912,0.3218,0.3413,0.3427,0.3335,0.3192,0.2854,0.2554,0.0,0.0,0.0,0.0,0.0,0.0,0.0,0.0,0.0,0.0,0.0,0.0,0.0,0.0,0.0,0.0,0.0,0.0,0.0,0.0,0.0,0.0,0.0,0.0,0.0,0.0,0.0,0.0,-0.036,-0.0427,-0.0562,0.0,0.0,0.0,0.0,0.0,0.0,0.0,0.0,0.0,0.0,-0.0517,-0.0337,-0.0225,0.0,0.0,-0.0292,-0.0405,-0.0427,-0.0652,-0.0898,-0.1142,-0.1344,0.0,0.0,0.0,0.0,0.0,0.0,0.0,0.0,0.0,0.0,0.0,0.0,0.0,0.0,0.0,0.0,0.0,0.0,0.0,0.0,0.0,0.0,0.0,0.0,0.0,0.0,0.0,0.0,0.0,0.0,0.0,0.0,0.0,0.0,0.0,0.0,0.0,0.0,0.0,0.0,0.0,0.0,0.0,0.0,0.0,0.0,0.0,0.0,0.0,0.0,0.0,0.0,0.238,0.28,0.3246,0.3552,0.3722,0.3678,0.358,0.3399,0.3083,0.2814,0.0,0.0,0.0,0.0,0.0,0.0,0.0,0.0,0.0,0.0,0.0,0.0,0.0,0.0,0.0,0.0,0.0,0.0,0.0,0.0,0.0,0.0,0.0,0.0,0.0,0.0,0.0,0.0,-0.0435,-0.0526,-0.0711,0.0,0.0,0.0,0.0,0.0,0.0,0.0,0.0,0.0,0.0,-0.036,-0.0202,-0.009,0.0,-0.0067,-0.0225,-0.036,-0.0427,-0.0629,-0.0853,-0.1009,0.0,0.0,0.0,0.0,0.0,0.0,0.0,0.0,0.0,0.0,0.0,0.0,0.0,0.0,0.0,0.0,0.0,0.0,0.0,0.0,0.0,0.0,0.0,0.0,0.0,0.0,0.0,0.0,0.0,0.0,0.0,0.0,0.0,0.0,0.0,0.0,0.0,0.0,0.0,0.0,0.0,0.0,0.0,0.0,0.0,0.0,0.0,0.0,0.0,0.0,0.0,0.0,0.0,0.0,0.3077,0.3441,0.3747,0.3993,0.3863,0.3729,0.3602,0.3321,0.308,0.2879,0.0,0.0,0.0,0.0,0.0,0.0,0.0,0.0,0.0,0.0,0.0,0.0,0.0,0.0,0.0,0.0,0.0,0.0,0.0,0.0,0.0,0.0,0.0,0.0,0.0,0.0,-0.0406,-0.0501,-0.0645,0.0,0.0,0.0,0.0,0.0,0.0,0.0,0.0,0.0,0.0,-0.0337,-0.0225,-0.0202,-0.009,-0.0067,-0.018,-0.0225,-0.027,-0.0472,-0.0517,-0.0607,0.0,0.0,0.0,0.0,0.0,0.0,0.0,0.0,0.0,0.0,0.0,0.0,0.0,0.0,0.0,0.0,0.0,0.0,0.0,0.0,0.0,0.0,0.0,0.0,0.0,0.0,0.0,0.0,0.6929,0.0,0.0,0.0,0.0,0.0,0.0,0.0,0.0,0.0,0.0,0.0,0.6517,0.6408,0.0,0.0,0.0,0.0,0.0,0.0,0.0,0.0,0.0,0.0,0.0,0.0,0.3244,0.3574,0.3993,0.4273,0.4463,0.4428,0.4271,0.4019,0.3822,0.3543,0.3112,0.0,0.0,0.0,0.0,0.0,0.0,0.0,0.0,0.0,0.0,0.0,0.0,0.0,0.0,0.0,0.0,0.0,0.0,0.0,0.0,0.0,0.0,0.0,0.0,0.0,-0.0248,0.0,0.0,0.0,0.0,0.0,0.0,0.0,0.0,0.0,0.0,0.0,-0.045,-0.0315,-0.0247,-0.018,-0.009,-0.0112,-0.0157,0.0,0.0,0.0,0.0,0.0,0.0,0.0,0.0,0.0,0.0,0.0,0.0,0.0,0.0,-0.1971,-0.1971,-0.2018,-0.2064,-0.2064,0.0,0.0,0.0,0.0,0.0,0.0,0.0,0.0,0.0,0.0,0.0,0.0,0.0,0.0,0.0,0.0,0.7706,0.0,0.0,0.0,0.0,0.0,0.0,0.0,0.0,0.752,0.7516,0.7411,0.7236,0.6942,0.0,0.6263,0.5664,0.0,0.0,0.0,0.0,0.0,0.0,0.0,0.0,0.3719,0.3938,0.4353,0.4632,0.4763,0.4725,0.4558,0.4264,0.4082,0.3787,0.3372,0.332,0.322,0.0,0.0,0.0,0.0,0.0,0.0,0.0,0.0,0.0,0.0,0.0,0.0,0.0,0.0,0.0,0.0,0.0,0.0,0.0,0.0,0.0,0.0,0.0,-0.0154,0.0,0.0,0.0,0.0,0.0,0.0,0.0,0.0,0.0,-0.0466,-0.0377,-0.0274,-0.0135,-0.0112,-0.0112,-0.0067,0.0,0.0,0.0,0.0,0.0,0.0,0.0,-0.0742,-0.081,-0.0877,-0.101,-0.1321,-0.1502,-0.1636,-0.1658,0.0,0.0,-0.1794,-0.1861,-0.1953,-0.1975,-0.2064,-0.2221,-0.2462,-0.2504,-0.2615,0.0,0.0,0.0,0.0,0.0,0.0,0.0,0.0,0.9125,0.8926,0.0,0.8303,0.0,0.0,0.0,0.0,0.0,0.0,0.0,0.0,0.8681,0.867,0.8427,0.814,0.7805,0.7344,0.6912,0.6505,0.6014,0.516,0.0,0.0,0.0,0.0,0.0,0.0,0.4079,0.4249,0.4553,0.4798,0.4924,0.4805,0.4643,0.4437,0.4107,0.3843,0.3726,0.37,0.3621,0.3422,0.3338,0.0,0.0,0.0,0.0,0.0,0.0,0.0,0.0,0.0,0.0,0.0,0.0,0.0,0.0,0.0,0.0,0.0,0.0,0.0,0.0,0.0027,0.0,0.0,0.0,0.0,0.0,0.0,0.0,0.0,0.0,0.0,-0.0178,-0.0195,-0.0141,-0.0023,0.0,0.0,0.0,0.0,-0.027,-0.045,-0.0494,-0.0539,-0.0674,-0.0697,-0.0674,-0.0697,0.0,0.0,-0.1232,-0.1299,-0.1344,-0.1389,-0.1412,-0.1479,-0.1749,-0.1772,-0.1839,-0.1953,-0.1997,-0.2131,-0.2415,-0.2526,-0.2615,1.1563,0.0,0.0,0.0,0.0,1.0301,1.0255,1.0177,1.0146,1.0007,0.9805,0.9556,0.0,0.0,0.0,0.0,0.0,0.0,0.8987,0.912,0.9149,0.9105,0.9029,0.8827,0.8582,0.8361,0.7728,0.7259,0.6913,0.6133,0.5399,0.4649,0.0,0.0,0.0,0.0,0.4605,0.4853,0.5022,0.5211,0.5395,0.535,0.5147,0.4688,0.4447,0.4229,0.4002,0.3973,0.3895,0.3768,0.3568,0.0,0.0,0.0,0.0,0.0,0.0,0.0,0.0,0.0,0.0,0.0,0.0,0.0,0.0,0.0,0.0,0.0,0.0,0.0,0.0607,0.0636,0.0553,0.0,0.0,0.0,0.0,0.0,0.0,0.0,0.0,0.0,0.0079,0.0,-0.0048,0.0,0.0,0.0,-0.0045,-0.0225,-0.036,-0.0427,0.0,0.0,0.0,-0.0539,-0.0517,-0.0539,-0.0742,-0.0966,-0.112,-0.1232,-0.1321,-0.1389,-0.1411,-0.1435,-0.1502,-0.1614,-0.1705,-0.1839,-0.1997,-0.2199,-0.244,-0.2571,-0.2729,1.2784,1.198,1.156,1.1404,1.1397,1.1397,1.1328,1.1184,1.112,1.0923,1.0681,1.0428,1.0295,1.0186,0.9849,0.0,0.0,0.0,0.9755,0.9873,0.9949,0.993,0.9735,0.9551,0.9257,0.8851,0.8381,0.7931,0.7499,0.7043,0.6469,0.5775,0.0,0.0,0.4814,0.4987,0.5128,0.5293,0.5434,0.5576,0.5677,0.5604,0.5396,0.5098,0.4913,0.4681,0.4443,0.4412,0.4289,0.407,0.3904,0.3765,0.0,0.0,0.0,0.0,0.0,0.0,0.0,0.0,0.0,0.0,0.0,0.079,0.0,0.0,0.0,0.0,0.0637,0.0785,0.1038,0.101,0.0,0.0,0.0,0.0,0.0,0.0,0.0,0.0393,0.0336,0.0278,0.0272,0.0181,0.005,0.0,0.0,-0.0023,-0.0069,0.0,-0.036,-0.0405,-0.0427,-0.045,-0.0472,-0.0427,-0.0427,-0.0472,-0.0697,-0.0876,-0.1075,-0.1187,-0.1254,-0.1366,-0.1411,-0.1411,-0.1411,-0.1457,-0.1591,-0.1749,-0.193,-0.2129,-0.2437,-0.2571,-0.2726,1.3776,1.3468,1.2953,1.2713,1.2635,1.2635,1.2465,1.2152,1.1982,1.1718,1.142,1.1097,1.0907,1.0876,1.0531,0.0,0.0,1.0504,1.0624,1.0656,1.0972,1.0881,1.0464,1.0312,0.9863,0.913,0.8935,0.854,0.7947,0.783,0.7598,0.7136,0.6209,0.5633,0.5436,0.5582,0.5656,0.5671,0.579,0.584,0.5818,0.5642,0.5514,0.5492,0.5371,0.5209,0.4928,0.4902,0.4714,0.4379,0.4324,0.4198,0.3966,0.0,0.0,0.0,0.0,0.0,0.0,0.0,0.0,0.0,0.0,0.0,0.0,0.0,0.0,0.0,0.1094,0.0,0.1375,0.1262,0.0,0.0,0.0,0.0954,0.0954,0.0813,0.0757,0.0729,0.0,0.0,0.0,0.0,0.0185,0.0026,0.0,-0.0048,-0.0167,-0.0184,-0.0247,-0.036,-0.036,-0.036,-0.0382,-0.0382,-0.0427,-0.0472,-0.0607,-0.0808,-0.1031,-0.1098,-0.1187,-0.1344,-0.1411,-0.1411,-0.1411,-0.1411,-0.1479,-0.1749,-0.1839,-0.1971,-0.2393,-0.2526,-0.2637,1.4403,1.4297,1.4183,1.3677,1.2987,1.2972,1.2934,1.2858,1.2792,1.2746,1.263,1.234,1.2,1.1712,1.135,1.1182,1.1135,1.1044,1.0972,1.1003,1.1059,1.1055,1.0923,1.076,1.0508,1.021,0.9566,0.9126,0.8853,0.8157,0.7741,0.7617,0.7184,0.6754,0.6373,0.626,0.6189,0.6128,0.6157,0.6113,0.5955,0.5828,0.565,0.5501,0.5474,0.5384,0.5209,0.4991,0.4848,0.4754,0.4574,0.4429,0.4353,0.4143,0.0,0.0,0.0,0.0,0.0,0.0,0.0,0.0,0.0,0.1737,0.1624,0.0,0.1596,0.0,0.1708,0.1847,0.1961,0.1877,0.0,0.0,0.157,0.1431,0.1431,0.129,0.1122,0.101,0.0954,0.0841,0.0645,0.0585,0.047,0.0191,0.0076,0.0,-0.0048,-0.0139,-0.0225,-0.0225,-0.0247,-0.0247,-0.027,-0.0337,-0.0405,-0.0427,-0.0584,-0.0787,-0.1053,-0.1098,-0.1165,-0.1366,-0.1411,-0.1411,-0.1411,-0.1411,-0.1502,-0.1749,-0.1861,-0.2062,-0.244,-0.2571,-0.2707,1.5017,1.4964,1.4704,1.4277,1.3766,1.3758,1.3673,1.3533,1.3499,1.3387,1.3215,1.2837,1.2526,1.2207,1.1968,1.1857,1.1843,1.1713,1.1635,1.1635,1.1693,1.1621,1.1397,1.1198,1.0937,1.0586,1.0076,0.965,0.9301,0.8823,0.8477,0.8323,0.802,0.7778,0.7489,0.7062,0.6824,0.6793,0.6611,0.6403,0.6096,0.6009,0.5932,0.5819,0.5814,0.574,0.556,0.5401,0.5282,0.512,0.4994,0.4887,0.4853,0.4662,0.4488,0.0,0.0,0.0,0.0,0.0,0.0,0.0,0.0,0.0,0.0,0.0,0.2071,0.0,0.2043,0.0,0.2184,0.2128,0.2099,0.2071,0.1961,0.185,0.1794,0.1626,0.1459,0.1346,0.1178,0.1038,0.0897,0.0757,0.0589,0.0336,0.0158,0.0075,0.0024,-0.0071,-0.0115,-0.0113,-0.0112,-0.0112,-0.0112,-0.027,-0.0405,-0.0405,-0.0562,-0.0787,-0.1053,-0.1098,-0.1165,-0.1344,-0.1411,-0.1411,-0.1411,-0.1411,-0.1479,-0.1658,-0.1817,-0.204,-0.2415,-0.2571,-0.2682,1.5601,1.5494,1.4956,1.4704,1.4668,1.4629,1.4431,1.4145,1.4041,1.3815,1.3481,1.3101,1.2821,1.2609,1.247,1.2387,1.2414,1.2337,1.2323,1.2323,1.2458,1.2272,1.1905,1.1676,1.1339,1.0803,1.0507,1.0155,0.9695,0.9568,0.9358,0.9043,0.8732,0.8582,0.8528,0.7907,0.7541,0.742,0.7026,0.667,0.6334,0.6269,0.6255,0.6255,0.6255,0.6196,0.601,0.5972,0.5826,0.5548,0.549,0.5437,0.539,0.5225,0.5088,0.0,0.4531,0.0,0.0,0.0,0.0,0.0,0.0,0.0,0.0,0.2551,0.2465,0.2324,0.2268,0.2268,0.2268,0.2268,0.2268,0.2268,0.224,0.2184,0.2071,0.1934,0.1769,0.1628,0.1318,0.1122,0.1094,0.0869,0.0645,0.0448,0.03,0.0158,0.0,0.0,0.0,0.0,0.0,0.0,0.0,-0.0225,-0.0382,-0.0405,-0.0539,-0.0763,-0.1032,-0.1074,-0.1142,-0.1321,-0.1389,-0.1389,-0.1389,-0.1389,-0.1435,-0.1547,-0.1682,-0.1904,-0.2326,-0.2482,-0.2593,1.6073,1.5859,1.5473,1.5217,1.5062,1.4732,1.4565,1.451,1.4466,1.4284,1.3981,1.3874,1.3667,1.3287,1.2996,1.2879,1.2837,1.2575,1.2451,1.2451,1.2485,1.2463,1.2371,1.2229,1.21,1.1928,1.122,1.081,1.0706,0.9885,0.9454,0.939,0.9075,0.8894,0.0,0.0,0.0,0.0,0.7198,0.6919,0.6846,0.6694,0.6598,0.6598,0.6593,0.0,0.6528,0.6336,0.6201,0.6126,0.5888,0.0,0.0,0.0,0.0,0.0,0.0,0.0,0.0,0.0,0.0,0.0,0.3602,0.3408,0.3021,0.2886,0.2805,0.2749,0.2663,0.2607,0.2607,0.2607,0.2607,0.2607,0.2493,0.2437,0.241,0.2156,0.1905,0.1769,0.1459,0.1234,0.1122,0.0954,0.0729,0.0448,0.039,0.0274,0.0026,0.0,0.0,0.0,0.0,0.0,0.0,0.0,-0.0292,-0.0382,-0.0472,-0.0652,-0.0898,-0.1031,-0.1142,-0.1299,-0.1321,-0.1321,-0.1299,-0.1321,-0.1344,-0.1435,-0.1547,-0.1772,-0.2176,-0.2375,-0.2549,1.6682,0.0,1.5989,1.5691,0.0,1.5099,1.4874,1.4903,1.4684,1.4461,1.4245,1.4129,1.392,1.3637,1.3359,1.3243,1.3243,1.3075,1.3001,1.3001,1.3001,1.2921,1.2726,1.2629,1.244,1.2282,1.1755,1.141,1.1229,1.0548,1.0179,0.999,0.9494,0.9268,0.9236,0.9022,0.8547,0.7783,0.7557,0.7307,0.7001,0.6908,0.6791,0.6712,0.0,0.0,0.0,0.0,0.0,0.0,0.0,0.0,0.0,0.0,0.0,0.5727,0.5321,0.5014,0.4822,0.4519,0.4245,0.4021,0.3879,0.363,0.3274,0.3107,0.297,0.2888,0.2833,0.2777,0.2719,0.2691,0.2691,0.2691,0.2635,0.2579,0.2493,0.224,0.2071,0.1906,0.1626,0.1403,0.1206,0.1094,0.0897,0.0589,0.0477,0.0332,0.0134,0.0051,0.0,0.0,0.0,0.0,0.0,-0.0112,-0.0225,-0.036,-0.045,-0.0607,-0.0855,-0.0943,-0.1032,-0.1187,-0.121,-0.1187,-0.1187,-0.1187,-0.1232,-0.1321,-0.1435,-0.1591,-0.1953,-0.2196,-0.244,1.735,1.7229,1.6519,1.6171,1.6061,1.5533,1.5274,1.5157,0.0,0.0,0.0,1.4165,1.4,1.379,1.3608,1.3492,1.3492,1.3492,1.3492,1.3492,1.3492,1.3353,1.3097,1.299,1.2782,1.2495,1.2259,1.1991,1.1737,1.1317,1.0943,1.0553,1.003,0.963,0.9486,0.9242,0.8787,0.8132,0.8022,0.7704,0.7153,0.7102,0.6969,0.6761,0.6756,0.6783,0.6783,0.6783,0.6783,0.6756,0.6756,0.6734,0.6734,0.644,0.626,0.6178,0.5736,0.538,0.5156,0.4794,0.4467,0.4221,0.3965,0.3688,0.3444,0.3246,0.3105,0.2998,0.2944,0.286,0.2749,0.2691,0.2691,0.2691,0.2691,0.2663,0.2549,0.2354,0.2212,0.2043,0.1794,0.1543,0.1318,0.1178,0.101,0.0757,0.0561,0.0388,0.0241,0.0103,0.0,0.0,0.0,0.0,0.0,-0.0067,-0.0202,-0.0315,-0.0405,-0.0562,-0.0764,-0.0855,-0.0944,-0.1054,-0.1053,-0.1075,-0.1075,-0.1075,-0.1098,-0.121,-0.1299,-0.1457,-0.1682,-0.1953,-0.2243,1.7794,1.7599,1.7206,1.682,1.6394,1.6039,1.5602,1.5157,1.4764,1.4533,1.4389,1.4201,1.3992,1.379,1.3572,1.3492,1.3492,1.3492,1.3492,0.0,1.3492,1.347,1.3426,1.3426,1.3368,1.3302,1.2905,1.2663,1.2564,1.1971,1.1424,1.0989,1.0725,1.0249,0.9574,0.9454,0.9218,0.8832,0.8515,0.8118,0.7699,0.7472,0.7254,0.7041,0.7058,0.7058,0.7058,0.7058,0.7031,0.7058,0.6928,0.6879,0.6852,0.6707,0.6522,0.6228,0.6123,0.5845,0.5325,0.5128,0.4767,0.4249,0.3965,0.3744,0.3585,0.3444,0.3357,0.3332,0.3081,0.2888,0.286,0.2777,0.2691,0.2691,0.2691,0.2691,0.2663,0.2521,0.2382,0.2184,0.1934,0.1628,0.1375,0.1206,0.101,0.0785,0.0673,0.0582,0.0374,0.0151,0.0,0.0,0.0,0.0,0.0,0.0,0.0,-0.0202,-0.0315,-0.045,-0.0562,-0.0742,-0.0877,-0.0921,-0.0921,-0.0921,-0.0921,-0.0944,-0.0944,-0.0989,-0.1166,-0.1344,-0.1479,-0.1705,-0.1995,1.7959,1.7853,1.7572,1.7344,1.7111,1.6521,1.597,1.5489,1.5276,1.4909,1.4513,1.4317,1.4137,1.3928,1.3754,1.3608,1.3492,1.3492,1.3492,1.3492,1.3492,1.3492,1.3492,1.3608,1.3601,1.3484,1.3389,1.3236,1.2992,1.2565,1.2158,1.1799,1.1229,1.0588,0.9958,0.9817,0.9664,0.944,0.8977,0.8575,0.8304,0.8028,0.7789,0.7533,0.7399,0.7327,0.7327,0.7327,0.7279,0.7198,0.7149,0.7095,0.7004,0.6874,0.6712,0.6495,0.6309,0.6009,0.5599,0.5207,0.4818,0.4384,0.4162,0.3941,0.3747,0.3583,0.3471,0.3416,0.3249,0.3081,0.2916,0.286,0.2777,0.2719,0.2691,0.2691,0.2663,0.2579,0.2465,0.2352,0.21,0.1822,0.16,0.1347,0.115,0.0926,0.0785,0.064,0.0438,0.0289,0.0175,0.0,0.0,0.0,0.0,0.0,0.0,-0.0157,-0.0247,-0.0337,-0.045,-0.0629,-0.0697,-0.0787,-0.0787,-0.0787,-0.0787,-0.0787,-0.081,-0.0922,-0.1054,-0.1232,-0.1389,-0.1681,-0.1994,1.7991,1.7991,1.7821,1.774,1.7634,1.6966,1.6363,1.5886,1.5831,1.5451,1.4874,1.4618,1.4434,1.4244,1.4002,1.3754,1.3572,1.3564,1.3572,1.3572,1.3572,1.3601,1.3645,1.379,1.3783,1.3674,1.379,1.371,1.3382,1.3136,1.287,1.2501,1.1689,1.0975,1.0533,1.0367,1.0181,0.99,0.9498,0.9125,0.8755,0.8493,0.8217,0.7926,0.7709,0.7583,0.7499,0.7521,0.744,0.7365,0.7338,0.7284,0.7166,0.7036,0.6928,0.6734,0.6468,0.6146,0.5763,0.5262,0.4818,0.4574,0.4332,0.4107,0.391,0.3747,0.3583,0.3471,0.3416,0.3276,0.3054,0.2944,0.286,0.2749,0.2719,0.2691,0.2691,0.2607,0.2549,0.2493,0.2268,0.2045,0.1824,0.1572,0.1346,0.1094,0.0926,0.0729,0.0559,0.0493,0.0421,0.0325,0.0169,0.0,0.0091,0.0,0.0045,-0.009,-0.0135,-0.0225,-0.0382,-0.045,-0.0539,-0.0652,-0.0697,-0.0719,-0.0697,-0.0697,-0.0742,-0.0831,-0.0987,-0.1165,-0.1412,-0.1705,-0.2038,1.7991,1.7991,1.8,1.787,1.7651,1.7253,1.6838,1.6428,1.6245,1.5944,1.5578,1.5066,1.4873,1.4745,1.4327,1.3979,1.3812,1.3754,1.3754,1.3797,1.3754,1.3891,1.4029,1.4065,1.4057,1.4029,1.4057,1.4021,1.3949,1.3781,1.3373,1.2798,1.2171,1.1679,1.1252,1.1178,1.0854,1.0282,1.0206,0.975,0.894,0.8757,0.8418,0.7931,0.7869,0.7749,0.7543,0.7521,0.7494,0.7461,0.7467,0.7419,0.7311,0.7263,0.7128,0.6901,0.6734,0.6354,0.5677,0.5293,0.4959,0.4688,0.4415,0.4193,0.4135,0.3938,0.3716,0.361,0.3471,0.3388,0.3332,0.3109,0.2916,0.286,0.2777,0.2691,0.2691,0.2691,0.2635,0.2493,0.2437,0.2298,0.1936,0.1769,0.1543,0.115,0.1094,0.0982,0.0869,0.0753,0.0685,0.0631,0.0501,0.0379,0.0342,0.036,0.027,0.018,0.0067,-0.0067,-0.0202,-0.036,-0.0494,-0.0539,-0.0607,-0.0674,-0.0697,-0.0697,-0.0697,-0.0764,-0.0942,-0.1187,-0.1502,-0.1705,-0.1927,1.8152,1.7991,1.7991,1.787,1.77,1.7529,1.7301,1.7016,1.6798,1.6669,1.646,1.5936,1.5489,1.5163,1.4739,1.4473,1.4244,1.4084,1.3964,1.3956,1.3964,1.4029,1.4093,1.4209,1.4245,1.4129,1.4209,1.4238,1.4093,1.4029,1.369,1.3144,1.2731,1.2342,1.1909,1.1579,1.1255,1.1002,1.0737,1.0368,0.9906,0.9507,0.9132,0.877,0.8475,0.8215,0.7986,0.7823,0.7681,0.7622,0.7616,0.7542,0.7419,0.7338,0.7203,0.7009,0.663,0.6277,0.5982,0.5517,0.5128,0.4936,0.466,0.4411,0.4221,0.4079,0.3965,0.3744,0.361,0.3499,0.3416,0.3274,0.3109,0.2944,0.2833,0.2805,0.2691,0.2691,0.2663,0.2635,0.2549,0.2437,0.2214,0.1964,0.1656,0.1318,0.1206,0.1206,0.1122,0.101,0.0939,0.0911,0.0804,0.0623,0.0473,0.0388,0.0384,0.0315,0.0202,0.009,-0.0067,-0.0202,-0.036,-0.0472,-0.0539,-0.0629,-0.0697,-0.0697,-0.0697,-0.0763,-0.092,-0.1187,-0.1457,-0.1591,-0.1779,1.8322,1.8121,1.8031,1.791,1.7781,1.77,1.7619,1.7465,1.7261,1.718,1.7155,1.6702,1.6341,1.5905,1.5363,1.5008,1.4781,1.4558,1.445,1.445,1.445,1.444,1.4436,1.453,1.4483,1.4289,1.4389,1.4353,1.4201,1.4173,1.3943,1.356,1.3381,1.3085,1.2672,1.2208,1.1881,1.1638,1.1251,1.0953,1.073,1.0323,0.9894,0.948,0.9099,0.8792,0.8506,0.8324,0.8139,0.799,0.7968,0.7878,0.7683,0.758,0.741,0.709,0.6657,0.6309,0.62,0.5709,0.5348,0.5156,0.4881,0.4608,0.4387,0.4249,0.4107,0.3938,0.3747,0.358,0.3471,0.3416,0.3276,0.3081,0.3,0.2914,0.2805,0.2749,0.2719,0.2691,0.2607,0.2521,0.2437,0.216,0.1796,0.1543,0.1459,0.1375,0.1318,0.1205,0.114,0.114,0.1073,0.0883,0.0588,0.0541,0.0505,0.0433,0.0364,0.0247,0.009,-0.0067,-0.0202,-0.0337,-0.0427,-0.0517,-0.0607,-0.0652,-0.0719,-0.0787,-0.092,-0.112,-0.1344,-0.1457,-0.1574,1.858,1.8362,1.8121,1.8,1.7991,1.7781,1.77,1.7659,1.7465,1.74,1.7392,1.7318,1.731,1.7179,1.6171,1.555,1.5397,1.5319,1.528,1.528,1.5296,1.5277,1.5173,1.5157,1.4954,1.4636,1.4632,1.4565,1.4397,1.4397,1.4281,1.4063,1.4004,1.3866,1.3522,1.3222,1.2821,1.2164,1.1851,1.1507,1.1126,1.1038,1.0581,0.9838,0.9675,0.9413,0.9015,0.8966,0.8831,0.8662,0.8638,0.8461,0.8118,0.8055,0.7766,0.7187,0.696,0.6663,0.6282,0.5946,0.5641,0.5321,0.4967,0.4719,0.4664,0.4415,0.4221,0.4193,0.3968,0.3744,0.361,0.3499,0.3416,0.333,0.319,0.3051,0.2888,0.286,0.2833,0.2747,0.2691,0.2635,0.2521,0.2324,0.2074,0.1852,0.1769,0.1684,0.1431,0.1318,0.1315,0.1278,0.1252,0.1157,0.0861,0.0757,0.0694,0.0613,0.0507,0.0405,0.0247,0.009,-0.0067,-0.0202,-0.036,-0.045,-0.0517,-0.0607,-0.0742,-0.081,-0.0855,-0.1033,-0.1188,-0.1321,-0.1421,1.8763,1.8571,1.8362,1.8282,1.8233,1.7991,1.791,1.787,1.7668,1.7578,1.7587,1.7473,1.7392,1.7383,1.6999,1.6516,1.6102,1.5878,1.569,1.5605,1.5605,1.5541,1.5515,1.5537,1.5451,1.5292,1.5086,1.4827,1.4549,1.4533,1.4461,1.431,1.4317,1.4176,1.3902,1.3648,1.3244,1.2754,1.2455,1.201,1.1503,1.1404,1.1159,1.0619,1.0197,0.9838,0.9464,0.9162,0.8968,0.8915,0.8769,0.8639,0.8479,0.8245,0.7975,0.7616,0.7225,0.6955,0.6734,0.6332,0.5978,0.5755,0.5352,0.5046,0.4936,0.4688,0.4467,0.438,0.419,0.3996,0.383,0.3666,0.3502,0.3388,0.333,0.3218,0.3079,0.297,0.286,0.2805,0.2749,0.2635,0.2549,0.2437,0.2298,0.2102,0.2046,0.1962,0.1793,0.1684,0.16,0.1485,0.1389,0.1262,0.1169,0.0975,0.0886,0.0746,0.0635,0.053,0.0388,0.0248,0.009,-0.0045,-0.0225,-0.0382,-0.045,-0.0584,-0.0719,-0.0764,-0.081,-0.0899,-0.101,-0.1167,-0.1286,1.8922,1.8772,1.8571,1.8482,1.8393,1.8201,1.808,1.7991,1.7861,1.7781,1.7781,1.7668,1.7595,1.7595,1.7595,1.7349,1.6893,1.6607,1.6376,1.6258,1.625,1.6186,1.6097,1.6081,1.6017,1.5863,1.5565,1.5267,1.5005,1.4804,1.4649,1.4577,1.4505,1.4425,1.4235,1.3993,1.3681,1.3369,1.2971,1.248,1.198,1.1799,1.1599,1.1281,1.0863,1.0452,1.0021,0.9613,0.9391,0.9331,0.915,0.8987,0.8818,0.8451,0.8154,0.7942,0.7594,0.7269,0.7068,0.6663,0.6309,0.6087,0.5704,0.5403,0.5183,0.4963,0.477,0.4577,0.4411,0.4245,0.4079,0.386,0.3691,0.3552,0.3497,0.3388,0.3246,0.3107,0.3056,0.2968,0.2884,0.28,0.2717,0.2717,0.2605,0.241,0.2382,0.2296,0.2099,0.1989,0.188,0.1766,0.1625,0.1509,0.1416,0.1287,0.1166,0.1038,0.0839,0.0704,0.0576,0.0409,0.0247,0.0112,-0.0067,-0.0247,-0.0405,-0.0562,-0.0629,-0.0674,-0.0742,-0.0831,-0.0921,-0.1034,-0.1136,1.8993,1.8962,1.8772,1.8612,1.8482,1.8402,1.8233,1.8031,1.8,1.8,1.7951,1.7951,1.7951,1.7959,1.7919,1.7853,1.7609,1.7397,1.7276,1.7244,1.726,1.7136,1.6855,1.6807,1.6618,1.6297,1.5972,1.5807,1.5712,1.5235,1.4956,1.4888,1.4693,1.4605,1.4605,1.4414,1.4194,1.3843,1.338,1.2963,1.2601,1.2256,1.194,1.163,1.1531,1.1212,1.0629,1.0388,1.0135,0.9964,0.9812,0.9561,0.9168,0.8771,0.841,0.8228,0.7999,0.7639,0.7236,0.7013,0.6738,0.6409,0.6005,0.5752,0.5499,0.5238,0.501,0.477,0.4601,0.4436,0.4249,0.4107,0.3938,0.3796,0.3688,0.3583,0.3471,0.3388,0.3302,0.3132,0.3077,0.3105,0.3105,0.3049,0.2938,0.2745,0.2689,0.2577,0.2324,0.224,0.2156,0.2015,0.1905,0.1765,0.1682,0.1595,0.1479,0.1332,0.1099,0.093,0.0773,0.0622,0.0429,0.027,0.0045,-0.0135,-0.036,-0.0494,-0.0584,-0.0629,-0.0697,-0.0742,-0.0831,-0.0919,-0.0973,1.9231,1.9192,1.9002,1.8882,1.8803,1.8692,1.8491,1.8282,1.8273,1.8161,1.8031,1.7991,1.7991,1.7991,1.7991,1.7951,1.791,1.7838,1.7676,1.7432,1.7392,1.7334,1.7275,1.7259,1.7068,1.6746,1.6605,1.6406,1.6133,1.5729,1.5519,1.545,1.5049,1.4836,1.4784,1.4633,1.436,1.4044,1.3876,1.3445,1.2817,1.2654,1.2397,1.1956,1.1716,1.1466,1.1279,1.0807,1.0434,1.0206,1.0015,0.9882,0.9662,0.9334,0.9065,0.8944,0.8569,0.8282,0.8057,0.7713,0.7449,0.7252,0.6837,0.6482,0.6176,0.5758,0.5422,0.5132,0.4936,0.4712,0.4577,0.4436,0.4242,0.3965,0.3882,0.3805,0.3702,0.3535,0.333,0.316,0.3105,0.3105,0.3105,0.3102,0.3105,0.3021,0.2965,0.2854,0.2633,0.2521,0.241,0.2212,0.2099,0.2015,0.1905,0.1794,0.1695,0.1543,0.131,0.1123,0.0981,0.0809,0.0612,0.0405,0.018,-0.0045,-0.0247,-0.0405,-0.0494,-0.0562,-0.0629,-0.0674,-0.0742,-0.0781,-0.084,1.9292,1.9301,1.9152,1.9073,1.9002,1.8851,1.8692,1.8523,1.8531,1.8411,1.8282,1.825,1.825,1.829,1.825,1.8201,1.8152,1.8121,1.7951,1.7676,1.7635,1.7635,1.7635,1.7635,1.7535,1.734,1.7189,1.6996,1.6706,1.6326,1.6009,1.5851,1.5462,1.5165,1.5023,1.4883,1.4719,1.4525,1.4311,1.3944,1.3439,1.3057,1.2718,1.239,1.2033,1.1786,1.1599,1.1185,1.0807,1.0523,1.0238,1.0079,0.997,0.975,0.9544,0.9352,0.9047,0.8729,0.8504,0.8187,0.7949,0.7771,0.7469,0.7087,0.6793,0.6328,0.6007,0.5627,0.5366,0.5111,0.4892,0.4739,0.4563,0.446,0.416,0.4023,0.3913,0.3857,0.3743,0.3615,0.348,0.3424,0.3363,0.3299,0.3274,0.3218,0.3218,0.3132,0.2912,0.28,0.2605,0.2437,0.2324,0.2212,0.2099,0.1989,0.1908,0.1718,0.1498,0.1338,0.1177,0.1,0.0807,0.0562,0.0337,0.009,-0.0135,-0.027,-0.0382,-0.0472,-0.0539,-0.0562,-0.0607,-0.0652,-0.0714,1.9366,1.9338,1.9338,1.9228,1.9042,1.9002,1.8882,1.8732,1.87,1.8692,1.866,1.862,1.866,1.8669,1.862,1.8531,1.8434,1.8402,1.8282,1.808,1.804,1.8,1.7951,1.7919,1.7885,1.7865,1.7649,1.7535,1.7397,1.6924,1.6493,1.6178,1.5913,1.5604,1.527,1.5196,1.5152,1.5043,1.47,1.4433,1.4312,1.3661,1.3091,1.2828,1.2523,1.2166,1.1778,1.1591,1.131,1.087,1.0523,1.0301,1.011,1.0047,0.9869,0.9568,0.9463,0.9138,0.8717,0.861,0.8413,0.8064,0.7944,0.7644,0.726,0.7026,0.6712,0.6231,0.5917,0.5624,0.5306,0.5135,0.5116,0.5092,0.4581,0.4226,0.4229,0.4365,0.4264,0.4168,0.408,0.3978,0.3806,0.368,0.3555,0.3497,0.3441,0.3327,0.319,0.3051,0.2888,0.2747,0.2577,0.2437,0.2324,0.2128,0.2017,0.1934,0.1708,0.1521,0.1337,0.1148,0.0943,0.0696,0.0494,0.0247,0.0022,-0.0112,-0.0247,-0.036,-0.0405,-0.0427,-0.0472,-0.0539,-0.0562,1.9994,1.9729,1.9719,1.9546,1.925,1.9222,1.9112,1.8931,1.8931,1.8851,1.874,1.8709,1.874,1.8709,1.87,1.866,1.8612,1.8612,1.8612,1.8491,1.8362,1.8193,1.8031,1.7991,1.7991,1.7965,1.7871,1.7886,1.786,1.7461,1.7064,1.6706,1.6257,1.5828,1.5484,1.5319,1.5204,1.5196,1.5086,1.4854,1.4624,1.4417,1.3924,1.3284,1.2996,1.2625,1.215,1.1872,1.1529,1.1059,1.0933,1.0776,1.0579,1.046,1.0287,1.0065,0.9825,0.9662,0.9468,0.9213,0.9025,0.8911,0.8615,0.8368,0.7947,0.765,0.7299,0.6903,0.6588,0.632,0.6091,0.5931,0.5792,0.5523,0.5077,0.4717,0.461,0.4518,0.4463,0.4426,0.426,0.417,0.4075,0.3978,0.3869,0.3802,0.3716,0.3633,0.3469,0.333,0.3167,0.297,0.2828,0.2689,0.2521,0.2296,0.2153,0.2115,0.1922,0.1695,0.1468,0.1224,0.0981,0.0741,0.0652,0.0427,0.0225,0.0045,-0.009,-0.0202,-0.0292,-0.0315,-0.0382,-0.045,-0.045,2.0342,2.0131,2.0173,1.9902,1.9586,1.9567,1.9387,1.917,1.9112,1.9073,1.8962,1.8962,1.8962,1.8971,1.8962,1.8891,1.8812,1.8803,1.8772,1.866,1.8571,1.8322,1.808,1.7991,1.7991,1.7991,1.7991,1.7991,1.7957,1.78,1.7518,1.715,1.6669,1.6221,1.5865,1.5591,1.547,1.5426,1.5382,1.5238,1.5063,1.4793,1.4477,1.3893,1.3518,1.2964,1.2352,1.2058,1.1747,1.1404,1.1247,1.1122,1.0933,1.0744,1.0586,1.0434,1.018,0.9983,0.9862,0.9638,0.9504,0.9364,0.9113,0.889,0.855,0.8228,0.7855,0.7588,0.7248,0.6957,0.672,0.6575,0.6349,0.6033,0.5744,0.5474,0.514,0.5036,0.4932,0.4854,0.466,0.4458,0.4341,0.4209,0.4088,0.4011,0.391,0.3858,0.3777,0.361,0.3444,0.3274,0.3079,0.2912,0.2775,0.2577,0.2382,0.2315,0.209,0.1839,0.1594,0.1343,0.1145,0.0964,0.0809,0.0652,0.0427,0.0247,0.0135,0.0022,-0.0112,-0.0202,-0.0247,-0.0292,-0.0315,2.058,2.0585,2.0585,2.0305,1.9976,1.9893,1.9664,1.9421,1.928,1.9253,1.9262,1.9292,1.9222,1.9292,1.9222,1.9192,1.9033,1.9033,1.8882,1.8812,1.8692,1.8523,1.8201,1.8161,1.8161,1.8161,1.808,1.808,1.8063,1.8046,1.7809,1.7441,1.7098,1.6781,1.6331,1.6035,1.5874,1.5803,1.5637,1.5532,1.5404,1.5141,1.4829,1.4537,1.3893,1.3219,1.2688,1.2352,1.2119,1.1685,1.1459,1.1341,1.1185,1.0965,1.0807,1.0656,1.046,1.0238,1.0079,0.9926,0.9728,0.9562,0.9434,0.9242,0.8988,0.872,0.8483,0.8261,0.7902,0.7582,0.7298,0.7088,0.6881,0.6605,0.6509,0.625,0.5928,0.5697,0.5563,0.5471,0.5152,0.4869,0.4607,0.4397,0.4231,0.4175,0.4104,0.4024,0.3944,0.3805,0.3719,0.3635,0.3385,0.3132,0.2996,0.2858,0.2691,0.2536,0.2214,0.1975,0.1727,0.1512,0.1371,0.1211,0.1054,0.0853,0.0652,0.0494,0.0382,0.0247,0.0135,0.0022,-0.0045,-0.009,-0.0112,2.1238,2.0979,2.0979,2.075,2.0374,2.0021,1.9838,1.9719,1.9448,1.9329,1.9292,1.9292,1.9292,1.9292,1.9292,1.9262,1.9222,1.9222,1.9112,1.8962,1.8922,1.8812,1.8571,1.8531,1.8531,1.8491,1.8362,1.8322,1.8282,1.8126,1.7852,1.7548,1.745,1.7167,1.679,1.6458,1.6225,1.6218,1.5932,1.5752,1.5726,1.5606,1.5297,1.4916,1.4347,1.3762,1.3299,1.3115,1.2798,1.2282,1.1988,1.1809,1.1529,1.1435,1.1247,1.1003,1.0719,1.053,1.0428,1.0149,0.9926,0.9766,0.9702,0.9574,0.9274,0.9177,0.9026,0.8835,0.8649,0.8276,0.7969,0.77,0.7468,0.7288,0.7093,0.6892,0.6633,0.6158,0.5862,0.5752,0.5624,0.5408,0.5095,0.4895,0.4679,0.4452,0.427,0.419,0.4079,0.3996,0.3913,0.3858,0.3691,0.3413,0.3246,0.3081,0.2856,0.2686,0.239,0.2116,0.1889,0.1693,0.1543,0.1411,0.1254,0.1054,0.0853,0.0742,0.0606,0.0472,0.036,0.027,0.0202,0.0135,0.009,2.1559,2.1401,2.1401,2.1172,2.0796,2.0525,2.0264,1.9893,1.9705,1.9476,1.932,1.9292,1.9292,1.9292,1.9292,1.9292,1.9292,1.9301,1.9231,1.9152,1.9152,1.9073,1.8993,1.8962,1.8882,1.874,1.8612,1.8531,1.8482,1.8393,1.8275,1.8048,1.7891,1.7721,1.7464,1.7061,1.6811,1.6628,1.6354,1.6137,1.5964,1.5823,1.5547,1.5078,1.4706,1.4313,1.3819,1.3557,1.3298,1.2931,1.2585,1.2243,1.1872,1.1685,1.1498,1.131,1.1035,1.0782,1.0624,1.0428,1.0238,1.0053,0.9958,0.9766,0.9568,0.9466,0.9332,0.9145,0.8985,0.8765,0.8506,0.8247,0.8019,0.7814,0.7521,0.7297,0.7106,0.6581,0.6156,0.6075,0.5912,0.5639,0.5406,0.5244,0.4952,0.4633,0.455,0.4439,0.4301,0.419,0.4107,0.4024,0.3888,0.3722,0.3527,0.3304,0.2996,0.2798,0.2584,0.2325,0.2095,0.1898,0.1708,0.1569,0.1389,0.1254,0.1076,0.0942,0.0831,0.0652,0.0539,0.0494,0.0427,0.0315,0.027,2.1687,2.1687,2.1687,2.1485,2.1218,2.1117,2.0723,2.014,1.993,1.9714,1.943,1.9347,1.9292,1.9292,1.9292,1.9292,1.9292,1.9292,1.9262,1.9262,1.9262,1.9253,1.9222,1.9222,1.9112,1.8812,1.8772,1.8732,1.8732,1.8692,1.8594,1.8581,1.8381,1.82,1.8115,1.7852,1.7466,1.7172,1.6852,1.6533,1.6209,1.5998,1.5625,1.529,1.5154,1.4849,1.438,1.4072,1.3742,1.3602,1.3165,1.2693,1.2251,1.1903,1.1685,1.1654,1.1373,1.1153,1.0965,1.0744,1.053,1.0364,1.018,0.9989,0.983,0.9696,0.9562,0.937,0.9215,0.9017,0.8894,0.8673,0.8474,0.8242,0.7852,0.7657,0.7456,0.6975,0.6646,0.6383,0.624,0.6005,0.5655,0.5415,0.514,0.4861,0.4782,0.4688,0.4519,0.4408,0.4356,0.4245,0.411,0.3885,0.3691,0.3527,0.3218,0.2993,0.2779,0.2519,0.2305,0.206,0.1849,0.1682,0.1524,0.1389,0.1277,0.1187,0.1032,0.0831,0.0764,0.0741,0.0629,0.0494,0.045,2.1687,2.1687,2.1687,2.165,2.1531,2.1264,2.1034,2.0814,2.0186,1.9866,1.9738,1.9467,1.9329,1.9292,1.9292,1.9292,1.9292,1.9292,1.9292,1.9292,1.9292,1.9292,1.9292,1.9292,1.9222,1.9192,1.9042,1.8962,1.8882,1.8772,1.878,1.8723,1.8652,1.8598,1.8522,1.8222,1.8024,1.7765,1.7354,1.6953,1.6588,1.6218,1.5903,1.5608,1.5599,1.5324,1.4967,1.4765,1.4413,1.3716,1.3497,1.3174,1.2771,1.239,1.2151,1.1934,1.1685,1.1466,1.1373,1.1028,1.0751,1.0561,1.0371,1.0174,1.0015,0.9926,0.9824,0.9664,0.944,0.9242,0.921,0.9017,0.8765,0.8538,0.8349,0.8187,0.7917,0.7526,0.7101,0.6778,0.6576,0.6343,0.5997,0.5646,0.5371,0.511,0.4918,0.4857,0.4767,0.4684,0.4601,0.4494,0.4359,0.4076,0.3796,0.3663,0.3463,0.3254,0.3019,0.2724,0.2457,0.2184,0.1975,0.1868,0.1727,0.1614,0.1502,0.1389,0.1278,0.1121,0.1054,0.0987,0.0875,0.0741,0.0607,2.1687,2.1687,2.1687,2.1687,2.1659,2.1485,2.13,2.1071,2.0695,2.0259,1.993,1.9705,1.9494,1.9347,1.9292,1.9292,1.9292,1.9292,1.9292,1.9292,1.9292,1.9292,1.9292,1.9292,1.9292,1.9262,1.9192,1.9152,1.9152,1.9073,1.9002,1.8993,1.8993,1.8993,1.9006,1.8843,1.8587,1.8362,1.7934,1.7447,1.6945,1.6413,1.6061,1.5964,1.5832,1.5667,1.5479,1.5172,1.4926,1.4445,1.401,1.3655,1.3299,1.2911,1.2529,1.2243,1.1996,1.1747,1.1654,1.131,1.1122,1.0877,1.0688,1.0491,1.0333,1.0238,1.0085,0.9894,0.9734,0.9568,0.9568,0.9306,0.9113,0.8926,0.8705,0.8447,0.8247,0.7949,0.7559,0.7167,0.6924,0.663,0.6249,0.5929,0.5636,0.5383,0.5107,0.5002,0.4959,0.4877,0.4794,0.4684,0.455,0.4301,0.4045,0.3882,0.3691,0.3479,0.3233,0.293,0.2695,0.2448,0.2271,0.2134,0.1995,0.1839,0.1705,0.1614,0.1502,0.1389,0.1323,0.1233,0.1121,0.0987,0.0876,2.1687,2.1687,2.1687,2.1687,2.1687,2.1687,2.1504,2.1264,2.1126,2.0741,2.0168,1.9948,1.9732,1.9476,1.9338,1.9292,1.9292,1.9292,1.9292,1.9292,1.9292,1.9292,1.9292,1.9292,1.9292,1.9292,1.9301,1.9292,1.9253,1.9253,1.9253,1.9253,1.9253,1.9292,1.9234,1.9177,1.9054,1.8878,1.8543,1.8021,1.7252,1.6599,1.6228,1.614,1.5973,1.5859,1.579,1.5523,1.5274,1.4976,1.4585,1.4081,1.3863,1.3439,1.2979,1.2537,1.2305,1.2027,1.1809,1.1591,1.1404,1.1216,1.0996,1.0807,1.0618,1.0396,1.0206,1.0079,0.9919,0.9798,0.974,0.9574,0.9376,0.9215,0.8926,0.8641,0.8544,0.8312,0.8052,0.7694,0.7335,0.6933,0.6553,0.6114,0.5842,0.5583,0.5334,0.5144,0.5073,0.4987,0.4904,0.4846,0.4708,0.4494,0.4298,0.4132,0.3941,0.3729,0.3439,0.3133,0.2951,0.2769,0.256,0.2355,0.2219,0.2061,0.1951,0.1817,0.1705,0.1614,0.1547,0.1457,0.1345,0.1233,0.1121,2.1687,2.1687,2.1687,2.1687,2.1687,2.1687,2.1668,2.1568,2.1273,2.1071,2.0824,2.0214,1.9875,1.9714,1.9421,1.9311,1.9292,1.9292,1.9292,1.9292,1.9292,1.9292,1.9292,1.9292,1.9292,1.9292,1.9292,1.9292,1.9292,1.9292,1.9292,1.9292,1.9292,1.9292,1.9292,1.9292,1.9274,1.9164,1.8841,1.8188,1.7397,1.6955,1.6608,1.6351,1.6149,1.6035,1.6035,1.5808,1.5592,1.5266,1.5112,1.4636,1.4039,1.3878,1.3486,1.3034,1.2683,1.2436,1.2182,1.1872,1.1654,1.1498,1.1279,1.0996,1.0776,1.0555,1.0333,1.0276,1.0079,0.9951,0.99,0.9772,0.96,0.9408,0.921,0.9017,0.892,0.8635,0.8376,0.822,0.7862,0.7362,0.6917,0.6459,0.602,0.5785,0.5575,0.5377,0.5215,0.5128,0.5014,0.4956,0.4901,0.4712,0.4519,0.438,0.4215,0.3993,0.3688,0.3384,0.3204,0.3024,0.2743,0.2548,0.2425,0.2286,0.2127,0.1995,0.1906,0.1839,0.1792,0.1681,0.1591,0.1479,0.1366,2.1687,2.1687,2.1687,2.1687,2.1687,2.1687,2.1687,2.165,2.1548,2.1328,2.1044,2.053,1.9985,1.9632,1.9356,1.9301,1.9292,1.9292,1.9292,1.9292,1.9292,1.9292,1.9292,1.9292,1.9292,1.9292,1.9292,1.9292,1.9292,1.9292,1.9292,1.9292,1.9292,1.9292,1.9292,1.9292,1.9292,1.9173,1.8878,1.8483,1.7978,1.7432,1.6991,1.6777,1.644,1.6272,1.6167,1.6061,1.5904,1.5636,1.5437,1.5061,1.4594,1.427,1.3842,1.3553,1.3188,1.2844,1.2498,1.2189,1.2003,1.1817,1.1591,1.1279,1.0989,1.0744,1.0586,1.0586,1.0333,1.0142,1.0053,0.99,0.9734,0.9574,0.9434,0.9306,0.9177,0.8958,0.8705,0.8544,0.8344,0.7859,0.7375,0.6941,0.6494,0.6137,0.5836,0.555,0.5407,0.5297,0.5183,0.5042,0.5014,0.4932,0.4763,0.457,0.4463,0.4242,0.4024,0.3732,0.3484,0.3257,0.3003,0.2797,0.2647,0.2488,0.2312,0.2239,0.2194,0.2105,0.204,0.1949,0.1837,0.1705,0.1569,2.1687,2.1687,2.1687,2.1687,2.1687,2.1687,2.1687,2.1687,2.1678,2.1513,2.1147,2.068,2.0053,1.9439,1.9311,1.9292,1.9292,1.9292,1.9292,1.9292,1.9292,1.9292,1.9292,1.9292,1.9292,1.9292,1.9292,1.9292,1.9292,1.9292,1.9292,1.9292,1.9292,1.9292,1.9292,1.9292,1.9292,1.9265,1.9036,1.8777,1.851,1.7951,1.7551,1.7198,1.6813,1.6483,1.636,1.6202,1.6123,1.5983,1.5705,1.5394,1.5078,1.4694,1.4283,1.3961,1.3588,1.3235,1.2854,1.2529,1.2344,1.2158,1.1848,1.1435,1.1272,1.1028,1.0839,1.0776,1.0586,1.0396,1.0269,1.0053,0.9926,0.9766,0.96,0.9504,0.9376,0.9183,0.9022,0.8894,0.87,0.8474,0.7969,0.7461,0.702,0.6557,0.6145,0.5756,0.5567,0.5462,0.5375,0.5262,0.5156,0.5124,0.4956,0.4791,0.4684,0.4519,0.427,0.4075,0.3855,0.3596,0.3354,0.3139,0.2928,0.2773,0.2658,0.2558,0.2457,0.2348,0.2239,0.2194,0.2083,0.1953,0.1798,2.1687,2.1687,2.1687,2.1687,2.1687,2.1687,2.1687,2.1687,2.1687,2.1632,2.1376,2.0817,2.0072,1.9467,1.9292,1.9292,1.9292,1.9292,1.9292,1.9292,1.9292,1.9292,1.9292,1.9292,1.9292,1.9292,1.9292,1.9292,1.9292,1.9292,1.9292,1.9292,1.9292,1.9292,1.9292,1.9292,1.9292,1.9292,1.9182,1.9026,1.8843,1.8493,1.82,1.7606,1.7261,1.6973,1.6613,1.6421,1.6272,1.6167,1.6018,1.5731,1.5377,1.5111,1.4759,1.4311,1.3941,1.3622,1.3299,1.2868,1.259,1.2382,1.2065,1.1661,1.156,1.1247,1.1028,1.0902,1.0776,1.0586,1.0428,1.0244,1.0117,0.9989,0.983,0.9734,0.96,0.9434,0.9274,0.9215,0.9017,0.8765,0.8441,0.7928,0.7365,0.6887,0.6263,0.5845,0.5732,0.5626,0.5595,0.5513,0.538,0.5266,0.5124,0.4987,0.4877,0.4767,0.4574,0.4426,0.4267,0.4004,0.3691,0.3467,0.3269,0.3135,0.2985,0.2789,0.2642,0.2549,0.246,0.237,0.2274,0.2129,0.1992,2.1687,2.1687,2.1687,2.1687,2.1687,2.1687,2.1687,2.1687,2.1687,2.1376,2.0964,2.0622,2.0063,1.9485,1.9292,1.9292,1.9292,1.9292,1.9292,1.9292,1.9292,1.9292,1.9292,1.9292,1.9292,1.9292,1.9292,1.9292,1.9292,1.9292,1.9292,1.9292,1.9292,1.9292,1.9292,1.9292,1.9292,1.9292,1.9292,1.9182,1.9091,1.8806,1.8559,1.8264,1.7596,1.7369,1.7106,1.6694,1.6508,1.6403,1.6272,1.6018,1.5739,1.5532,1.5179,1.4751,1.4369,1.403,1.3715,1.3229,1.2775,1.256,1.2251,1.2003,1.191,1.1591,1.1404,1.1247,1.0996,1.0776,1.0649,1.0434,1.0244,1.0149,1.0053,0.9926,0.9798,0.9664,0.9504,0.9376,0.928,0.9081,0.8727,0.8346,0.7792,0.7225,0.6554,0.5987,0.59,0.5786,0.5759,0.5704,0.5572,0.5489,0.5371,0.5234,0.5097,0.4987,0.4877,0.4712,0.4559,0.4323,0.4043,0.3811,0.3608,0.3417,0.3236,0.2999,0.2829,0.2712,0.2618,0.2549,0.2436,0.2319,0.2196,2.1687,2.1687,2.1687,2.1687,2.1687,2.1687,2.1687,2.1687,2.1687,2.1321,2.0695,2.0567,2.0154,1.9613,1.9329,1.9292,1.9292,1.9292,1.9292,1.9292,1.9292,1.9292,1.9292,1.9292,1.9292,1.9292,1.9292,1.9292,1.9292,1.9292,1.9292,1.9292,1.9292,1.9292,1.9292,1.9292,1.9292,1.9292,1.9292,1.9292,1.9237,1.9063,1.8788,1.866,1.8155,1.7743,1.7468,1.7079,1.6782,1.6631,1.6473,1.6298,1.614,1.5904,1.5591,1.5212,1.4853,1.4466,1.4132,1.358,1.3014,1.2744,1.2529,1.2344,1.2189,1.1934,1.1716,1.1536,1.1216,1.0965,1.0902,1.0586,1.0466,1.0364,1.0206,1.0079,1.0021,0.9894,0.9696,0.9568,0.944,0.937,0.9009,0.8598,0.7973,0.7367,0.6652,0.6219,0.6119,0.5978,0.5868,0.5814,0.5736,0.5709,0.565,0.5485,0.5317,0.5238,0.5124,0.4963,0.479,0.4579,0.4425,0.4242,0.4028,0.3743,0.3552,0.3408,0.3124,0.2851,0.2783,0.271,0.2712,0.262,0.2483,2.1687,2.1687,2.1687,2.1687,2.1687,2.1687,2.1687,2.1687,2.1687,2.1431,2.0973,2.0662,2.0268,1.9829,1.9512,1.9375,1.9292,1.9292,1.9292,1.9292,1.9292,1.9292,1.9292,1.9292,1.9292,1.9292,1.9292,1.9292,1.9292,1.9292,1.9292,1.9292,1.9292,1.9292,1.9292,1.9292,1.9292,1.9292,1.9292,1.9292,1.9274,1.9228,1.9045,1.8834,1.8595,1.8192,1.7834,1.7441,1.715,1.6845,1.6674,1.6517,1.6306,1.6263,1.5982,1.5556,1.5477,1.5167,1.4682,1.3808,1.3353,1.3014,1.2744,1.259,1.2529,1.2282,1.1965,1.1809,1.1529,1.1279,1.1021,1.0769,1.0681,1.0555,1.0396,1.0238,1.018,1.0085,0.9919,0.976,0.9734,0.9652,0.9281,0.8839,0.8133,0.7465,0.6761,0.6425,0.6351,0.625,0.6136,0.6005,0.5955,0.5873,0.5814,0.5677,0.5567,0.5485,0.5403,0.5266,0.5128,0.4941,0.4808,0.4673,0.4418,0.4127,0.3993,0.386,0.3504,0.3154,0.2978,0.2899,0.293,0.2906,0.2786,2.1687,2.1687,2.1687,2.1687,2.1687,2.1687,2.1687,2.1687,2.1659,2.1502,2.1154,2.0943,2.0479,2.0003,1.9738,1.9558,1.9338,1.9292,1.9292,1.9292,1.9332,1.9292,1.9292,1.9332,1.9292,1.9292,1.9292,1.9292,1.9292,1.9292,1.9292,1.9292,1.9292,1.9292,1.9292,1.9292,1.9292,1.9292,1.9292,1.9292,1.9292,1.9283,1.9228,1.9072,1.8861,1.8568,1.821,1.7853,1.745,1.7132,1.6986,1.6718,1.656,1.6517,1.6341,1.6007,1.5867,1.5412,1.4959,1.4373,1.3901,1.3436,1.3052,1.2876,1.2744,1.256,1.2305,1.2058,1.1778,1.156,1.1365,1.0965,1.0776,1.0713,1.0555,1.0428,1.0301,1.0238,1.0142,0.9989,0.9926,0.976,0.9476,0.9222,0.8608,0.8134,0.754,0.6925,0.6696,0.6591,0.6463,0.63,0.6196,0.6064,0.595,0.5841,0.5759,0.5677,0.5681,0.5626,0.5485,0.5289,0.5183,0.5077,0.4805,0.4513,0.4315,0.4093,0.3758,0.3474,0.331,0.3142,0.3134,0.3144,0.3076,2.1687,2.1687,2.1687,2.1687,2.1687,2.1687,2.1687,2.1687,2.1687,2.1531,2.1337,2.1181,2.086,2.0383,1.9994,1.9883,1.9583,1.9427,1.9499,1.9499,1.9499,1.9539,1.9499,1.942,1.9429,1.9381,1.9292,1.9292,1.9292,1.9292,1.9292,1.9292,1.9292,1.9292,1.9292,1.9292,1.9292,1.9292,1.9292,1.9292,1.9292,1.9292,1.9292,1.921,1.9063,1.8843,1.8605,1.8229,1.777,1.7541,1.7284,1.6967,1.6789,1.6691,1.6612,1.6374,1.612,1.5723,1.5333,1.5071,1.4595,1.4013,1.3557,1.3205,1.2999,1.2783,1.259,1.2336,1.2034,1.1809,1.1591,1.1153,1.0996,1.0933,1.0713,1.0555,1.046,1.0403,1.0308,1.018,1.0079,0.9881,0.9709,0.9479,0.9122,0.8737,0.8354,0.7736,0.7114,0.6925,0.6754,0.6571,0.6413,0.6277,0.6141,0.5978,0.5923,0.5868,0.5845,0.5845,0.5768,0.5544,0.5494,0.5434,0.5132,0.4847,0.4577,0.4296,0.4056,0.3839,0.3655,0.3527,0.3372,0.3329,0.3302,2.1687,2.1687,2.1687,2.1687,2.1687,2.1687,2.1687,2.1687,2.1687,2.1678,2.165,2.13,2.1071,2.0958,2.0301,2.0066,2.0062,1.9755,1.9743,1.9784,1.9784,1.9824,1.9794,1.9676,1.9627,1.9548,1.9469,1.9381,1.9292,1.9292,1.9292,1.9292,1.9292,1.9292,1.9292,1.9292,1.9292,1.9292,1.9292,1.9292,1.9292,1.9292,1.9292,1.9265,1.9201,1.9054,1.8852,1.8586,1.8192,1.7871,1.755,1.7284,1.7082,1.6936,1.6813,1.6603,1.6411,1.6101,1.5854,1.5623,1.5303,1.477,1.4309,1.3842,1.3436,1.3201,1.3005,1.2732,1.2429,1.2081,1.1747,1.1529,1.1348,1.1122,1.0863,1.0713,1.0624,1.053,1.0466,1.0371,1.0301,1.0142,1.0015,0.9775,0.953,0.9277,0.8932,0.8485,0.7885,0.729,0.7078,0.6788,0.6625,0.6463,0.6327,0.6191,0.6114,0.6059,0.5955,0.5932,0.585,0.5822,0.5763,0.5626,0.5434,0.5179,0.4884,0.4644,0.4395,0.4197,0.3993,0.377,0.3592,0.3542,0.3534,2.1687,2.1687,2.1687,2.1687,2.1687,2.1687,2.1687,2.1687,2.1687,2.1687,2.1687,2.1568,2.1471,2.1321,2.082,2.0581,2.0348,2.0068,1.988,1.9902,1.9981,1.9902,1.9902,1.9863,1.9824,1.9754,1.9636,1.9518,1.9469,1.9381,1.9292,1.9292,1.9292,1.9292,1.9292,1.9292,1.9292,1.9292,1.9292,1.9292,1.9292,1.9292,1.9292,1.9292,1.9292,1.9182,1.91,1.8852,1.8531,1.8385,1.8064,1.7752,1.7376,1.7312,1.723,1.6857,1.6638,1.6427,1.6355,1.6165,1.5868,1.5484,1.5099,1.4694,1.4224,1.3779,1.3534,1.3232,1.2882,1.2508,1.2181,1.1948,1.1676,1.1341,1.1083,1.0863,1.0776,1.0649,1.0555,1.0498,1.0428,1.0333,1.0206,1.0034,0.9794,0.9687,0.9439,0.9065,0.8557,0.7909,0.7428,0.7127,0.6901,0.6766,0.6571,0.6436,0.6359,0.6277,0.6173,0.6091,0.6064,0.6037,0.5978,0.5841,0.5622,0.5407,0.5175,0.4936,0.4688,0.4467,0.4241,0.4009,0.3827,0.3774,0.3719,2.144,2.1467,2.1632,2.1687,2.1687,2.1687,2.1687,2.1687,2.1687,2.1687,2.1741,2.182,2.1815,2.1696,2.1371,2.1094,2.0904,2.0545,2.0299,2.0216,2.0185,2.0216,2.0177,2.0108,2.0069,1.999,1.9833,1.9676,1.9597,1.9429,1.9292,1.9292,1.9292,1.9292,1.9292,1.9292,1.9292,1.9292,1.9292,1.9292,1.9292,1.9292,1.9292,1.9292,1.9292,1.9292,1.9274,1.9008,1.8907,1.8751,1.8421,1.8174,1.777,1.7605,1.7312,1.6965,1.6795,1.6716,1.6636,1.6515,1.626,1.5998,1.5841,1.5565,1.5009,1.4511,1.4169,1.3865,1.3353,1.2945,1.264,1.2336,1.1979,1.1591,1.131,1.1021,1.0863,1.0744,1.0649,1.0586,1.0523,1.0466,1.0339,1.0212,1.0104,1.0015,0.9831,0.9569,0.9011,0.8369,0.7892,0.7527,0.7285,0.7063,0.6874,0.6707,0.6598,0.6522,0.6468,0.6386,0.6305,0.6223,0.6141,0.5978,0.5786,0.5567,0.5375,0.516,0.4939,0.4715,0.4519,0.4325,0.4135,0.3965,0.3885,2.108,2.1163,2.1557,2.1785,2.1731,2.1776,2.1776,2.1785,2.1776,2.1776,2.183,2.1998,2.2122,2.2095,2.1877,2.1707,2.1502,2.118,2.0923,2.0693,2.078,2.0771,2.0615,2.0488,2.04,2.0264,2.0069,1.9882,1.9636,1.9508,1.945,1.9332,1.9381,1.942,1.942,1.9381,1.9381,1.9381,1.9341,1.9292,1.9292,1.9292,1.9292,1.9292,1.9292,1.9292,1.9292,1.9228,1.9146,1.8889,1.8715,1.8559,1.8201,1.7706,1.7321,1.7092,1.6938,1.6874,1.683,1.6682,1.6612,1.6472,1.6438,1.614,1.5635,1.5068,1.4679,1.4403,1.3956,1.353,1.3226,1.2814,1.2382,1.1963,1.1622,1.1334,1.1115,1.0933,1.0713,1.0649,1.0586,1.0523,1.0491,1.0364,1.0339,1.0295,1.0129,0.9919,0.958,0.8906,0.8442,0.8022,0.7788,0.752,0.7192,0.7031,0.6869,0.6766,0.6707,0.6598,0.6495,0.6386,0.6305,0.6141,0.5946,0.5759,0.554,0.5321,0.5132,0.4963,0.4794,0.466,0.4467,0.4245,0.4052,2.0961,2.1145,2.1734,2.2097,2.222,2.2211,2.222,2.222,2.222,2.2132,2.2052,2.222,2.2441,2.2517,2.2289,2.2163,2.2097,2.179,2.1648,2.1523,2.1515,2.124,2.1103,2.0936,2.08,2.0537,2.0303,2.0069,1.9872,1.9784,1.9745,1.9745,1.9706,1.9706,1.9666,1.9587,1.9508,1.9508,1.942,1.9371,1.9371,1.9292,1.9292,1.9292,1.9292,1.9292,1.9292,1.9283,1.9256,1.9164,1.9164,1.8944,1.8548,1.7889,1.7504,1.733,1.7064,1.6945,1.6908,1.683,1.676,1.6647,1.6542,1.6438,1.6104,1.5565,1.5179,1.4899,1.4571,1.4128,1.3726,1.3283,1.2822,1.2367,1.1956,1.1676,1.1418,1.109,1.0807,1.0681,1.0618,1.0586,1.0586,1.0555,1.053,1.0434,1.0301,1.0148,1.0064,0.9614,0.9093,0.8685,0.8355,0.8066,0.7695,0.7393,0.7225,0.6998,0.6874,0.6761,0.6657,0.6517,0.6408,0.63,0.6136,0.5946,0.5732,0.5485,0.5321,0.5211,0.5014,0.4881,0.4743,0.455,0.4301,2.0791,2.0987,2.1661,2.2149,2.2378,2.2397,2.2397,2.2441,2.2539,2.253,2.2451,2.253,2.2671,2.2847,2.2631,2.2475,2.2496,2.2243,2.2002,2.1924,2.1934,2.1719,2.1553,2.1327,2.1093,2.08,2.0449,2.0225,2.0098,1.9942,1.9863,1.9902,1.9902,1.9902,1.9902,1.9784,1.9754,1.9715,1.9587,1.9539,1.9499,1.9411,1.9292,1.9292,1.9292,1.9292,1.9292,1.9292,1.9292,1.9292,1.9274,1.9054,1.8669,1.8128,1.7724,1.7431,1.7156,1.6908,1.6908,1.6874,1.6874,1.676,1.6716,1.6656,1.6499,1.6006,1.586,1.5566,1.5069,1.4629,1.442,1.4016,1.3389,1.2877,1.2546,1.2279,1.1725,1.1216,1.0933,1.0744,1.0681,1.0649,1.0649,1.0586,1.0561,1.0561,1.0434,1.0434,1.033,1.0271,0.9775,0.9421,0.9109,0.8607,0.8128,0.7846,0.7647,0.7373,0.7117,0.6949,0.6846,0.6663,0.6517,0.6463,0.6354,0.6196,0.5978,0.5732,0.5626,0.5544,0.5321,0.5073,0.4963,0.4853,0.4605,2.0619,2.0771,2.1527,2.2078,2.2391,2.2511,2.253,2.252,2.275,2.2838,2.2803,2.2838,2.2838,2.2925,2.2994,2.2828,2.2695,2.2584,2.2363,2.2217,2.2148,2.209,2.1914,2.1609,2.1385,2.1112,2.0721,2.0488,2.0333,2.0177,2.0059,2.001,1.9981,1.9981,1.9981,1.9942,1.9951,1.9951,1.9902,1.9863,1.9745,1.9578,1.946,1.942,1.9381,1.9341,1.9341,1.9341,1.9341,1.9292,1.9283,1.9136,1.8806,1.8348,1.7953,1.7633,1.7165,1.6972,1.6908,1.6908,1.6908,1.6908,1.6908,1.683,1.6673,1.6524,1.6376,1.6087,1.5575,1.5206,1.4985,1.4664,1.3999,1.3413,1.3116,1.2663,1.1974,1.1387,1.1129,1.0902,1.08,1.0807,1.0744,1.0681,1.0649,1.0618,1.0624,1.0624,1.0643,1.0634,1.0407,1.0164,0.9977,0.9398,0.8701,0.8349,0.8139,0.7914,0.7656,0.7329,0.7035,0.6851,0.6727,0.668,0.6576,0.6433,0.626,0.6037,0.5932,0.5881,0.5599,0.5348,0.516,0.505,0.4908,2.0552,2.0916,2.1771,2.226,2.2504,2.2814,2.2969,2.296,2.3003,2.3057,2.3013,2.3057,2.3047,2.3047,2.3047,2.3027,2.3012,2.2949,2.2998,2.2877,2.282,2.264,2.2445,2.2254,2.1807,2.1445,2.1103,2.0878,2.0674,2.0537,2.045,2.0411,2.0411,2.0411,2.0411,2.0333,2.0225,2.0186,2.0069,1.9981,1.9942,1.9863,1.9824,1.9784,1.9784,1.9676,1.9597,1.9566,1.9469,1.9341,1.9292,1.9228,1.8953,1.8522,1.8109,1.7752,1.7312,1.6982,1.6908,1.6908,1.6908,1.6908,1.6908,1.6908,1.6751,1.6682,1.6568,1.6499,1.6042,1.5721,1.5471,1.5129,1.4614,1.4016,1.3615,1.2797,1.199,1.1703,1.1454,1.1237,1.1059,1.1028,1.0965,1.0909,1.087,1.087,1.0902,1.087,1.0814,1.0863,1.0937,1.0809,1.0636,1.0151,0.948,0.8976,0.8695,0.845,0.8126,0.7722,0.7349,0.7034,0.6926,0.6987,0.6858,0.6668,0.6489,0.6471,0.6234,0.6147,0.5904,0.5654,0.5483,0.5361,0.5297]}]]